[[{"header":{"parameterUnit":"m.s-1","parameterCategory":1,"la1":30.6,"la2":29.2853,"lo1":-89.7004,"lo2":-87.6739,"dx":0.0162,"dy":0.0183,"nx":112,"ny":82,"refTime":"2023-01-01T06:00:00:Z","depth":0,"parameterNumber":2,"parameterNumberName":"U-component_of_WINDS"},"data":[0.0,0.0,0.0,0.0,0.0,0.0,0.0,0.0,0.0,0.0,0.0,0.0,0.0,0.0,0.0,0.0,0.0,0.0,0.0,0.0,0.0,0.0,0.0,0.0,0.0,0.0,0.0,0.0,0.0,0.0,0.0,0.0,0.0,0.0,0.0,0.0,0.0,0.0,0.0,0.0,0.0,0.0,0.0,0.0,0.0,0.0,0.0,0.0,0.0,0.0,0.0,0.0,0.0,0.0,0.0,0.0,0.0,0.0,0.0,0.0,0.0,0.0,0.0,0.0,0.0,0.0,0.0,0.0,0.0,0.0,0.0,0.0,0.0,0.0,0.0,0.0,0.0,0.0,0.0,0.0,0.0,0.0,0.0,0.0,0.0,0.0,0.0,0.0,0.0,0.0,-6.0666,-6.3769,-6.5397,-6.6244,-6.609,-6.609,-6.4551,-6.1012,0.0,0.0,0.0,0.0,0.0,0.0,0.0,0.0,0.0,0.0,0.0,0.0,0.0,0.0,0.0,0.0,0.0,0.0,0.0,0.0,0.0,0.0,0.0,0.0,0.0,0.0,0.0,0.0,0.0,0.0,0.0,0.0,0.0,0.0,0.0,0.0,0.0,0.0,0.0,0.0,0.0,0.0,0.0,0.0,0.0,0.0,0.0,0.0,0.0,0.0,0.0,0.0,0.0,0.0,0.0,0.0,0.0,0.0,0.0,0.0,0.0,0.0,0.0,0.0,0.0,0.0,0.0,0.0,0.0,0.0,0.0,0.0,0.0,0.0,0.0,0.0,0.0,0.0,0.0,0.0,0.0,0.0,0.0,0.0,0.0,0.0,0.0,0.0,0.0,0.0,0.0,0.0,0.0,0.0,0.0,0.0,0.0,0.0,0.0,0.0,0.0,0.0,0.0,0.0,-6.1589,-6.7038,-6.7859,-6.7705,-6.6974,-6.6898,-6.5166,-6.105,0.0,0.0,0.0,0.0,0.0,0.0,0.0,0.0,0.0,0.0,0.0,0.0,0.0,0.0,0.0,0.0,0.0,0.0,0.0,0.0,0.0,0.0,0.0,0.0,0.0,0.0,0.0,0.0,0.0,0.0,0.0,0.0,0.0,0.0,0.0,0.0,0.0,0.0,0.0,0.0,0.0,0.0,0.0,0.0,0.0,0.0,0.0,0.0,0.0,0.0,0.0,0.0,0.0,0.0,0.0,0.0,0.0,0.0,0.0,0.0,0.0,0.0,0.0,0.0,0.0,0.0,0.0,0.0,0.0,0.0,0.0,0.0,0.0,0.0,0.0,0.0,0.0,0.0,0.0,0.0,0.0,0.0,0.0,0.0,0.0,0.0,0.0,0.0,0.0,0.0,0.0,0.0,0.0,0.0,0.0,0.0,0.0,0.0,0.0,0.0,0.0,0.0,0.0,-6.0589,-6.3858,-6.7975,-6.8385,-6.8244,-6.7859,-6.7782,-6.6013,-6.1781,-5.9896,0.0,0.0,0.0,0.0,0.0,0.0,0.0,0.0,0.0,0.0,0.0,0.0,0.0,0.0,0.0,0.0,0.0,0.0,0.0,0.0,0.0,0.0,0.0,0.0,0.0,0.0,0.0,0.0,0.0,0.0,0.0,0.0,0.0,0.0,0.0,0.0,0.0,0.0,0.0,0.0,0.0,0.0,0.0,0.0,0.0,0.0,0.0,0.0,0.0,0.0,0.0,0.0,0.0,0.0,0.0,0.0,0.0,0.0,0.0,0.0,0.0,0.0,0.0,0.0,0.0,0.0,0.0,0.0,0.0,0.0,0.0,0.0,0.0,0.0,0.0,0.0,0.0,0.0,0.0,0.0,0.0,0.0,0.0,0.0,0.0,0.0,0.0,0.0,0.0,0.0,0.0,0.0,0.0,0.0,0.0,0.0,0.0,0.0,0.0,0.0,0.0,0.0,-6.5166,-6.6628,-6.8783,-6.9013,-6.8898,-6.8744,-6.8706,-6.6821,-6.237,-6.0473,0.0,0.0,0.0,0.0,0.0,0.0,0.0,0.0,0.0,0.0,0.0,0.0,0.0,0.0,0.0,0.0,0.0,0.0,0.0,0.0,0.0,0.0,0.0,0.0,0.0,0.0,0.0,0.0,0.0,0.0,0.0,0.0,0.0,0.0,0.0,0.0,0.0,0.0,0.0,0.0,0.0,0.0,0.0,0.0,0.0,0.0,0.0,0.0,0.0,0.0,0.0,0.0,0.0,0.0,0.0,0.0,0.0,0.0,0.0,0.0,0.0,0.0,0.0,0.0,0.0,0.0,0.0,0.0,0.0,0.0,0.0,0.0,0.0,0.0,0.0,0.0,0.0,0.0,0.0,0.0,0.0,0.0,0.0,0.0,0.0,0.0,0.0,0.0,0.0,0.0,0.0,0.0,0.0,0.0,0.0,0.0,0.0,0.0,0.0,0.0,0.0,0.0,-6.6859,-6.9706,-7.0629,-7.0706,-7.0437,-6.9667,-6.9629,-6.7475,-6.2409,-6.0473,0.0,0.0,0.0,0.0,0.0,0.0,0.0,0.0,0.0,0.0,0.0,0.0,0.0,0.0,0.0,0.0,0.0,0.0,0.0,0.0,0.0,0.0,0.0,0.0,0.0,0.0,0.0,0.0,0.0,0.0,0.0,0.0,0.0,0.0,0.0,0.0,0.0,0.0,0.0,0.0,0.0,0.0,0.0,0.0,0.0,0.0,0.0,0.0,0.0,0.0,0.0,0.0,0.0,0.0,0.0,0.0,0.0,0.0,0.0,0.0,0.0,0.0,0.0,0.0,0.0,0.0,0.0,0.0,0.0,0.0,0.0,0.0,0.0,0.0,0.0,0.0,0.0,0.0,0.0,0.0,0.0,0.0,0.0,0.0,0.0,0.0,0.0,0.0,0.0,0.0,0.0,0.0,0.0,0.0,0.0,0.0,0.0,0.0,0.0,0.0,0.0,0.0,-6.609,-6.8783,-7.0706,-7.0898,-7.0783,-7.0475,-7.0437,-6.8282,-6.3166,0.0,0.0,0.0,0.0,0.0,0.0,0.0,0.0,0.0,0.0,0.0,0.0,0.0,0.0,0.0,0.0,0.0,0.0,0.0,0.0,0.0,0.0,0.0,0.0,0.0,0.0,0.0,0.0,0.0,0.0,0.0,0.0,0.0,0.0,0.0,0.0,0.0,0.0,0.0,0.0,0.0,0.0,0.0,0.0,0.0,0.0,0.0,0.0,0.0,0.0,0.0,0.0,0.0,0.0,0.0,0.0,0.0,0.0,0.0,0.0,0.0,0.0,0.0,0.0,0.0,0.0,0.0,0.0,0.0,0.0,0.0,0.0,0.0,0.0,0.0,0.0,0.0,0.0,0.0,0.0,0.0,0.0,0.0,0.0,0.0,0.0,0.0,0.0,0.0,0.0,0.0,0.0,0.0,0.0,0.0,0.0,0.0,0.0,0.0,0.0,0.0,0.0,-6.232,-6.6051,-6.8975,-7.0706,-7.0898,-7.0898,-7.0898,-7.0898,-6.8744,-6.3615,0.0,0.0,0.0,0.0,0.0,0.0,0.0,0.0,0.0,0.0,0.0,0.0,0.0,0.0,0.0,0.0,0.0,0.0,0.0,0.0,0.0,0.0,0.0,0.0,0.0,0.0,0.0,0.0,0.0,0.0,0.0,0.0,0.0,0.0,0.0,0.0,0.0,0.0,0.0,0.0,0.0,0.0,0.0,0.0,0.0,0.0,0.0,0.0,0.0,0.0,0.0,0.0,0.0,0.0,0.0,0.0,0.0,0.0,0.0,0.0,0.0,0.0,0.0,0.0,0.0,0.0,0.0,0.0,0.0,0.0,0.0,0.0,0.0,0.0,0.0,0.0,0.0,0.0,0.0,0.0,0.0,0.0,0.0,0.0,0.0,0.0,0.0,0.0,0.0,0.0,0.0,0.0,0.0,0.0,0.0,0.0,0.0,0.0,0.0,0.0,0.0,0.0,-6.1793,-6.7244,-7.0898,-7.0898,-7.0898,-7.0898,-7.0898,-7.0898,-6.8744,0.0,0.0,0.0,0.0,0.0,0.0,0.0,0.0,0.0,0.0,0.0,0.0,0.0,0.0,0.0,0.0,0.0,0.0,0.0,0.0,0.0,0.0,0.0,0.0,0.0,0.0,0.0,0.0,0.0,0.0,0.0,0.0,0.0,0.0,0.0,0.0,0.0,0.0,0.0,0.0,0.0,0.0,0.0,0.0,0.0,0.0,0.0,0.0,0.0,0.0,0.0,0.0,0.0,0.0,0.0,0.0,0.0,0.0,0.0,0.0,0.0,0.0,0.0,0.0,0.0,0.0,0.0,0.0,0.0,0.0,0.0,0.0,0.0,0.0,0.0,0.0,0.0,0.0,0.0,0.0,0.0,0.0,0.0,0.0,0.0,0.0,0.0,0.0,0.0,0.0,0.0,0.0,0.0,0.0,0.0,0.0,0.0,0.0,0.0,0.0,0.0,0.0,0.0,-6.2627,-6.759,-7.0898,-7.0898,-7.0898,-7.0898,-7.0898,-7.0898,-6.8744,-6.3615,0.0,0.0,0.0,0.0,0.0,0.0,0.0,0.0,0.0,0.0,0.0,0.0,0.0,0.0,0.0,0.0,0.0,0.0,0.0,0.0,0.0,0.0,0.0,0.0,0.0,0.0,0.0,0.0,0.0,0.0,0.0,0.0,0.0,0.0,0.0,0.0,0.0,0.0,0.0,0.0,0.0,0.0,0.0,0.0,0.0,0.0,0.0,0.0,0.0,0.0,0.0,0.0,0.0,0.0,0.0,0.0,0.0,0.0,0.0,0.0,0.0,0.0,0.0,0.0,0.0,0.0,0.0,0.0,0.0,0.0,0.0,0.0,0.0,0.0,0.0,0.0,0.0,0.0,0.0,0.0,0.0,0.0,0.0,0.0,0.0,0.0,0.0,0.0,0.0,0.0,0.0,0.0,0.0,0.0,0.0,0.0,0.0,0.0,0.0,0.0,0.0,0.0,-6.2474,-6.7552,-7.0898,-7.0898,-7.0898,-7.0898,-7.0898,-7.0898,-6.9167,-6.5089,0.0,0.0,0.0,0.0,0.0,0.0,0.0,0.0,0.0,0.0,0.0,0.0,0.0,0.0,0.0,0.0,0.0,0.0,0.0,0.0,0.0,0.0,0.0,0.0,0.0,0.0,0.0,0.0,0.0,0.0,0.0,0.0,0.0,0.0,0.0,0.0,0.0,0.0,0.0,0.0,0.0,0.0,0.0,0.0,0.0,0.0,0.0,0.0,0.0,0.0,0.0,0.0,0.0,0.0,0.0,0.0,0.0,0.0,0.0,0.0,0.0,0.0,0.0,0.0,0.0,0.0,0.0,0.0,0.0,0.0,0.0,0.0,0.0,0.0,0.0,0.0,0.0,0.0,0.0,0.0,0.0,0.0,0.0,0.0,0.0,0.0,0.0,0.0,0.0,0.0,0.0,0.0,0.0,0.0,0.0,0.0,0.0,0.0,0.0,0.0,0.0,0.0,-6.1985,-6.7398,-7.1052,-7.1129,-7.1129,-7.1129,-7.1129,-7.1129,-7.0052,-6.7513,0.0,0.0,0.0,0.0,0.0,0.0,0.0,0.0,0.0,0.0,0.0,0.0,0.0,0.0,0.0,0.0,0.0,0.0,0.0,0.0,0.0,0.0,0.0,0.0,0.0,0.0,0.0,0.0,0.0,0.0,0.0,0.0,0.0,0.0,0.0,0.0,0.0,0.0,0.0,0.0,0.0,0.0,0.0,0.0,0.0,0.0,0.0,0.0,0.0,0.0,0.0,0.0,0.0,0.0,0.0,0.0,0.0,0.0,0.0,0.0,-5.5117,-5.207,0.0,0.0,0.0,0.0,0.0,0.0,0.0,0.0,0.0,0.0,0.0,0.0,0.0,0.0,0.0,0.0,0.0,0.0,0.0,0.0,0.0,0.0,0.0,0.0,0.0,0.0,0.0,0.0,0.0,0.0,0.0,0.0,0.0,0.0,0.0,0.0,0.0,0.0,0.0,0.0,-6.3743,-6.8667,-7.2206,-7.286,-7.2937,-7.2937,-7.2937,-7.2937,-7.186,-6.9321,-6.7667,0.0,0.0,0.0,0.0,0.0,0.0,0.0,0.0,0.0,0.0,0.0,0.0,0.0,0.0,0.0,0.0,0.0,0.0,0.0,0.0,0.0,0.0,0.0,0.0,0.0,0.0,0.0,0.0,0.0,0.0,0.0,0.0,0.0,0.0,0.0,0.0,0.0,0.0,0.0,0.0,0.0,0.0,0.0,0.0,0.0,0.0,0.0,0.0,0.0,0.0,0.0,0.0,0.0,0.0,0.0,0.0,0.0,0.0,0.0,-5.832,-5.6055,0.0,0.0,0.0,0.0,0.0,0.0,0.0,0.0,0.0,0.0,0.0,0.0,0.0,0.0,0.0,0.0,0.0,0.0,0.0,0.0,0.0,0.0,0.0,0.0,0.0,0.0,0.0,0.0,0.0,0.0,0.0,0.0,0.0,0.0,0.0,0.0,0.0,0.0,0.0,0.0,-6.4897,-6.9667,-7.3014,-7.3437,-7.3514,-7.3514,-7.3514,-7.3514,-7.2937,-7.1629,-6.9552,0.0,0.0,0.0,0.0,0.0,0.0,0.0,0.0,0.0,0.0,0.0,0.0,0.0,0.0,0.0,0.0,0.0,0.0,0.0,0.0,0.0,0.0,0.0,0.0,0.0,0.0,0.0,0.0,0.0,0.0,0.0,0.0,0.0,0.0,0.0,0.0,0.0,0.0,0.0,0.0,0.0,0.0,0.0,0.0,0.0,0.0,0.0,0.0,0.0,0.0,0.0,0.0,0.0,-6.0195,-6.0781,-6.082,-6.2344,-6.3828,-6.5,-6.1445,-6.0508,-6.1289,-5.8164,0.0,0.0,0.0,0.0,0.0,0.0,0.0,0.0,0.0,0.0,0.0,0.0,0.0,0.0,0.0,0.0,0.0,0.0,0.0,0.0,0.0,0.0,-6.3782,-6.4474,-6.6359,-6.7013,-6.3551,0.0,0.0,0.0,0.0,0.0,0.0,0.0,0.0,0.0,0.0,0.0,-6.6397,-7.0821,-7.3783,-7.3937,-7.3937,-7.3937,-7.3937,-7.3937,-7.3937,-7.3937,-7.1283,-6.909,0.0,0.0,0.0,0.0,0.0,0.0,0.0,0.0,0.0,0.0,0.0,0.0,0.0,0.0,0.0,0.0,0.0,0.0,0.0,0.0,0.0,0.0,0.0,0.0,0.0,0.0,0.0,0.0,0.0,0.0,0.0,0.0,-5.4844,-5.5976,0.0,0.0,0.0,0.0,0.0,0.0,0.0,0.0,0.0,0.0,0.0,0.0,0.0,-5.8242,-6.0039,-6.1445,-6.2578,-6.3476,-6.5859,-6.6992,-6.7031,-6.7969,-6.8515,-6.8711,-6.8125,0.0,-6.5898,-6.3906,0.0,0.0,0.0,0.0,0.0,0.0,0.0,0.0,0.0,0.0,0.0,0.0,0.0,0.0,0.0,0.0,0.0,0.0,0.0,0.0,0.0,0.0,-6.9783,-6.986,-7.0744,-7.136,-7.0821,-6.5974,-6.1127,-5.9088,-5.9204,-5.828,0.0,0.0,0.0,0.0,0.0,0.0,-6.9629,-7.2745,-7.4822,-7.5592,-7.5668,-7.5668,-7.5668,-7.5668,-7.5668,-7.5668,-7.5245,-7.3283,-6.9513,-6.7475,0.0,0.0,0.0,0.0,0.0,0.0,0.0,0.0,0.0,0.0,0.0,0.0,0.0,0.0,0.0,0.0,0.0,0.0,0.0,0.0,0.0,0.0,0.0,0.0,0.0,0.0,0.0,0.0,0.0,-5.4414,-5.707,-5.7969,-5.6601,-5.5195,0.0,0.0,0.0,0.0,0.0,0.0,0.0,0.0,0.0,-6.2734,-6.2422,-6.3281,-6.543,-6.5781,-6.6367,-6.7226,-6.8359,-6.8906,-6.8945,-6.9258,-6.9687,-7.0117,-7.0117,-7.0,-6.9531,-6.6746,-6.3921,-6.1221,0.0,0.0,0.0,0.0,-5.9078,-5.8776,-6.212,-6.3009,-6.2524,-6.2009,0.0,0.0,0.0,0.0,0.0,0.0,0.0,-6.4012,-6.6167,-6.8821,-7.1168,-7.2129,-7.2668,-7.2937,-7.2937,-7.0591,-6.7552,-6.4397,-6.4089,-6.2551,-5.6868,-5.8896,0.0,0.0,0.0,-6.8744,-7.1937,-7.4591,-7.6476,-7.7323,-7.74,-7.74,-7.74,-7.74,-7.74,-7.74,-7.6976,-7.6092,-7.4707,-7.0744,-6.7013,0.0,0.0,0.0,0.0,0.0,0.0,0.0,0.0,0.0,0.0,0.0,0.0,0.0,0.0,0.0,0.0,0.0,0.0,0.0,0.0,0.0,0.0,0.0,0.0,0.0,0.0,0.0,0.0,-5.6992,-5.9375,-5.9805,-5.9648,-5.8594,0.0,0.0,0.0,0.0,0.0,0.0,-6.2344,-6.3633,-6.5234,-6.7187,-6.7031,-6.7812,-6.9726,-6.8945,-6.8867,-6.9492,-6.9648,-6.9765,-6.9805,-7.0,-7.043,-7.1015,-7.1015,-7.1406,-7.1797,-6.9082,-6.6951,-6.5304,-6.4558,-6.3019,-6.144,-6.3291,-6.3361,-6.3106,-6.6768,-6.7667,-6.709,-6.6667,-6.609,-6.5013,-6.1858,0.0,0.0,0.0,0.0,-6.6744,-6.909,-7.0629,-7.1898,-7.3206,-7.3654,-7.3822,-7.3822,-7.3976,-7.3091,-6.9436,-6.8898,-6.7167,-6.1281,-6.3743,0.0,-6.4012,-6.8205,-7.236,-7.4514,-7.6438,-7.7823,-7.8438,-7.8477,-7.8477,-7.8477,-7.8477,-7.84,-7.8207,-7.763,-7.7361,-7.7515,-7.3322,-7.0744,-7.0283,0.0,0.0,0.0,0.0,0.0,0.0,0.0,0.0,0.0,0.0,0.0,0.0,0.0,0.0,0.0,0.0,0.0,0.0,0.0,0.0,0.0,0.0,0.0,0.0,0.0,0.0,0.0,0.0,0.0,-6.168,-6.3008,0.0,0.0,0.0,0.0,-6.2539,-6.2773,-6.4297,-6.7617,-6.789,-6.9101,-7.1601,-7.0898,-7.0508,-7.0625,-6.9844,-6.9414,-6.9414,-7.0234,-7.0625,-7.0664,-7.1484,-7.1875,-7.1914,-7.1914,-7.1953,-7.1992,-7.1797,-7.0703,-6.9101,-6.9062,-6.7336,-6.5142,-6.7645,-6.7813,-6.7154,-6.9783,-7.0667,-7.0783,-7.1552,-7.0167,-6.8154,-6.7975,-6.6821,0.0,0.0,-6.9244,-7.0975,-7.2783,-7.3322,-7.3399,-7.3462,-7.4091,-7.463,-7.463,-7.5284,-7.5322,-7.3553,-7.3822,-7.3206,-6.9667,0.0,-7.1783,-7.1629,-7.2629,-7.4553,-7.7823,-7.8361,-7.8453,-7.8477,-7.8477,-7.8477,-7.8477,-7.8477,-7.8169,-7.74,-7.7323,-7.6592,-7.4976,-7.463,-7.2591,-6.859,-6.7359,0.0,0.0,0.0,0.0,0.0,0.0,0.0,0.0,0.0,0.0,0.0,0.0,0.0,0.0,0.0,0.0,0.0,0.0,0.0,0.0,0.0,0.0,0.0,0.0,0.0,0.0,0.0,0.0,-6.3398,-6.4414,0.0,-6.3476,-6.4883,-6.6015,-6.6328,-6.8398,-7.0156,-7.1406,-7.1992,-7.2734,-7.3633,-7.2812,-7.2656,-7.3203,-7.2383,-7.1914,-7.1914,-7.2226,-7.207,-7.1562,-7.1875,-7.1992,-7.1992,-7.1992,-7.1992,-7.1992,-7.1992,-7.1558,-7.0863,-7.0642,-6.9935,-6.9118,-6.991,-7.0283,-7.0514,-7.1398,-7.2091,-7.2629,-7.2937,-7.2437,-7.1654,-7.1654,-7.1283,-7.1014,-7.2129,-7.2899,-7.363,-7.4784,-7.5515,-7.5938,-7.5938,-7.6553,-7.713,-7.713,-7.74,-7.7438,-7.6823,-7.6515,-7.5476,-7.2629,-7.4437,-7.5515,-7.336,-7.513,-7.7361,-7.9092,-7.9323,-7.9554,-8.0092,-8.0169,-8.0169,-8.0169,-8.0169,-8.0054,-7.9746,-7.9208,-7.8631,-7.8015,-7.6938,-7.5668,-7.4168,-7.2706,-6.8744,0.0,0.0,0.0,0.0,0.0,0.0,0.0,0.0,0.0,0.0,0.0,0.0,0.0,0.0,0.0,0.0,0.0,0.0,0.0,0.0,0.0,0.0,0.0,0.0,0.0,-6.2187,-6.4648,-6.4336,-6.6094,-6.6875,-6.5742,-6.8242,-6.9922,-6.9922,-7.2305,-7.375,-7.375,-7.457,-7.5039,-7.5039,-7.4492,-7.4453,-7.5039,-7.418,-7.375,-7.375,-7.375,-7.3281,-7.2422,-7.2422,-7.2265,-7.1992,-7.1992,-7.2187,-7.2422,-7.2422,-7.2489,-7.2533,-7.199,-7.1753,-7.1655,-7.181,-7.2199,-7.2629,-7.2629,-7.3206,-7.3899,-7.3899,-7.4091,-7.4361,-7.4361,-7.4553,-7.4899,-7.5438,-7.5784,-7.613,-7.6669,-7.7284,-7.7707,-7.7707,-7.8092,-7.8477,-7.8477,-7.8707,-7.8938,-7.8938,-7.8246,-7.7169,-7.5476,-7.7284,-7.8092,-7.5553,-7.7592,-7.9477,-7.9746,-8.0054,-8.0554,-8.14,-8.1516,-8.1631,-8.19,-8.117,-8.09,-8.1477,-8.0169,-7.9631,-8.0208,-7.8361,-7.7284,-7.7284,-7.6169,-7.2399,-6.5936,0.0,0.0,0.0,0.0,0.0,0.0,0.0,0.0,0.0,0.0,0.0,0.0,0.0,0.0,0.0,0.0,0.0,0.0,0.0,0.0,0.0,0.0,0.0,-6.0781,-6.3555,-6.543,-6.4609,-6.8164,-7.0078,-6.8515,-7.1367,-7.332,-7.3359,-7.414,-7.4648,-7.4648,-7.5469,-7.5937,-7.5937,-7.5937,-7.5937,-7.5937,-7.5117,-7.4687,-7.4648,-7.4648,-7.418,-7.3359,-7.3359,-7.289,-7.207,-7.207,-7.2578,-7.3359,-7.3359,-7.3737,-7.4219,-7.3357,-7.2841,-7.2644,-7.3407,-7.3637,-7.3538,-7.3591,-7.413,-7.4784,-7.4784,-7.5361,-7.6092,-7.6092,-7.6669,-7.7323,-7.7323,-7.79,-7.8477,-7.8477,-7.853,-7.8515,-7.8515,-7.8554,-7.8592,-7.8592,-7.9246,-7.99,-7.99,-7.9208,-7.8631,-7.8592,-7.9285,-7.9592,-7.8746,-8.0092,0.0,-8.0054,-8.0669,-8.1477,-8.217,-8.2247,-8.2593,-8.3439,-8.1246,-8.0554,-8.2247,-8.0015,-7.94,-8.1054,-7.8784,-7.7438,-7.74,-7.7284,-7.5976,-7.3514,0.0,0.0,0.0,0.0,0.0,0.0,0.0,0.0,0.0,0.0,0.0,0.0,0.0,0.0,0.0,0.0,0.0,0.0,0.0,0.0,0.0,-6.3242,-6.543,-6.4336,-6.6601,-6.8515,-6.8906,-6.9961,-7.1015,-7.1836,-7.2734,-7.3555,-7.4219,-7.5039,-7.5547,-7.5547,-7.6367,-7.6836,-7.6836,-7.6836,-7.6836,-7.6836,-7.6601,-7.6172,-7.5547,-7.5547,-7.5078,-7.4258,-7.4258,-7.4101,-7.3906,-7.3906,-7.4023,-7.4258,-7.4258,-7.4186,-7.4047,-7.3808,-7.3581,-7.3397,-7.351,-7.3906,-7.4476,-7.5091,-7.5861,-7.6592,-7.6592,-7.713,-7.7823,-7.7823,-7.7977,-7.8169,-7.8169,-7.8323,-7.8477,-7.8477,-7.8977,-7.9438,-7.9438,-7.9939,-8.04,-8.04,-8.1016,-8.1593,-8.1593,-8.1939,-8.1785,-8.0592,-8.1054,-8.1516,-8.1285,-8.2208,-8.2824,-8.2593,-8.2747,-8.2516,-8.1554,-8.1439,-8.1516,-8.1785,-8.1131,-8.1477,-8.3131,-8.2593,-8.2131,-8.1977,-8.1285,-8.0631,-8.0054,-7.7015,-7.4784,0.0,0.0,0.0,0.0,0.0,0.0,0.0,0.0,0.0,0.0,0.0,0.0,0.0,0.0,0.0,0.0,0.0,0.0,0.0,0.0,0.0,0.0,-6.625,-6.832,-6.7812,-6.9023,-7.0117,-7.0625,-7.1328,-7.2187,-7.3203,-7.3945,-7.4609,-7.5117,-7.5937,-7.6445,-7.6445,-7.6914,-7.7187,-7.7187,-7.7187,-7.7187,-7.7187,-7.7187,-7.7148,-7.6992,-7.6992,-7.6719,-7.6211,-7.6211,-7.5859,-7.5156,-7.5156,-7.5156,-7.5156,-7.5156,-7.511,0.0,0.0,0.0,0.0,0.0,-7.5399,-7.5899,-7.6746,-7.7361,-7.7784,-7.7784,-7.813,-7.8477,-7.8477,-7.8746,-7.9054,-7.9054,-7.9323,-7.9592,-7.9592,-8.0208,-8.0862,-8.0862,-8.1516,-8.2131,-8.2131,-8.2516,-8.2824,-8.2824,-8.3247,0.0,-8.2324,-8.2516,-8.2708,-8.2362,-8.3016,-8.3478,-8.3093,-8.3362,-8.3362,-8.2747,-8.2708,-8.2824,-8.317,-8.2208,0.0,0.0,0.0,-8.2824,-8.2324,-8.2285,0.0,0.0,0.0,-7.8169,-7.8784,-7.5553,0.0,0.0,-7.1514,-7.0398,0.0,0.0,0.0,0.0,0.0,0.0,0.0,0.0,0.0,0.0,0.0,0.0,0.0,0.0,0.0,0.0,-6.875,-7.0898,-7.0976,-7.0976,-7.0976,-7.0976,-7.2461,-7.3476,-7.3594,-7.5,-7.5937,-7.6055,-7.6758,-7.7187,-7.7187,-7.7187,0.0,0.0,0.0,-7.7265,-7.7344,-7.7344,-7.7773,-7.8633,-7.8633,-7.8633,-7.8633,-7.8633,-7.7734,-7.6172,-7.6172,-7.6172,-7.6172,-7.6172,-7.6477,-7.6769,-7.586,-7.5376,-7.5322,-7.6861,-7.7438,-7.7553,-7.8246,0.0,0.0,-7.8631,-7.8707,-7.8784,-7.8784,-7.9323,-7.9977,-8.0054,-8.0631,-8.1246,-8.1362,-8.19,-8.2439,-8.2439,-8.3016,-8.3593,-8.3593,-8.367,-8.3747,-8.3747,-8.3824,-8.3862,-8.3862,-8.3785,-8.3478,-8.2708,-8.3324,-8.3593,-8.2824,-8.3401,-8.4093,-8.4709,-8.4747,0.0,-8.5747,-8.3824,-8.3632,-8.6094,-8.4209,-8.3016,-8.3016,-8.3016,-8.3016,-8.3016,-8.3016,-8.4093,-8.6247,-8.4747,-8.3939,-8.3516,-7.3591,-7.1321,0.0,0.0,0.0,0.0,0.0,0.0,0.0,0.0,0.0,0.0,0.0,0.0,0.0,0.0,0.0,-6.8476,-7.039,-7.1992,-7.2695,-7.2812,-7.2812,-7.2812,-7.3711,-7.4609,-7.5312,-7.5703,-7.6172,-7.6914,-7.7109,-7.7187,-7.7187,-7.7187,-7.7187,-7.7187,-7.7187,-7.7539,-7.8242,-7.8242,-7.8672,-7.9453,0.0,0.0,-7.9453,-7.9453,-7.8945,-7.8008,-7.8008,-7.8008,-7.8008,-7.8008,-7.8233,-7.8497,-7.7365,-7.726,-7.7823,-7.813,-7.8246,-7.8284,-7.8438,-7.8977,-7.9554,-7.9554,-8.0015,-8.0592,-8.0592,-8.0708,0.0,-8.1631,-8.1939,-8.2247,-8.2939,-8.3208,-8.3362,-8.3362,-8.3478,-8.3593,-8.3593,-8.4132,-8.467,-8.467,-8.517,-8.5632,-8.5632,-8.5093,-8.4593,-8.4439,-8.5093,-8.5555,-8.5401,-8.5517,-8.517,-8.3978,-8.3862,-8.3901,-8.4055,-8.4286,-8.517,-8.7017,-8.7363,-8.744,-8.744,-8.744,-8.744,-8.744,-8.744,-8.7363,-8.7132,-8.6824,-8.5978,-8.4593,-8.1708,-8.0554,0.0,0.0,0.0,0.0,0.0,0.0,0.0,0.0,0.0,0.0,0.0,-6.4336,-6.6484,0.0,-6.9258,-7.0508,-7.1797,-7.2812,-7.3242,-7.4062,-7.4453,-7.3984,-7.4726,-7.543,-7.5859,-7.6289,-7.6719,-7.7187,-7.7187,-7.7187,-7.7187,-7.7187,-7.7187,-7.7187,-7.7617,-7.8047,-7.8515,-7.8906,-7.9531,-8.0351,-8.0351,-8.0586,-8.1015,-8.1015,-8.0781,-8.039,-7.9922,-7.9765,-7.9687,-7.9062,-7.9188,-7.9648,-7.8889,-7.8515,-7.8554,-7.8977,-7.9131,-7.9208,-7.9631,-8.0092,-8.0516,-8.0939,-8.1362,-8.1785,-8.2208,-8.2362,-8.2439,-8.2824,-8.2939,-8.3054,-8.3478,-8.3901,-8.4247,-8.4247,-8.4555,-8.4863,-8.4863,-8.5209,-8.5517,-8.5517,-8.5824,-8.6247,-8.6671,-8.6401,-8.6017,-8.5555,-8.5863,-8.6247,-8.6709,-8.6748,-8.6594,-8.6209,-8.6132,-8.6132,-8.6132,-8.6555,-8.7171,-8.7979,-8.844,-8.8709,-8.8709,-8.8709,-8.8709,-8.8709,-8.8709,-8.8479,-8.8055,-8.7594,-8.6978,-8.6132,-8.5709,-8.4824,0.0,0.0,0.0,0.0,0.0,0.0,0.0,-6.082,-6.2187,-6.4101,-6.5625,-6.7305,-6.957,-7.0117,-7.0664,-7.2031,-7.2969,-7.3594,-7.3789,-7.5,-7.5703,-7.5156,-7.5742,-7.6133,-7.6133,-7.6797,-7.7187,-7.7187,-7.7187,-7.7187,-7.7187,-7.7344,-7.7461,-7.7461,-7.8281,-7.8828,-7.8984,-7.9648,-8.039,-8.125,-8.125,-8.1719,-8.2539,-8.2539,-8.2539,-8.25,-8.1797,-8.1406,-8.1171,-8.0235,-8.0185,-8.0683,-8.0254,-7.9789,-7.9365,-7.9854,-8.0169,-8.04,-8.1093,-8.1439,-8.1708,-8.2324,-8.2554,-8.267,-8.3401,-8.3593,-8.3632,-8.3785,-8.3862,-8.3901,-8.4055,-8.4593,-8.5132,-8.5132,-8.5632,-8.6094,-8.6094,-8.6247,-8.6363,-8.6363,-8.6478,-8.6824,-8.7517,-8.7632,-8.7401,-8.6709,-8.6594,-8.6863,-8.7555,-8.7632,-8.7902,-8.8632,-8.8709,-8.8748,-8.8902,-8.894,-8.9017,-8.9171,-8.9171,-8.9171,-8.9171,-8.9171,-8.9171,-8.9171,-8.9171,-8.9171,-8.9171,-8.8479,-8.8055,-8.7902,-8.8055,-8.7132,-5.832,-5.789,-5.8164,-6.0547,-6.1133,-6.2187,0.0,-6.6601,-6.6875,-6.9336,-7.0,-7.0469,-7.1523,-7.2344,-7.293,-7.3125,-7.3906,-7.4726,-7.5508,-7.5781,-7.6133,-7.6836,-7.6992,-7.7031,-7.7031,-7.7148,-7.7187,-7.7187,-7.7187,-7.7187,-7.7187,-7.793,-7.8359,-7.8359,-7.914,-7.9922,-8.0703,-8.082,-8.1289,-8.2148,-8.2148,-8.2617,-8.3437,-8.3437,-8.3437,-8.3437,-8.3359,-8.2851,-8.2187,-8.2457,-8.2254,-8.1792,-8.1397,-8.1591,-8.2058,-8.1268,-8.14,-8.2016,-8.2131,-8.267,-8.3324,-8.3439,-8.3439,-8.3478,-8.3555,-8.3593,-8.3747,-8.4555,-8.4747,-8.4939,-8.5632,-8.5901,-8.5978,-8.5978,-8.6017,-8.6094,-8.6094,-8.6709,-8.7248,-8.7248,-8.7863,-8.844,-8.8517,-8.8556,-8.8517,-8.8402,-8.8402,-8.844,-8.8517,-8.8556,-8.8594,-8.8671,-8.8709,-8.8979,-8.971,-8.9787,-9.0094,-9.0864,-9.0902,-9.0902,-9.0902,-9.0902,-9.0902,-9.0902,-9.0902,-9.0902,-9.0902,-9.0825,-9.0402,-8.9633,-9.0402,-8.9479,-6.3398,-6.2656,-6.2109,-6.4219,-6.4726,-6.5351,-6.7656,-6.8281,-6.8789,-7.039,-7.1094,-7.1719,-7.2617,-7.3047,-7.3476,-7.3984,-7.4805,-7.5469,-7.5859,-7.6328,-7.6797,-7.7148,-7.7187,-7.7187,-7.7187,-7.7187,-7.7187,-7.7187,-7.7656,-7.7969,-7.7969,-7.875,-7.9219,-7.9219,-8.0039,-8.0625,-8.1015,-8.1484,-8.1953,-8.2304,-8.2812,-8.3242,-8.3633,-8.414,-8.4375,-8.4375,-8.4883,-8.4609,-8.3827,-8.3904,-8.3786,-8.3463,-8.3198,-8.3201,-8.3254,-8.2342,-8.2405,-8.3054,-8.3054,-8.3285,-8.367,-8.417,-8.4362,-8.4439,-8.4901,-8.5055,-8.5132,-8.5517,-8.5593,-8.567,-8.6017,-8.6478,-8.6863,-8.6863,-8.7248,-8.7594,-8.7594,-8.7902,-8.8171,-8.8171,-8.844,-8.8863,-8.9325,-8.9402,-8.9556,-9.0094,-8.9325,-8.8863,-8.9325,-8.9402,-8.9594,-9.0094,-9.0133,-9.0287,-9.0633,-9.0671,-9.0825,-9.1171,-9.121,-9.121,-9.121,-9.121,-9.121,-9.121,-9.121,-9.121,-9.121,-9.121,-9.1018,-9.0671,-9.1018,-9.0633,-6.5976,-6.5625,-6.539,-6.6875,-6.7617,-6.8125,-6.875,-6.9531,-7.0312,-7.0937,-7.1758,-7.2539,-7.3164,-7.3672,-7.4219,-7.4844,-7.5703,-7.625,-7.625,-7.6797,-7.7187,-7.7187,-7.7187,-7.7187,-7.7187,-7.7187,-7.7305,-7.7539,-7.8125,-7.8594,-7.8828,-7.9609,-8.0078,-8.0078,-8.0898,-8.1367,-8.1367,-8.2226,-8.2656,-8.2656,-8.3554,-8.4062,-8.4336,-8.5234,-8.5508,-8.5312,-8.6172,-8.5937,-8.4882,-8.4921,-8.486,-8.4678,-8.4451,-8.4371,-8.4255,-8.3624,-8.3631,-8.3939,-8.3939,-8.4093,-8.4401,-8.5016,-8.5247,-8.5363,-8.594,-8.6286,-8.6478,-8.6478,-8.6632,-8.6824,-8.6824,-8.7286,-8.7748,-8.7748,-8.8248,-8.8709,-8.8709,-8.8863,-8.9017,-8.9017,-8.921,-8.9556,-9.0171,-9.0287,-9.0479,-9.1133,-9.0171,-8.9594,-9.0171,-9.0287,-9.0517,-9.1133,-9.121,-9.121,-9.121,-9.121,-9.121,-9.121,-9.121,-9.121,-9.121,-9.121,-9.121,-9.121,-9.121,-9.121,-9.121,-9.121,-9.121,-9.121,-9.121,-9.121,-6.4805,-6.5586,-6.7031,-6.793,-6.9375,-7.0586,-7.0625,-7.1289,-7.1914,-7.1953,-7.2656,-7.3281,-7.3281,-7.4687,-7.582,-7.5859,-7.6601,-7.7148,-7.7148,-7.7187,-7.7187,-7.7187,-7.7187,-7.7187,-7.7187,-7.7187,-7.7539,-7.8398,-7.8476,-7.8828,-7.9609,-8.0508,-8.0976,-8.0976,-8.1797,-8.2265,-8.2265,-8.3125,-8.3554,-8.3554,-8.4453,-8.5312,-8.6133,-8.7031,-8.6953,-8.6211,-8.707,-8.6484,-8.4961,-8.5585,-8.5478,-8.4882,-8.4681,-8.4947,-8.5438,-8.5438,-8.5173,-8.4863,-8.4863,-8.5363,-8.6017,-8.6055,-8.6055,-8.6055,-8.6094,-8.6709,-8.7363,-8.7363,-8.7979,-8.8632,-8.8632,-8.8632,-8.8671,-8.8671,-8.8671,-8.8709,-8.8709,-8.9325,-8.9863,-8.9863,-9.0556,-9.1133,-9.1171,-9.1171,-9.1171,-9.121,-9.1171,-9.1133,-9.1171,-9.1171,-9.1171,-9.121,-9.121,-9.121,-9.121,-9.121,-9.121,-9.121,-9.121,-9.121,-9.121,-9.121,-9.121,-9.121,-9.121,-9.121,-9.121,-9.121,-9.121,-9.121,-9.121,-9.121,-6.6562,-6.7305,-6.8086,-6.9492,-7.0273,-7.0859,-7.1445,-7.1797,-7.2148,-7.2734,-7.3086,-7.3633,-7.4805,-7.5508,-7.6094,-7.668,-7.6992,-7.7187,-7.7187,-7.7187,-7.7187,-7.7187,-7.7187,-7.7422,-7.8008,-7.8047,-7.8164,-7.8476,-7.9531,-8.0273,-8.0547,-8.1406,-8.1875,-8.1875,-8.2695,-8.3164,-8.3164,-8.4023,-8.4453,-8.4453,-8.5351,-8.6211,-8.707,-8.7383,-8.7617,-8.789,-8.8164,-8.7969,-8.7422,-8.7652,-8.7301,-8.6601,-8.6558,-8.6555,-8.6557,-8.6397,-8.6172,-8.5959,-8.5767,-8.5863,-8.6094,-8.6094,-8.6478,-8.6978,-8.6978,-8.7555,-8.8248,-8.8248,-8.8479,-8.8709,-8.8709,-8.9094,-8.9517,-8.9517,-8.994,-9.0364,-9.0364,-9.0556,-9.0748,-9.0748,-9.1018,-9.121,-9.121,-9.121,-9.121,-9.121,-9.121,-9.121,-9.121,-9.121,-9.121,-9.121,-9.121,-9.121,-9.121,-9.121,-9.121,-9.121,-9.121,-9.121,-9.121,-9.121,-9.121,-9.121,-9.121,-9.121,-9.121,-9.121,-9.121,-9.121,-9.121,-9.0902,-6.8008,-6.8633,-6.9023,-7.0742,-7.1172,-7.1328,-7.1875,-7.1992,-7.2265,-7.3125,-7.3281,-7.375,-7.5156,-7.5703,-7.6172,-7.707,-7.7695,-7.8008,-7.7695,-7.789,-7.7851,-7.7265,-7.7461,-7.789,-7.8437,-7.9023,-7.9375,-7.9375,-8.039,-8.1133,-8.1445,-8.1992,-8.2422,-8.2734,-8.332,-8.375,-8.4062,-8.4922,-8.5508,-8.5859,-8.6406,-8.7109,-8.7929,-8.7929,-8.8203,-8.8711,-8.9023,-8.8984,-8.8711,-8.8711,-8.8398,-8.789,-8.7617,-8.7279,-8.7025,-8.7215,-8.7065,-8.6795,-8.6615,-8.6555,-8.6632,-8.694,-8.7401,-8.7863,-8.7863,-8.844,-8.9133,-8.9133,-8.9363,-8.9594,-8.9594,-8.9979,-9.0364,-9.0364,-9.0787,-9.121,-9.121,-9.121,-9.121,-9.121,-9.121,-9.121,-9.121,-9.121,-9.121,-9.121,-9.121,-9.121,-9.121,-9.121,-9.121,-9.121,-9.121,-9.121,-9.121,-9.121,-9.121,-9.121,-9.121,-9.121,-9.121,-9.121,-9.121,-9.121,-9.121,-9.121,-9.121,-9.121,-9.121,-9.121,-9.121,-9.0902,-6.9023,-6.9492,-6.9922,-7.1601,-7.2031,-7.207,-7.207,-7.2109,-7.2344,-7.3125,-7.3281,-7.3515,-7.4258,-7.5195,-7.6094,-7.6875,-7.8437,-7.9297,-7.8555,-7.9101,-7.8984,-7.7461,-7.8008,-7.8515,-7.8633,-8.0078,-8.1015,-8.1054,-8.1054,-8.1445,-8.2265,-8.2344,-8.2734,-8.3554,-8.3672,-8.414,-8.4961,-8.582,-8.6679,-8.75,-8.7539,-8.7969,-8.8711,-8.875,-8.8789,-8.8867,-8.9726,-8.957,-8.8789,-8.8789,-8.8711,-8.8554,-8.7812,-8.7251,-8.6989,-8.7789,-8.7832,-8.7473,-8.7534,-8.7517,-8.7594,-8.844,-8.8709,-8.8748,-8.8748,-8.9325,-8.9979,-8.9979,-9.0556,-9.121,-9.121,-9.121,-9.121,-9.121,-9.121,-9.121,-9.121,-9.121,-9.121,-9.121,-9.121,-9.121,-9.121,-9.121,-9.121,-9.121,-9.121,-9.121,-9.121,-9.121,-9.121,-9.121,-9.121,-9.121,-9.121,-9.121,-9.121,-9.121,-9.121,-9.121,-9.121,-9.121,-9.121,-9.121,-9.121,-9.121,-9.121,-9.121,-9.121,-9.121,-9.1248,-9.1248,-6.9922,-7.0859,-7.1445,-7.1875,-7.25,-7.2969,-7.2969,-7.3476,-7.3828,-7.3398,-7.3281,-7.2969,-7.1875,-7.3476,-7.4805,-7.4375,-7.6289,-7.7773,-7.7578,-7.7695,-7.793,-7.8125,-7.8359,-7.8984,-8.0234,-8.0742,-8.1289,-8.1914,-8.1953,-8.207,-8.2304,-8.2929,-8.3359,-8.3594,-8.4844,-8.5625,-8.5859,-8.6719,-8.7265,-8.75,-8.8125,-8.8515,-8.8711,-8.9375,-9.0039,-9.0664,-9.0859,-9.0469,-8.9687,-8.9687,-8.8945,-8.7773,-8.7578,-8.7711,-8.8011,-8.8071,-8.8317,-8.8654,-8.9134,-8.8863,-8.8402,-8.8632,-8.9094,-8.9594,-8.9594,-9.021,-9.0864,-9.0864,-9.1018,-9.121,-9.121,-9.121,-9.121,-9.121,-9.121,-9.121,-9.121,-9.121,-9.121,-9.121,-9.121,-9.121,-9.121,-9.121,-9.121,-9.121,-9.121,-9.121,-9.121,-9.121,-9.121,-9.121,-9.121,-9.121,-9.121,-9.121,-9.121,-9.121,-9.121,-9.121,-9.121,-9.121,-9.121,-9.121,-9.121,-9.121,-9.121,-9.121,-9.121,-9.121,-9.1864,-9.1825,-7.0898,-7.164,-7.1992,-7.1992,-7.2656,-7.3086,-7.2344,-7.2812,-7.3125,-7.1875,-7.1328,-7.0742,-6.9765,-7.1719,-7.3437,-7.332,-7.6094,-7.8164,-7.7812,-7.8398,-7.8789,-7.8515,-7.914,-7.9961,-8.0898,-8.1367,-8.1758,-8.2265,-8.2304,-8.2461,-8.2851,-8.332,-8.3945,-8.4726,-8.5703,-8.6367,-8.6758,-8.7265,-8.7695,-8.8047,-8.8476,-8.9101,-8.9844,-9.0351,-9.1054,-9.1875,-9.1875,-9.1367,-9.0547,-9.0156,-8.9219,-8.8047,-8.8047,-8.8134,-8.832,-8.8959,-8.9294,-8.9478,-9.0218,-9.0171,-8.9787,-8.9787,-9.0094,-9.0479,-9.0479,-9.0825,-9.121,-9.121,-9.121,-9.121,-9.121,-9.121,-9.121,-9.121,-9.121,-9.121,-9.121,-9.121,-9.121,-9.121,-9.121,-9.121,-9.121,-9.121,-9.121,-9.121,-9.121,-9.121,-9.121,-9.121,-9.121,-9.121,-9.121,-9.121,-9.121,-9.121,-9.121,-9.121,-9.121,-9.121,-9.121,-9.121,-9.121,-9.121,-9.121,-9.121,-9.121,-9.1595,-9.1787,-9.1787,-9.2633,-9.2749,-7.1797,-7.1992,-7.2031,-7.2148,-7.2812,-7.3047,-7.1406,-7.164,-7.164,-6.9726,-6.8633,-6.7969,-6.7734,-6.9883,-7.1953,-7.2812,-7.6484,-7.9023,-7.8555,-7.9765,-8.0195,-7.8984,-8.0117,-8.1054,-8.1172,-8.1875,-8.2344,-8.2461,-8.2461,-8.2812,-8.3554,-8.3828,-8.4687,-8.6328,-8.6367,-8.6758,-8.75,-8.7617,-8.8008,-8.8711,-8.8945,-8.9844,-9.1289,-9.1406,-9.1875,-9.2617,-9.2617,-9.2031,-9.1054,-9.0312,-8.9492,-8.8711,-8.8711,-8.8575,-8.8598,-9.0077,-9.0378,-9.0171,-9.0941,-9.121,-9.121,-9.121,-9.121,-9.121,-9.121,-9.121,-9.121,-9.121,-9.121,-9.121,-9.121,-9.121,-9.121,-9.121,-9.121,-9.121,-9.121,-9.121,-9.121,-9.121,-9.121,-9.121,-9.121,-9.121,-9.121,-9.121,-9.121,-9.121,-9.121,-9.121,-9.121,-9.121,-9.121,-9.121,-9.121,-9.121,-9.121,-9.121,-9.121,-9.121,-9.121,-9.121,-9.121,-9.121,-9.1325,-9.1364,-9.1364,-9.2249,-9.2672,-9.2672,-9.348,-9.3864,-7.1953,-7.1992,-7.2187,-7.289,-7.3711,-7.4101,-7.3086,-7.2969,-7.2187,-6.9062,-6.7734,-6.668,-6.5234,-6.7695,-7.0195,-7.1015,-7.418,-7.6992,-7.832,-7.875,-7.9336,-8.0429,-8.082,-8.1289,-8.1992,-8.2226,-8.2617,-8.332,-8.3359,-8.3437,-8.3594,-8.4961,-8.6211,-8.7226,-8.7265,-8.7344,-8.75,-8.8164,-8.8554,-8.8711,-9.0156,-9.1015,-9.1328,-9.2031,-9.2461,-9.2617,-9.2617,0.0,-9.0195,-9.0078,-8.9492,-8.8711,-8.8711,-8.9317,-9.0193,-9.0505,-9.0765,-9.1018,-9.1171,-9.121,-9.121,-9.121,-9.121,-9.121,-9.121,-9.121,-9.121,-9.121,-9.121,-9.121,-9.121,-9.121,-9.121,-9.121,-9.121,-9.121,-9.121,-9.121,-9.121,-9.121,-9.121,-9.121,-9.121,-9.121,-9.121,-9.121,-9.121,-9.121,-9.121,-9.121,-9.121,-9.121,-9.121,-9.121,-9.121,-9.121,-9.121,-9.121,-9.121,-9.121,-9.121,-9.121,-9.121,-9.121,-9.1902,-9.2287,-9.2287,-9.3095,-9.348,-9.3518,-9.4364,-9.4749,-7.1992,-7.1992,-7.2226,-7.3086,-7.3945,-7.3906,-7.125,-7.0976,-6.9922,-6.5117,-6.418,-6.3789,-6.25,-6.5508,-6.8555,-6.9883,-7.3359,-7.6523,-7.8242,-7.9258,-8.0117,-8.0898,-8.1406,-8.1836,-8.2265,-8.2695,-8.3164,-8.3554,-8.4453,-8.4961,-8.4961,-8.6172,-8.707,-8.75,-8.75,-8.75,-8.75,-8.8281,-8.8945,-8.9375,-9.0664,-9.1523,-9.1992,-9.2422,-9.2617,-9.2617,-9.2617,-9.1601,-9.0039,-9.0508,-8.9883,-8.8789,-8.9596,-9.016,-9.0652,-9.0944,-9.1111,-9.121,-9.121,-9.121,-9.121,-9.121,-9.121,-9.121,-9.121,-9.121,-9.121,-9.121,-9.121,-9.121,-9.121,-9.121,-9.121,-9.121,-9.121,-9.121,-9.121,-9.121,-9.121,-9.121,-9.121,-9.121,-9.121,-9.121,-9.121,-9.121,-9.121,-9.121,-9.121,-9.121,-9.121,-9.121,-9.121,-9.121,-9.121,-9.121,-9.121,-9.121,-9.121,-9.121,-9.121,-9.1633,-9.1864,-9.1864,-9.271,-9.3133,-9.3133,-9.398,-9.4364,-9.4403,-9.5249,-9.5672,-7.1992,-7.2148,-7.25,-7.3359,-7.4219,-7.375,-6.9453,-6.8828,-6.7461,-6.1601,-6.082,-6.1015,-6.0508,-6.3359,-6.6523,-6.8867,-7.2344,-7.5664,-7.8164,-7.9765,-8.0859,-8.1211,-8.1875,-8.2383,-8.2578,-8.3203,-8.375,-8.414,-8.5586,-8.6484,-8.6484,-8.7148,-8.75,-8.75,-8.75,-8.7578,-8.7773,-8.8554,-8.9414,-9.0273,-9.1172,-9.1953,-9.2617,-9.2617,-9.2617,-9.2578,-9.2383,-9.1445,-9.0039,-9.0742,-9.0195,-8.9101,-9.0518,-9.0986,-9.0954,-9.1401,-9.1427,-9.121,-9.121,-9.121,-9.121,-9.121,-9.121,-9.121,-9.121,-9.121,-9.121,-9.121,-9.121,-9.121,-9.121,-9.121,-9.121,-9.121,-9.121,-9.121,-9.121,-9.121,-9.121,-9.121,-9.121,-9.121,-9.121,-9.121,-9.121,-9.121,-9.121,-9.121,-9.121,-9.121,-9.121,-9.121,-9.121,-9.121,-9.121,-9.121,-9.121,-9.121,-9.1364,-9.1479,-9.1479,-9.2287,-9.2749,-9.2749,-9.3557,-9.398,-9.398,-9.4826,-9.5288,-9.5288,-9.598,-9.6288,-7.1992,-7.2578,-7.3398,-7.4258,-7.5156,-7.4648,-7.0351,-6.8828,-6.6797,-6.1484,-5.9883,-5.9648,-6.0273,-6.1367,-6.3515,-6.7656,-6.9922,-7.289,-7.7812,-7.9258,-8.039,-8.1992,-8.2265,-8.2617,-8.3398,-8.3554,-8.4258,-8.5859,-8.6836,-8.7383,-8.7383,-8.7461,-8.75,-8.75,-8.75,-8.7851,-8.8594,-8.9453,-9.0312,-9.1172,-9.207,-9.2539,-9.2617,-9.2617,-9.2617,-9.2578,-9.1758,-9.0898,0.0,-9.0078,-9.0039,-8.9961,-9.0898,-9.1496,-9.1798,-9.1858,-9.1566,-9.121,-9.121,-9.121,-9.121,-9.121,-9.121,-9.121,-9.121,-9.121,-9.121,-9.121,-9.121,-9.121,-9.121,-9.121,-9.121,-9.121,-9.121,-9.121,-9.121,-9.121,-9.121,-9.121,-9.121,-9.121,-9.121,-9.121,-9.121,-9.121,-9.121,-9.121,-9.121,-9.121,-9.121,-9.121,-9.121,-9.121,-9.121,-9.121,-9.121,-9.121,-9.1941,-9.2364,-9.2364,-9.3172,-9.3595,-9.3595,-9.4441,-9.4864,-9.4864,-9.5749,-9.6172,-9.6172,-9.6249,-9.6288,-7.25,-7.3047,-7.3633,-7.5039,-7.4844,-7.3203,-6.8906,-6.6836,-6.4375,-5.918,-5.8281,-5.8515,-5.8828,-6.0,-6.2344,-6.6719,-6.8828,-7.1562,-7.6289,-7.8125,-7.9414,-8.0586,-8.1211,-8.207,-8.3476,-8.4062,-8.5117,-8.6836,-8.7304,-8.75,-8.75,-8.75,-8.75,-8.75,-8.7969,-8.8398,-8.8711,-9.0078,-9.0976,-9.1328,-9.2187,-9.2617,-9.2617,-9.2617,-9.2617,-9.2539,-9.1679,-9.1094,0.0,-9.0781,-9.0781,-9.0859,-9.1545,-9.1871,-9.1858,-9.1739,-9.1445,-9.121,-9.121,-9.121,-9.121,-9.121,-9.121,-9.121,-9.121,-9.121,-9.121,-9.121,-9.121,-9.121,-9.121,-9.121,-9.121,-9.121,-9.121,-9.121,-9.121,-9.121,-9.121,-9.121,-9.121,-9.121,-9.121,-9.121,-9.121,-9.121,-9.121,-9.121,-9.121,-9.121,-9.121,-9.121,-9.121,-9.121,-9.121,-9.121,-9.1441,-9.1941,-9.2326,-9.271,-9.321,-9.4018,-9.448,-9.448,-9.5326,-9.5788,-9.5788,-9.6134,-9.6288,-9.6288,-9.6288,-9.6557,-7.2812,-7.3672,-7.4375,-7.5586,-7.4609,-7.2187,-6.789,-6.5351,-6.2539,-5.7617,-5.7109,-5.7539,-5.7539,-5.8672,-6.1015,-6.5078,-6.7187,-6.9961,-7.4844,-7.6797,-7.8203,-7.9531,-8.0469,-8.1679,-8.3437,-8.4844,-8.6172,-8.7422,-8.75,-8.75,-8.75,-8.7734,-8.7851,-8.7851,-8.8398,-8.8945,-8.9453,-9.0703,-9.1445,-9.1679,-9.2304,-9.2617,-9.2617,-9.2617,-9.2617,-9.2578,-9.1953,-9.1523,0.0,-9.1562,-9.1523,-9.1367,-9.2046,-9.2134,-9.1897,-9.1706,-9.1455,-9.121,-9.121,-9.121,-9.121,-9.121,-9.121,-9.121,-9.121,-9.121,-9.121,-9.121,-9.121,-9.121,-9.121,-9.121,-9.121,-9.121,-9.121,-9.121,-9.121,-9.121,-9.121,-9.121,-9.121,-9.121,-9.121,-9.121,-9.121,-9.121,-9.121,-9.121,-9.121,-9.121,-9.121,-9.121,-9.1441,-9.1479,-9.121,-9.1441,-9.1864,-9.2441,-9.2979,-9.348,-9.4057,-9.4903,-9.5365,-9.5365,-9.598,-9.6288,-9.6288,-9.6288,-9.6288,-9.6326,-9.6557,-9.7096,-7.2812,-7.457,-7.5898,-7.5898,-7.4609,-7.2187,-6.789,-6.4883,-6.1797,-5.75,-5.6601,-5.6601,-5.6601,-5.7344,-5.9062,-6.2461,-6.4492,-6.7734,-7.3789,-7.5351,-7.6875,-7.9414,-8.0469,-8.1679,-8.3437,-8.5937,-8.7461,-8.75,-8.75,0.0,-8.75,-8.8242,-8.8672,-8.8672,-8.8711,-8.9531,-9.125,-9.1289,-9.1719,-9.2578,-9.2617,-9.2617,-9.2617,-9.2617,-9.2617,-9.2617,-9.2578,-9.2109,0.0,-9.2226,-9.207,-9.1406,-9.2265,-9.2323,-9.1914,-9.1914,-9.1592,-9.121,-9.121,-9.121,-9.121,-9.121,-9.121,-9.121,-9.121,-9.121,-9.121,-9.121,-9.121,-9.121,-9.121,-9.121,-9.121,-9.121,-9.121,-9.121,-9.121,-9.121,-9.121,-9.121,-9.121,-9.121,-9.121,-9.121,-9.121,-9.121,-9.121,-9.121,-9.121,-9.121,-9.121,-9.121,-9.1979,-9.2133,-9.1287,-9.1979,-9.2479,-9.2479,-9.4057,-9.498,-9.498,-9.5826,-9.6288,-9.6288,-9.6288,-9.6288,-9.6288,-9.6288,-9.6288,-9.6326,-9.7134,-9.7942,-6.8789,-7.0586,-7.207,-7.0937,-6.9765,-6.8086,-6.4961,-6.2656,-6.0351,-5.7226,-5.6601,-5.6601,-5.6601,-5.6836,-5.8711,-6.3945,-6.5234,-6.75,-7.2969,-7.5508,-7.7305,-7.8711,-8.2226,-8.4765,-8.5312,-8.664,-8.75,-8.75,-8.75,-8.75,-8.75,-8.8242,-8.8711,-8.8711,-8.9844,-9.0742,-9.1289,-9.1875,-9.2344,-9.2617,-9.2617,-9.2617,-9.2617,-9.2617,-9.2617,-9.2578,-9.1953,-9.1875,-9.2148,-9.1836,-9.1914,-9.2226,-9.25,-9.2323,-9.1914,-9.1914,-9.1592,-9.121,-9.121,-9.121,-9.121,-9.121,-9.121,-9.121,-9.121,-9.121,-9.121,-9.121,-9.121,-9.121,-9.121,-9.121,-9.121,-9.121,-9.121,-9.121,-9.121,-9.121,-9.121,-9.121,-9.121,-9.121,-9.121,-9.121,-9.121,-9.121,-9.121,-9.121,-9.121,-9.171,-9.2095,-9.2095,-9.2826,-9.2979,-9.2172,-9.2864,-9.3557,-9.4172,-9.4711,-9.5249,-9.5865,-9.6134,-9.6288,-9.6288,-9.6288,-9.6288,-9.6288,-9.6865,-9.7442,-9.8019,-9.8865,-9.9404,-6.6445,-6.8515,-6.9883,-6.8555,-6.7031,-6.5312,-6.3047,-6.0937,-5.8906,-5.6992,-5.6601,-5.6601,-5.6601,-5.6875,-5.8515,-6.293,-6.418,-6.6523,-7.2031,-7.4492,-7.6758,-7.9609,-8.3359,-8.5859,-8.6172,-8.6992,-8.75,-8.75,-8.75,-8.7617,-8.7929,-8.875,-8.9336,-8.9687,-9.0742,-9.1445,-9.1797,-9.2344,-9.2617,-9.2617,-9.2617,-9.2617,-9.2617,-9.2617,-9.2617,-9.2578,-9.2383,-9.2383,0.0,-9.2383,-9.2422,-9.2578,-9.2493,-9.2212,-9.1905,-9.1811,-9.1514,-9.121,-9.121,-9.121,-9.121,-9.121,-9.121,-9.121,-9.121,-9.121,-9.121,-9.121,-9.121,-9.121,-9.121,-9.121,-9.121,-9.121,-9.121,-9.121,-9.121,-9.121,-9.121,-9.121,-9.121,-9.121,-9.121,-9.121,-9.121,-9.121,-9.121,-9.1325,-9.1633,-9.2172,-9.2633,-9.2903,-9.371,-9.398,-9.348,-9.3903,-9.4403,-9.496,-9.5288,-9.5711,-9.6288,-9.6288,-9.6288,-9.6288,-9.6288,-9.6442,-9.6749,-9.7596,-9.8442,-9.9288,-9.9827,-10.0289,0.0,-6.7539,-6.8633,-6.7695,-6.5703,-6.3515,-6.1797,-5.9609,0.0,-5.6797,-5.6601,-5.664,-5.6758,-5.7344,-5.8476,-6.0469,-6.2148,-6.5273,-7.125,-7.3164,-7.6094,-8.1875,-8.4062,-8.5429,-8.6289,-8.707,-8.75,-8.75,-8.75,-8.7851,-8.8672,-8.9531,-9.039,-9.1289,-9.1367,-9.1797,-9.2578,-9.2617,-9.2617,-9.2617,-9.2617,-9.2617,-9.2617,-9.2617,-9.2578,0.0,-9.3437,-9.332,-9.2578,-9.3437,-9.332,-9.2537,-9.2294,-9.2087,-9.1821,-9.159,-9.1392,-9.121,-9.121,-9.121,-9.121,-9.121,-9.121,-9.121,-9.121,-9.121,-9.121,-9.121,-9.121,-9.121,-9.121,-9.121,-9.121,-9.121,-9.121,-9.121,-9.121,-9.121,-9.121,-9.121,-9.121,-9.121,-9.121,-9.121,-9.121,-9.121,-9.1248,-9.1595,-9.2402,-9.2595,-9.2941,-9.371,-9.4557,-9.5095,-9.5095,-9.5095,-9.5095,-9.5095,-9.5865,-9.6288,-9.6288,-9.6288,-9.6326,-9.6365,-9.6442,-9.6865,-9.7673,-9.8481,-9.9327,-10.0173,-10.0173,-10.0596,-5.9726,0.0,-6.3008,-6.0859,-6.0351,-6.0117,0.0,-5.832,-5.7656,-5.6797,-5.6601,-5.6992,-5.8359,-5.7656,-5.8555,-6.3555,-6.4726,-6.6875,-7.2226,-7.7148,-8.1445,-8.4883,-8.6211,-8.7226,-8.8047,-8.7734,-8.75,-8.75,-8.75,-8.7851,-8.8672,-8.9531,-9.039,-9.1289,-9.1953,-9.2383,-9.2617,-9.2617,-9.2617,-9.2617,-9.2617,-9.2617,-9.2617,-9.2617,-9.2226,-9.164,-9.2539,-9.2422,-9.1679,-9.2539,-9.2648,-9.2291,-9.2229,-9.1965,-9.1578,-9.1541,-9.1392,-9.121,-9.121,-9.121,-9.121,-9.121,-9.121,-9.121,-9.121,-9.121,-9.121,-9.121,-9.121,-9.121,-9.121,-9.121,-9.121,-9.121,-9.121,-9.121,-9.121,-9.121,-9.121,-9.121,-9.121,-9.121,-9.121,-9.121,-9.121,-9.121,-9.1787,-9.2287,-9.2479,-9.3633,-9.448,-9.4672,-9.548,-9.598,-9.598,-9.598,-9.598,-9.598,-9.6172,-9.6288,-9.6288,-9.6288,-9.6596,-9.7211,-9.7865,-9.8634,-9.9481,-9.9673,-10.0212,-10.1019,-10.1019,-10.1096,-5.7305,-5.9453,-6.1289,-5.9492,-5.9414,-5.9531,-5.8672,-5.789,-5.7187,-5.6719,-5.6601,-5.6992,-5.8359,-5.9101,-6.0625,-6.3867,-6.6719,-7.0351,-7.5508,-8.0429,-8.4179,-8.5976,-8.7304,-8.8086,-8.8125,-8.7773,-8.75,-8.75,-8.7851,-8.8437,-8.9258,-9.0117,-9.1015,-9.1875,-9.2344,-9.2617,-9.2617,-9.2617,-9.2617,-9.2617,-9.2617,-9.2617,-9.2617,-9.2617,-9.2344,-9.1914,-9.2383,-9.2344,-9.1914,-9.2422,-9.2447,-9.2173,-9.2111,-9.1839,-9.1488,-9.1397,-9.1297,-9.121,-9.121,-9.121,-9.121,-9.121,-9.121,-9.121,-9.121,-9.121,-9.121,-9.121,-9.121,-9.121,-9.121,-9.121,-9.121,-9.121,-9.121,-9.121,-9.121,-9.121,-9.121,-9.121,-9.121,-9.121,-9.121,-9.121,-9.1325,-9.1748,-9.221,-9.2787,-9.3557,-9.4441,-9.5134,-9.5557,-9.6019,-9.6288,-9.6288,-9.6288,-9.6288,-9.6288,-9.6288,-9.6288,-9.6288,-9.6634,-9.725,-9.8096,-9.8942,-9.9635,-10.0096,-10.0481,-10.0904,-10.1289,-10.1289,-10.1096,-5.707,-5.9492,-6.1562,-6.0156,-5.9922,-5.9805,-5.8984,-5.7656,-5.6601,-5.6601,-5.6719,-5.7265,-5.8789,-6.1133,-6.3164,-6.4219,-6.8984,-7.4297,-7.9219,-8.2773,-8.5273,-8.6289,-8.7656,-8.8281,-8.7734,-8.7578,-8.75,-8.75,-8.8242,-8.9062,-8.9961,-9.082,-9.1719,-9.2578,-9.2617,-9.2617,-9.2617,-9.2617,-9.2617,-9.2617,-9.2617,-9.2617,-9.2617,-9.2617,-9.2539,-9.2422,-9.2539,0.0,-9.2422,-9.2539,-9.2404,-9.2139,-9.195,-9.1728,-9.1431,-9.127,-9.121,-9.121,-9.121,-9.121,-9.121,-9.121,-9.121,-9.121,-9.121,-9.121,-9.121,-9.121,-9.121,-9.121,-9.121,-9.121,-9.121,-9.121,-9.121,-9.121,-9.121,-9.121,-9.121,-9.121,-9.121,-9.121,-9.121,-9.1325,-9.1633,-9.2402,-9.271,-9.3403,-9.4826,-9.5095,-9.548,-9.6211,-9.6288,-9.6288,-9.6288,-9.6288,-9.6288,-9.6288,-9.6442,-9.6557,-9.6673,-9.7442,-9.825,-9.8981,-9.9827,-10.0289,-10.0289,-10.1019,-10.1289,-10.1289,-10.1212,-10.0789,-5.9219,-6.1289,-6.1914,-5.8125,-5.7734,-5.8047,-5.7187,-5.6797,-5.6601,-5.6601,-5.7187,-5.9062,-6.3594,-6.3047,-6.3828,-6.9687,-7.3242,-7.6601,-8.0273,-8.3164,-8.5508,-8.7109,-8.7539,-8.789,-8.8476,-8.789,-8.75,-8.75,-8.8242,-8.9062,-8.9961,-9.082,-9.1719,-9.2578,-9.2617,-9.2617,-9.2617,-9.2617,-9.2617,-9.2617,-9.2617,-9.2617,-9.2617,-9.2617,-9.2187,-9.1523,0.0,-9.2187,-9.1562,-9.2304,-9.2336,-9.1926,-9.1893,-9.1641,-9.1219,-9.1189,-9.121,-9.121,-9.121,-9.121,-9.121,-9.121,-9.121,-9.121,-9.121,-9.121,-9.121,-9.121,-9.121,-9.121,-9.121,-9.121,-9.121,-9.121,-9.121,-9.121,-9.121,-9.121,-9.121,-9.121,-9.121,-9.121,-9.121,-9.1825,-9.2364,-9.2479,-9.371,-9.4711,-9.496,-9.5634,-9.6134,-9.6288,-9.6288,-9.6288,-9.6288,-9.6288,-9.6288,-9.6288,-9.6942,-9.7634,-9.8404,-9.925,-9.975,-9.9904,-10.0712,-10.1096,-10.1096,-10.1212,-10.1289,-10.1289,-10.0596,-10.0212,-5.8047,-5.9297,-6.0,-5.8906,-6.0703,-6.2656,-6.2265,-6.1797,-6.1211,-6.0234,-6.0742,-6.2383,-6.5703,-6.6836,-6.9531,-7.6445,-7.7422,-7.8672,-8.2578,-8.414,-8.5547,-8.7304,-8.789,-8.8125,-8.8047,-8.7734,-8.7695,-8.8125,-8.8476,-8.9297,-9.0625,-9.1094,-9.1719,-9.2578,-9.2617,-9.2617,-9.2617,-9.2617,-9.2617,-9.2617,-9.2617,-9.2851,-9.3281,-9.2812,-9.2656,-9.2695,0.0,-9.2383,-9.2031,-9.2422,-9.233,-9.1914,-9.1914,-9.1604,-9.121,-9.121,-9.121,-9.121,-9.121,-9.121,-9.121,-9.121,-9.121,-9.121,-9.121,-9.121,-9.121,-9.121,-9.121,-9.121,-9.121,-9.121,-9.121,-9.121,-9.121,-9.121,-9.121,-9.1556,-9.1748,-9.1287,-9.1941,-9.2402,-9.1979,-9.2595,-9.3287,-9.3787,-9.4518,-9.5172,-9.5634,-9.6057,-9.6288,-9.6288,-9.6288,-9.6288,-9.6288,-9.6711,-9.6942,-9.6942,-9.7288,-9.8096,-9.9442,-9.9865,-10.0289,-10.0712,-10.1096,-10.1289,-10.1289,-10.1289,-10.1096,-10.0596,-10.0289,-9.9596,-5.7344,-5.7969,-5.8945,-6.0859,-6.3086,-6.5117,-6.6328,-6.5625,-6.4531,-6.4023,-6.4765,-6.6055,-6.7773,-7.1055,-7.5195,-8.0273,-8.0156,-8.0664,-8.4375,-8.5078,-8.5781,-8.7304,-8.8047,-8.8164,-8.7578,-8.75,-8.7812,-8.8633,-8.8711,-8.9375,-9.0898,-9.1172,-9.1601,-9.2265,-9.25,-9.2617,-9.2617,-9.2617,-9.2617,-9.2617,-9.2617,-9.3047,-9.3867,-9.3008,-9.3086,-9.3867,-9.2969,-9.2617,-9.2617,-9.2536,-9.2268,-9.1875,-9.1811,-9.158,-9.121,-9.121,-9.121,-9.121,-9.121,-9.121,-9.121,-9.121,-9.121,-9.121,-9.121,-9.121,-9.121,-9.121,-9.121,-9.121,-9.121,-9.121,-9.121,-9.121,-9.1364,-9.1518,-9.1518,-9.2172,-9.2595,-9.1902,-9.2826,-9.348,-9.2903,-9.3441,-9.421,-9.4921,-9.5172,-9.5557,-9.6211,-9.6288,-9.6288,-9.6288,-9.6288,-9.6365,-9.6557,-9.7134,-9.7673,-9.8096,-9.8096,-9.8788,-10.0289,-10.0404,-10.0712,-10.1289,-10.1289,-10.1289,-10.1289,-10.1096,-10.0712,-10.0096,-9.9673,-9.8788,-5.9492,-6.0156,-6.082,-6.3398,-6.125,-5.9805,-6.4609,-6.3789,-6.2851,-6.5976,-6.7969,-6.9648,-7.1328,-7.5156,-7.793,-7.7617,-8.0078,-8.2695,-8.4648,-8.5586,-8.6445,-8.7383,-8.7539,-8.7578,-8.75,-8.75,-8.7812,-8.8633,-8.8711,-8.9101,-9.0039,-9.0859,-9.1328,-9.1406,-9.2187,-9.2617,-9.2617,-9.2617,-9.2617,-9.2617,-9.2617,-9.3047,-9.3867,-9.3008,-9.3086,-9.3867,-9.2969,-9.2617,-9.2578,-9.2343,-9.2105,-9.1897,-9.1626,-9.1383,-9.121,-9.121,-9.121,-9.121,-9.121,-9.121,-9.121,-9.121,-9.121,-9.121,-9.121,-9.121,-9.121,-9.121,-9.121,-9.121,-9.121,-9.121,-9.121,-9.121,-9.1825,-9.2402,-9.2402,-9.3018,-9.3595,-9.3518,-9.3633,-9.3672,-9.3633,-9.4326,-9.4903,-9.498,-9.5672,-9.6249,-9.6288,-9.6288,-9.6288,-9.6288,-9.6288,-9.6596,-9.7365,-9.748,-9.8173,-9.9788,-9.9904,-10.0289,-10.1212,-10.1212,-10.1212,-10.1289,-10.1289,-10.1289,-10.1289,-10.0596,-10.0192,-10.0115,-9.8442,-9.7634,-5.7617,-5.918,-6.0898,-6.2969,-6.3086,-6.3594,-6.7148,-6.8476,-6.9297,-7.0625,-7.2265,-7.3672,-7.4297,-7.7969,-8.0234,-7.832,-8.0898,-8.3164,-8.3281,-8.4961,-8.6328,-8.664,-8.7187,-8.75,-8.75,-8.7969,-8.8594,-8.9453,-8.9023,-8.9336,-9.0742,-9.0625,-9.0742,-9.1289,-9.2148,-9.2617,-9.2617,-9.2617,-9.2851,-9.3398,-9.3398,-9.3867,-9.4687,-9.4375,-9.4414,-9.4648,-9.3789,-9.3086,-9.2578,-9.2297,-9.2099,-9.1878,-9.1484,-9.1286,-9.121,-9.121,-9.121,-9.121,-9.121,-9.121,-9.121,-9.121,-9.121,-9.121,-9.121,-9.121,-9.121,-9.121,-9.121,-9.121,-9.121,-9.121,-9.1325,-9.1864,-9.2249,-9.2633,-9.3133,-9.3903,-9.4326,-9.3787,-9.4595,-9.5134,-9.4595,-9.5211,-9.5826,-9.5826,-9.6095,-9.6288,-9.6288,-9.6288,-9.6288,-9.6288,-9.6749,-9.7403,-9.825,-9.8788,-9.9596,-10.0789,-10.0404,-10.0481,-10.1289,-10.1289,-10.1289,-10.1289,-10.1289,-10.1096,-10.0596,-10.0212,-9.9519,-9.8481,-9.7827,-9.725,-5.7695,-5.9258,-6.1289,-6.332,-6.4297,-6.5586,-6.8672,-7.1015,-7.2851,-7.4258,-7.5039,-7.5664,-7.6211,-7.8476,-7.9805,-7.832,-8.0976,-8.3086,-8.2773,-8.4492,-8.5898,-8.6172,-8.6719,-8.7109,-8.7109,-8.8086,-8.9062,-8.9922,-8.9179,-8.9336,-9.082,-9.0078,-9.0,-9.0859,-9.1758,-9.2304,-9.2617,-9.2617,-9.3047,-9.3906,-9.4179,-9.4765,-9.5586,-9.523,-9.527,-9.5547,-9.4292,-9.3428,-9.2839,-9.2329,-9.1934,-9.1653,-9.1329,-9.121,-9.121,-9.121,-9.121,-9.121,-9.121,-9.121,-9.121,-9.121,-9.121,-9.121,-9.121,-9.121,-9.121,-9.121,-9.121,-9.1248,-9.1556,-9.1595,-9.1748,-9.2364,-9.2903,-9.3441,-9.398,-9.4788,-9.5211,-9.4634,-9.548,-9.6095,-9.5518,-9.5903,-9.6288,-9.6288,-9.6288,-9.6288,-9.6288,-9.6288,-9.6403,-9.6634,-9.7173,-9.7942,-9.9096,-9.975,-10.0404,-10.1212,-10.0789,-10.0712,-10.1289,-10.1289,-10.1289,-10.1289,-10.1289,-10.0904,-10.0096,-9.9827,-9.8942,-9.748,-9.725,-9.698,-6.0586,-6.1015,-6.2344,-6.4922,-6.4336,-6.4219,-6.8476,-7.0117,-7.1953,-7.6328,-7.5859,-7.5156,-7.6875,-7.6523,-7.6211,-7.707,-8.0078,-8.2617,-8.3437,-8.4336,-8.5234,-8.6054,-8.6172,-8.6172,-8.6211,-8.7734,-8.9062,-8.9922,-8.9219,-8.9101,-8.9961,-8.9179,-8.9101,-8.9961,-9.0859,-9.1719,-9.2578,-9.2617,-9.3047,-9.3906,-9.4804,-9.5664,-9.6445,-9.5346,-9.5433,-9.6406,-9.4367,-9.3504,-9.3422,-9.2323,-9.1616,-9.121,-9.121,-9.121,-9.121,-9.121,-9.121,-9.121,-9.121,-9.121,-9.121,-9.121,-9.121,-9.121,-9.121,-9.121,-9.121,-9.121,-9.121,-9.1402,-9.2287,-9.2518,-9.2518,-9.2518,-9.3787,-9.498,-9.5018,-9.5672,-9.6288,-9.6288,-9.6288,-9.6288,-9.6288,-9.6288,-9.6288,-9.6288,-9.6288,-9.6288,-9.6288,-9.6326,-9.6634,-9.7403,-9.7519,-9.8211,-9.9942,-10.0096,-10.0481,-10.1212,-10.1289,-10.1289,-10.1289,-10.1289,-10.1289,-10.1289,-10.1289,-10.0904,-10.0096,-9.9211,-9.8365,-9.748,-9.6673,-9.6749,-5.7226,-6.0117,-6.3555,-6.3711,-6.7031,-7.043,-7.1094,-7.2383,-7.4492,-7.8203,-7.8086,-7.7305,-7.7226,-7.7969,-7.8281,-7.7344,-8.0078,-8.2187,-8.1836,-8.3594,-8.4765,-8.4414,-8.4922,-8.5547,-8.6133,-8.7734,-8.9062,-8.9922,-8.9765,-8.9726,-9.0,-8.9179,-8.8828,-8.9062,-9.0547,-9.1406,-9.1679,-9.2304,-9.3359,-9.4804,-9.5078,-9.5664,-9.6523,-9.6754,-9.6716,-9.6406,-9.5034,-9.4171,-9.3698,-9.2412,-9.1616,-9.121,-9.121,-9.121,-9.121,-9.121,-9.121,-9.121,-9.121,-9.121,-9.121,-9.121,-9.121,-9.121,-9.121,-9.121,-9.121,-9.121,-9.121,-9.1402,-9.2287,-9.2903,-9.348,-9.4095,-9.4634,-9.5172,-9.5788,-9.6134,-9.6288,-9.6288,-9.6288,-9.6288,-9.6288,-9.6288,-9.6288,-9.6288,-9.6288,-9.6288,-9.6288,-9.6788,-9.725,-9.748,-9.8596,-9.9519,-10.0115,-10.0596,-10.1019,-10.1289,-10.1289,-10.1289,-10.1289,-10.1289,-10.1289,-10.1289,-10.1289,-10.0596,-9.9173,-9.8942,-9.8365,-9.748,-9.725,-9.7596,-6.0937,-6.3828,-6.6875,-6.7031,-6.9219,-7.168,-7.3203,-7.4375,-7.5781,-7.8203,-7.8047,-7.7422,-7.7226,-7.8047,-7.8476,-7.7812,-8.0,-8.1719,-8.1523,-8.2851,-8.3789,-8.3633,-8.4062,-8.4726,-8.5586,-8.75,-8.9062,-8.9922,-9.0312,-9.0351,-9.0039,-8.9179,-8.8711,-8.8711,-9.0078,-9.0937,-9.1289,-9.2148,-9.3476,-9.5195,-9.5195,-9.582,-9.6992,-9.7415,-9.7329,-9.6778,-9.5186,-9.3965,-9.3018,-9.2025,-9.1441,-9.121,-9.121,-9.121,-9.121,-9.121,-9.121,-9.121,-9.121,-9.121,-9.121,-9.121,-9.121,-9.121,-9.121,-9.121,-9.1287,-9.1633,-9.171,-9.1979,-9.3172,-9.3826,-9.4326,-9.4864,-9.5249,-9.5672,-9.6172,-9.6288,-9.6288,-9.6288,-9.6288,-9.6288,-9.6288,-9.6288,-9.6288,-9.6288,-9.6288,-9.6442,-9.6749,-9.7211,-9.7788,-9.8442,-9.9481,-10.0212,-10.0481,-10.1019,-10.1289,-10.1289,-10.1289,-10.1289,-10.1289,-10.1289,-10.1289,-10.1289,-10.1289,-10.0596,-9.9327,-9.9327,-9.8865,-9.8019,-9.8019,-9.8481,-6.7969,-6.9492,-7.0859,-7.2422,-7.0742,-6.9922,-7.4805,-7.5898,-7.6172,-7.7109,-7.664,-7.625,-7.7031,-7.7265,-7.7617,-7.8476,-7.9961,-8.1289,-8.2187,-8.2304,-8.2578,-8.3398,-8.3476,-8.3867,-8.4804,-8.707,-8.8906,-8.9922,-9.0742,-9.0859,-9.0039,-8.9179,-8.8672,-8.8594,-8.9414,-9.0312,-9.1172,-9.2109,-9.3437,-9.5195,-9.5273,-9.6132,-9.7695,-9.7497,-9.7285,-9.7026,-9.4949,-9.322,-9.185,-9.1406,-9.1206,-9.121,-9.121,-9.121,-9.121,-9.121,-9.121,-9.121,-9.121,-9.121,-9.121,-9.121,-9.121,-9.121,-9.121,-9.1248,-9.1479,-9.2287,-9.2556,-9.2979,-9.4557,-9.498,-9.5037,-9.5095,-9.5711,-9.6288,-9.6288,-9.6288,-9.6288,-9.6288,-9.6288,-9.6288,-9.6288,-9.6288,-9.6326,-9.6403,-9.6403,-9.6711,-9.7519,-9.7634,-9.8211,-9.9788,-10.0115,-10.0404,-10.1096,-10.1289,-10.1289,-10.1289,-10.1289,-10.1289,-10.1404,-10.1289,-10.1289,-10.1289,-10.1404,-10.0981,-10.0096,-10.0173,-9.975,-9.8904,-9.8904,-9.9365,-6.1601,-6.5,-6.8828,-6.9219,-7.0742,-7.2851,-7.5312,-7.5898,-7.6328,-7.789,-7.7539,-7.6992,-7.7187,-7.7773,-7.8476,-7.9297,-8.0312,-8.1289,-8.2187,-8.2304,-8.2383,-8.2578,-8.2578,-8.3203,-8.4765,-8.6015,-8.7656,-8.9844,-9.0156,-9.0195,-9.0,-8.9179,-8.8398,-8.7773,-8.8554,-8.9414,-9.0273,-9.1614,-9.3257,-9.5195,-9.5678,-9.6539,-9.7695,-9.7497,-9.653,-9.4988,-9.4049,-9.2835,-9.1565,-9.15,-9.1331,-9.121,-9.121,-9.121,-9.121,-9.121,-9.121,-9.121,-9.121,-9.121,-9.121,-9.121,-9.121,-9.121,-9.121,-9.1672,-9.2249,-9.2441,-9.2941,-9.3672,-9.4711,-9.498,-9.5172,-9.5865,-9.6172,-9.6288,-9.6288,-9.6288,-9.6288,-9.6288,-9.6288,-9.6288,-9.6288,-9.6288,-9.6519,-9.7134,-9.725,-9.7557,-9.8404,-9.8519,-9.8673,-9.9019,-9.9673,-10.0173,-10.0289,-10.0904,-10.1289,-10.1289,-10.1289,-10.1597,-10.2289,-10.1712,-10.1289,-10.1289,-10.202,-10.1597,-10.0096,-10.0712,-10.0596,-9.9827,-9.9827,-10.0289,-6.3594,-6.6719,-6.9609,-7.043,-7.2617,-7.4765,-7.5703,-7.6211,-7.6797,-7.7695,-7.7539,-7.7344,-7.7734,-7.8515,-7.9336,-8.0195,-8.1054,-8.1797,-8.2226,-8.2304,-8.2304,-8.2304,-8.2656,-8.3437,-8.4765,-8.6054,-8.7539,-8.9258,-9.0156,-9.0273,-8.9414,-8.9336,-8.875,-8.7539,-8.8281,-8.9336,-9.0625,-9.1784,-9.3544,-9.582,-9.6013,-9.6285,-9.6616,-9.6719,-9.5802,-9.4115,-9.3587,-9.2735,-9.1695,-9.154,-9.1368,-9.121,-9.121,-9.121,-9.121,-9.121,-9.121,-9.121,-9.121,-9.121,-9.121,-9.121,-9.121,-9.121,-9.121,-9.1825,-9.2595,-9.2979,-9.3672,-9.4518,-9.5403,-9.5634,-9.5749,-9.6211,-9.6288,-9.6288,-9.6288,-9.6288,-9.6288,-9.6288,-9.6288,-9.6288,-9.6288,-9.6634,-9.6903,-9.6903,-9.725,-9.7673,-9.8134,-9.8173,-9.8481,-9.9327,-9.9827,-10.0289,-10.0596,-10.1096,-10.152,-10.1904,-10.1904,-10.2289,-10.3212,-10.2789,-10.252,-10.252,-10.2597,-10.2212,-10.1289,-10.1289,-10.1096,-10.0712,-10.0712,-10.0904,-6.6133,-6.8867,-7.0781,-7.2969,-7.4726,-7.5937,-7.6094,-7.668,-7.7187,-7.7187,-7.7187,-7.7461,-7.8359,-7.914,-8.0,-8.0859,-8.1719,-8.2304,-8.2304,-8.2304,-8.2344,0.0,0.0,0.0,0.0,0.0,0.0,0.0,0.0,-9.039,-8.8789,-8.9531,-8.9219,-8.7539,-8.8085,-8.9255,-9.1013,-9.1939,-9.3696,-9.6208,-9.6124,-9.5735,-9.5041,-9.5445,-9.4985,-9.3736,-9.3224,-9.2567,-9.1897,-9.1592,-9.1346,-9.121,-9.121,-9.121,-9.121,-9.121,-9.121,-9.121,-9.121,-9.121,-9.121,-9.121,-9.121,-9.1248,-9.1364,-9.2018,-9.2864,-9.3672,-9.4557,-9.5403,-9.6095,-9.6288,-9.6288,-9.6288,-9.6288,-9.6288,-9.6288,-9.6288,-9.6288,-9.6288,-9.6172,-9.6134,-9.6288,-9.6749,-9.6942,-9.6557,-9.7057,-9.7557,-9.7711,-9.7596,-9.8057,-9.9481,-9.9635,-9.9981,-10.1019,-10.1212,-10.1712,-10.2789,-10.2789,-10.3212,-10.4097,-10.4097,-10.4212,-10.4289,-10.3289,-10.2789,-10.2597,-10.1904,-10.1404,-10.1289,-10.1289,-10.1289,-5.9219,-6.3906,-6.9492,-7.3437,-7.5156,-7.6094,-7.6836,-7.7109,-7.7187,-7.7187,-7.7187,-7.7461,-7.8359,-7.914,-8.0,-8.0859,0.0,0.0,0.0,0.0,0.0,0.0,0.0,0.0,0.0,0.0,0.0,0.0,-8.9609,-8.9726,-8.875,-8.9531,-8.9219,-8.7539,-8.7397,-8.8139,-8.9895,-9.1071,-9.28,-9.5055,-9.5742,-9.5186,-9.3483,-9.3749,-9.3644,-9.3235,-9.2446,-9.1992,-9.1878,-9.1436,-9.1224,-9.121,-9.121,-9.121,-9.121,-9.121,-9.121,-9.121,-9.121,-9.121,-9.121,-9.121,-9.121,-9.1325,-9.2095,-9.2903,-9.371,-9.4557,-9.5441,-9.6134,-9.6288,-9.6288,-9.6288,-9.6288,-9.6288,-9.6288,-9.6288,-9.6288,-9.6288,-9.6288,-9.5672,-9.5403,-9.6172,-9.5749,-9.5788,-9.7134,-9.7442,-9.7788,-9.8519,-9.798,-9.7596,-9.7827,-9.7865,-9.8481,-10.0096,-10.0904,-10.202,-10.3597,-10.3712,-10.4097,-10.4905,-10.4905,-10.529,-10.6097,-10.4482,-10.3405,-10.2597,-10.252,-10.202,-10.1289,-10.1289,-10.1289,-6.1015,-6.582,-7.0508,-7.4375,-7.5976,-7.6719,-7.7109,-7.7187,-7.7187,-7.7187,-7.7578,-7.8164,-7.9023,-7.9453,0.0,0.0,0.0,0.0,0.0,0.0,0.0,0.0,0.0,0.0,0.0,0.0,0.0,0.0,-8.8789,-8.8906,-8.8086,-8.8828,-8.8711,-8.7539,-8.7696,-8.8661,-9.0417,-9.13,-9.2646,-9.4416,-9.5069,-9.4458,-9.283,-9.318,-9.3017,-9.2459,-9.2197,-9.1926,-9.1672,-9.1445,-9.1313,-9.121,-9.121,-9.121,-9.121,-9.121,-9.121,-9.121,-9.121,-9.121,-9.1287,-9.1787,-9.1941,-9.2095,-9.2903,-9.3749,-9.4518,-9.4864,-9.5634,-9.6288,-9.6288,-9.6288,-9.6288,-9.6288,-9.6288,-9.6288,-9.6288,-9.6288,-9.6288,-9.6288,-9.5595,-9.5288,-9.6134,-9.6365,-9.648,-9.6788,-9.7211,-9.748,-9.7403,-9.7057,-9.7019,-9.7442,-9.7942,-9.875,-9.9981,-10.1289,-10.2597,-10.3789,-10.4289,-10.4982,-10.579,-10.579,-10.602,-10.6405,-10.5213,-10.4212,-10.3289,-10.2789,-10.2212,-10.1289,-10.1289,-10.1289,-6.2031,-6.5976,-6.914,-7.3476,-7.539,-7.6367,-7.7031,-7.7187,-7.7265,-7.7461,-7.8047,-7.8828,0.0,0.0,0.0,0.0,0.0,0.0,0.0,0.0,0.0,0.0,0.0,0.0,0.0,0.0,0.0,0.0,-8.8242,-8.8359,-8.7539,-8.8242,-8.8437,-8.7812,-8.8142,-8.9159,-9.0875,-9.1707,-9.2654,-9.3713,-9.4114,-9.3558,-9.2168,-9.2586,-9.2403,-9.1728,-9.1942,-9.181,-9.1502,-9.1445,-9.1354,-9.121,-9.121,-9.121,-9.121,-9.121,-9.121,-9.121,-9.121,-9.1364,-9.1633,-9.2287,-9.2633,-9.2941,-9.3787,-9.448,-9.5057,-9.5249,-9.5788,-9.6288,-9.6288,-9.6288,-9.6288,-9.6288,-9.648,-9.648,-9.6057,-9.6134,-9.6249,-9.6019,-9.5441,-9.5288,-9.6134,-9.6596,-9.6749,-9.6365,-9.6826,-9.698,-9.6365,-9.648,-9.6826,-9.7442,-9.8288,-9.9327,-10.0596,-10.1904,-10.3212,-10.4482,-10.5097,-10.5713,-10.6405,-10.6405,-10.6405,-10.6405,-10.579,-10.4982,-10.4212,-10.3097,-10.2289,-10.1597,-10.1597,-10.1597,-5.8086,-6.0234,-6.2539,-6.9297,-7.2265,-7.414,-7.664,-7.7187,-7.7422,-7.8242,-7.8476,0.0,0.0,0.0,0.0,0.0,0.0,0.0,0.0,0.0,0.0,0.0,0.0,0.0,0.0,0.0,0.0,0.0,-8.8242,-8.8359,-8.7539,-8.8242,-8.8672,-8.8633,-8.83,-8.8926,-9.06,-9.206,-9.2678,-9.2609,-9.2784,-9.233,-9.1266,-9.148,-9.1465,-9.1258,-9.1445,-9.1502,-9.1475,-9.1297,-9.1189,-9.121,-9.121,-9.121,-9.121,-9.121,-9.121,-9.121,-9.121,-9.1748,-9.2441,-9.2479,-9.3018,-9.3787,-9.4672,-9.496,-9.5172,-9.6019,-9.6288,-9.6288,-9.6288,-9.6288,-9.6288,-9.6288,-9.6865,-9.698,-9.5403,-9.5711,-9.6057,-9.5211,-9.5018,-9.5288,-9.6134,-9.5634,-9.5403,-9.6172,-9.6326,-9.6365,-9.6326,-9.698,-9.7442,-9.7519,-9.8288,-9.9788,-10.2289,-10.252,-10.3597,-10.6097,-10.629,-10.6405,-10.6405,-10.6405,-10.6405,-10.6405,-10.6405,-10.5905,-10.4982,-10.3405,-10.2597,-10.252,-10.252,-10.252,-5.7383,-5.9765,-6.2383,-6.707,-7.039,-7.2851,-7.4375,-7.6015,-7.7461,-7.832,-7.8906,0.0,0.0,0.0,0.0,0.0,0.0,0.0,0.0,0.0,0.0,0.0,0.0,0.0,0.0,0.0,0.0,0.0,0.0,-8.7812,-8.7539,-8.8242,-8.8711,-8.8711,-8.9501,-9.0353,-9.1184,-9.1855,-9.2031,-9.1672,-9.2044,-9.1936,-9.1397,-9.1486,-9.1473,-9.1397,-9.1448,-9.1417,-9.1313,-9.1241,-9.121,-9.121,-9.121,-9.121,-9.121,-9.121,-9.121,-9.1287,-9.1825,-9.2249,-9.2672,-9.3749,-9.4287,-9.4711,-9.5557,-9.5826,-9.5903,-9.6211,-9.6288,-9.6288,-9.6288,-9.6288,-9.6288,-9.6288,-9.6903,-9.7057,-9.5365,-9.5249,-9.5518,-9.5788,-9.5365,-9.5288,-9.6134,-9.6057,-9.5942,-9.6249,-9.6288,-9.648,-9.7019,-9.7326,-9.7711,-9.825,-9.9596,-10.0789,-10.1712,-10.3289,-10.4597,-10.5482,-10.6097,-10.6405,-10.6405,-10.6405,-10.6405,-10.6405,-10.6405,-10.602,-10.5097,-10.4482,-10.3905,-10.3405,-10.3405,-10.3405,-5.5664,-5.7812,-6.0586,-6.4922,-6.7305,-6.9531,-7.332,-7.5078,-7.6445,-7.8476,0.0,0.0,0.0,0.0,0.0,0.0,0.0,0.0,0.0,0.0,0.0,0.0,0.0,0.0,0.0,0.0,0.0,0.0,0.0,0.0,-8.789,-8.8398,-8.8944,-8.9444,-9.0729,-9.147,-9.1649,-9.17,-9.1638,-9.1451,-9.1649,-9.1739,-9.1638,-9.1528,-9.1528,-9.1638,-9.1515,-9.1368,-9.1227,-9.1248,-9.127,-9.121,-9.121,-9.1219,-9.1297,-9.1224,-9.1412,-9.1798,-9.2301,-9.2864,-9.3518,-9.4634,-9.5211,-9.5518,-9.6134,-9.6288,-9.6288,-9.6288,-9.6288,-9.6365,-9.6634,-9.6711,-9.6788,-9.7057,-9.7134,-9.6865,-9.6019,-9.5634,-9.5518,-9.5826,-9.5634,-9.5634,-9.6211,-9.6288,-9.6288,-9.6288,-9.6519,-9.6903,-9.7442,-9.8019,-9.8596,-9.9173,-10.0712,-10.1904,-10.2097,-10.3982,-10.5213,-10.5482,-10.6097,-10.6405,-10.6405,-10.6405,-10.6405,-10.6405,-10.6405,-10.6097,-10.5482,-10.5213,-10.4789,-10.4289,-10.4289,-10.4482,0.0,0.0,0.0,-6.2617,-6.289,-6.414,-7.3437,-7.4297,-7.4336,-7.8672,0.0,0.0,0.0,0.0,0.0,0.0,0.0,0.0,0.0,0.0,0.0,0.0,0.0,0.0,0.0,0.0,0.0,0.0,-8.75,-8.7851,-8.8672,-8.875,-8.9484,-9.1015,-9.1792,-9.2123,-9.1893,-9.1661,-9.1661,-9.1914,-9.1638,-9.1661,-9.1884,-9.1626,-9.1649,-9.1905,-9.1614,-9.1368,-9.1206,-9.1427,-9.1368,-9.1227,-9.1227,-9.1338,-9.1475,-9.1281,-9.1878,-9.2764,-9.2596,-9.3633,-9.498,-9.5018,-9.5595,-9.6288,-9.6288,-9.6288,-9.6288,-9.6288,-9.6288,-9.648,-9.725,-9.7519,-9.775,-9.8519,-9.748,-9.6557,-9.7288,-9.6865,-9.6057,-9.5211,-9.5711,-9.6326,-9.6326,-9.6326,-9.6326,-9.6365,-9.7019,-9.7519,-9.7557,-9.9058,-10.0096,-10.0192,-10.1712,-10.2981,-10.3905,-10.4713,-10.5482,-10.629,-10.6405,-10.6405,-10.6405,-10.6405,-10.6405,-10.6405,-10.6405,-10.6405,-10.6405,-10.5597,-10.5097,-10.5097,-10.5097,-10.5597,-5.2851,0.0,0.0,0.0,0.0,0.0,-6.6601,0.0,-7.0234,-7.582,0.0,0.0,0.0,0.0,0.0,0.0,0.0,0.0,0.0,0.0,0.0,0.0,0.0,0.0,0.0,0.0,0.0,0.0,-8.75,-8.7851,-8.8672,-8.9883,-9.1054,-9.2103,-9.2376,-9.2351,-9.2123,-9.2042,-9.1973,-9.1914,-9.1811,-9.1901,-9.2117,-9.1689,-9.1649,-9.1905,-9.1614,-9.1368,-9.1206,-9.1427,-9.1486,-9.1427,-9.1427,-9.1579,-9.1781,-9.1488,-9.2,-9.2841,-9.3252,-9.4057,-9.5095,-9.5749,-9.6095,-9.6288,-9.6288,-9.6288,-9.6288,-9.6288,-9.6288,-9.6365,-9.6557,-9.7519,-9.8211,-9.7211,-9.7096,-9.7057,-9.6711,-9.648,-9.6249,-9.598,-9.6134,-9.648,-9.7057,-9.6673,-9.6711,-9.7942,-9.775,-9.7942,-9.9211,-9.9788,-10.0596,-10.1789,-10.2904,-10.3905,-10.4713,-10.5482,-10.6097,-10.6405,-10.6405,-10.6405,-10.6405,-10.6405,-10.6405,-10.6405,-10.6405,-10.6405,-10.6405,-10.6213,-10.602,-10.602,-10.602,-10.6213,-5.3594,-5.4609,-5.6328,-5.7422,0.0,0.0,-6.6211,-6.7734,0.0,0.0,0.0,0.0,0.0,0.0,0.0,0.0,0.0,0.0,0.0,0.0,0.0,0.0,0.0,0.0,0.0,-8.75,-8.75,-8.75,-8.75,-8.8008,-8.9179,-9.0898,-9.207,-9.2578,-9.2617,-9.2536,-9.2354,-9.2241,-9.2208,-9.2183,-9.2004,-9.1987,-9.2169,-9.1721,-9.1649,-9.1905,-9.1614,-9.1514,-9.1525,-9.1602,-9.1602,-9.1528,-9.1626,-9.1975,-9.2423,-9.2133,-9.2818,-9.3886,-9.4138,-9.4788,-9.5634,-9.6134,-9.6288,-9.6288,-9.6288,-9.6288,-9.6365,-9.6711,-9.7326,-9.7788,-9.7442,-9.8057,-9.8442,-9.7134,-9.6903,-9.6865,-9.6403,-9.6288,-9.6288,-9.6288,-9.6557,-9.6942,-9.7403,-9.7403,-9.7673,-9.8634,-9.8673,-9.8942,-9.9981,-10.0712,-10.1481,-10.252,-10.3712,-10.4597,-10.5097,-10.5905,-10.6405,-10.6405,-10.6405,-10.6405,-10.6405,-10.6405,-10.6405,-10.6405,-10.6405,-10.6405,-10.6405,-10.6405,-10.6405,-10.6405,-10.6405,-10.6405,-5.4922,-5.5117,-5.6367,-5.8515,-5.7578,0.0,-6.8242,-6.9375,-7.043,0.0,0.0,0.0,0.0,0.0,0.0,0.0,0.0,0.0,0.0,0.0,0.0,0.0,0.0,0.0,-8.75,-8.75,-8.75,-8.75,-8.7656,-8.8437,-8.9922,-9.164,-9.2617,-9.2617,-9.2617,-9.2617,-9.2617,-9.2354,-9.2354,-9.2578,-9.2178,-9.2081,-9.2229,-9.1772,-9.1684,-9.1905,-9.1614,-9.1676,-9.1995,-9.2048,-9.1948,-9.173,-9.1957,-9.2585,-9.3354,-9.3037,-9.3941,-9.5279,-9.5063,-9.5557,-9.6288,-9.6288,-9.6288,-9.6288,-9.6288,-9.6288,-9.648,-9.7288,-9.875,-9.9865,-9.8904,-9.8711,-9.8557,-9.7596,-9.6826,-9.6326,-9.6403,-9.6365,-9.6365,-9.6557,-9.7096,-9.7557,-9.775,-9.8365,-9.8865,-9.9058,-9.9673,-10.0096,-10.0212,-10.1597,-10.2597,-10.2712,-10.4212,-10.5097,-10.5213,-10.602,-10.6405,-10.6405,-10.6405,-10.6405,-10.6405,-10.6405,-10.6405,-10.6405,-10.6405,-10.6405,-10.6405,-10.6405,-10.6405,-10.6405,-10.6405,-10.6405,-5.7773,-5.8242,-5.9219,-5.8359,-5.9844,0.0,-6.0781,-6.1445,-6.3164,0.0,0.0,0.0,0.0,0.0,0.0,0.0,0.0,0.0,0.0,0.0,0.0,0.0,0.0,0.0,-8.75,-8.75,-8.75,-8.75,-8.875,-8.9648,-8.9961,-9.164,-9.2617,-9.2617,-9.2617,-9.2617,-9.2617,-9.2537,-9.2537,-9.2617,-9.2493,-9.249,-9.2494,-9.2048,-9.183,-9.1905,-9.1614,-9.1941,-9.2634,-9.3047,-9.3142,-9.3101,-9.2977,-9.357,-9.4445,-9.4013,-9.4445,-9.5279,-9.5063,-9.5557,-9.6288,-9.6288,-9.6288,-9.6288,-9.6288,-9.6288,-9.648,-9.7288,-9.875,-9.975,-9.8173,-9.825,-9.8404,-9.6903,-9.6403,-9.648,-9.7134,-9.6749,-9.6711,-9.8057,-9.7865,-9.7942,-9.9327,-9.9135,-9.925,-10.0596,-10.0404,-10.0289,-10.1019,-10.202,-10.2904,-10.3597,-10.4482,-10.5405,-10.6097,-10.629,-10.6405,-10.6405,-10.6405,-10.6405,-10.6405,-10.6405,-10.6405,-10.6405,-10.6405,-10.6405,-10.6405,-10.6405,-10.6405,-10.6405,-10.6405,-10.6405,-5.9375,-5.914,-5.9805,-5.9805,-6.0117,0.0,0.0,-6.2031,-6.293,-6.7265,0.0,0.0,0.0,0.0,0.0,0.0,0.0,0.0,0.0,0.0,0.0,0.0,0.0,0.0,0.0,-8.75,-8.7656,-8.8086,-8.9687,-9.0664,-9.0664,-9.1875,-9.2617,-9.2617,-9.2617,-9.2617,-9.2617,-9.2617,-9.2536,-9.24,-9.2284,-9.2183,-9.2022,-9.1802,-9.1717,-9.1717,-9.2144,-9.2656,-9.3186,-9.3883,-9.4477,-9.4933,-9.4273,-9.4517,-9.5182,-9.4831,-9.5168,-9.5776,-9.5686,-9.5942,-9.6288,-9.6288,-9.6288,-9.6365,-9.6788,-9.7519,-9.8288,-9.8673,-9.9712,-10.0289,-9.8596,-9.8481,-9.8365,-9.6711,-9.6288,-9.6519,-9.7326,-9.7173,-9.7403,-9.9096,-9.9096,-9.9058,-9.9942,-10.0096,-10.0289,-10.1212,-10.0981,-10.0981,-10.1789,-10.2712,-10.3597,-10.4405,-10.5213,-10.5905,-10.6405,-10.6405,-10.6405,-10.6405,-10.6405,-10.6405,-10.6405,-10.6405,-10.6405,-10.6405,-10.6405,-10.6405,-10.6405,-10.6405,-10.6405,-10.6405,-10.6405,-10.6405,-6.164,-6.082,-6.1055,-6.1562,-6.0664,-6.0547,0.0,0.0,0.0,0.0,0.0,0.0,0.0,0.0,0.0,0.0,0.0,0.0,0.0,0.0,0.0,0.0,0.0,0.0,0.0,-8.6719,-8.7109,-8.8594,-8.9375,-9.0234,-9.125,-9.2148,-9.2617,-9.2617,-9.2617,-9.2617,-9.2617,-9.2617,-9.2451,-9.2217,-9.2054,-9.1821,-9.1565,-9.1565,-9.1682,-9.1861,-9.2821,-9.3556,-9.4055,-9.4821,-9.5753,-9.6557,-9.5426,-9.5367,-9.5914,-9.5622,-9.5831,-9.6288,-9.6288,-9.6288,-9.6288,-9.6288,-9.6403,-9.6673,-9.7519,-9.8865,-10.0096,-10.0096,-10.0712,-10.1019,-9.9442,-9.8942,-9.8404,-9.6903,-9.6519,-9.6749,-9.7557,-9.775,-9.825,-9.9981,-10.0212,-10.0096,-10.0289,-10.0904,-10.1289,-10.1289,-10.1404,-10.1789,-10.252,-10.3482,-10.4405,-10.4982,-10.5905,-10.6405,-10.6405,-10.6405,-10.6405,-10.6405,-10.6405,-10.6405,-10.6405,-10.6405,-10.6405,-10.6405,-10.6405,-10.6405,-10.6405,-10.6405,-10.6405,-10.6405,-10.6405,-10.6405,-6.7148,-6.6601,-6.6289,-6.2617,-6.3828,-6.4453,-5.9023,0.0,-6.0234,-5.8672,0.0,-5.8359,-5.9336,0.0,0.0,0.0,0.0,0.0,0.0,0.0,0.0,0.0,0.0,0.0,0.0,0.0,-8.4492,-8.8398,-8.6094,-8.6484,-9.1054,-9.2148,-9.2617,-9.2617,-9.2617,-9.2617,-9.2617,-9.2617,-9.2451,-9.2217,-9.2164,-9.2081,-9.1839,-9.1839,-9.2267,-9.3025,-9.3347,-9.4354,-9.5824,-9.616,-9.6702,-9.7182,-9.6039,-9.6096,-9.6799,-9.6336,-9.6209,-9.6288,-9.6288,-9.6288,-9.6288,-9.6288,-9.6788,-9.7519,-9.8404,-9.9327,-10.0096,-10.0096,-10.0712,-10.1096,-10.0212,-9.9365,-9.8557,-9.7596,-9.7365,-9.7596,-9.8481,-9.8634,-9.9135,-10.0789,-10.0596,-10.0289,-10.1019,-10.1212,-10.1289,-10.1289,-10.202,-10.252,-10.2597,-10.3982,-10.4982,-10.5097,-10.5905,-10.6405,-10.6405,-10.6405,-10.6405,-10.6405,-10.6405,-10.6405,-10.6405,-10.6405,-10.6405,-10.6405,-10.6405,-10.6405,-10.6405,-10.6405,-10.6405,-10.6405,-10.6405,-10.6405,-6.7773,-6.789,-6.8164,-6.4805,-6.4687,-6.4219,-5.9805,-5.8476,-5.8164,-5.8125,0.0,0.0,0.0,0.0,0.0,0.0,-6.4101,0.0,0.0,0.0,0.0,0.0,0.0,0.0,0.0,0.0,0.0,0.0,0.0,-8.6601,-9.1797,-9.2383,-9.2617,-9.2617,-9.2617,-9.2617,-9.2617,-9.2617,-9.2397,-9.2009,-9.2144,-9.2016,-9.1695,-9.195,-9.2561,-9.3431,-9.4175,-9.5181,-9.6352,-9.6849,-9.7174,-9.7309,-9.6517,-9.6446,-9.6746,-9.642,-9.6288,-9.6288,-9.6288,-9.6288,-9.6365,-9.6826,-9.7904,-9.9058,-9.9442,-10.0096,-10.0789,-10.0789,-10.1019,-10.1019,-9.9673,-9.9058,-9.8442,-9.7134,-9.6788,-9.7173,-9.8519,-9.8404,-9.8673,-10.0904,-10.1019,-10.1096,-10.1904,-10.1597,-10.152,-10.202,-10.2404,-10.2981,-10.3905,-10.4713,-10.529,-10.579,-10.6213,-10.6405,-10.6405,-10.6405,-10.6405,-10.6405,-10.6405,-10.6405,-10.6405,-10.6405,-10.6405,-10.6405,-10.6405,-10.6405,-10.6405,-10.6405,-10.6405,-10.6405,-10.6405,-10.6405,-7.0195,-7.0273,-7.0273,-6.625,-6.4765,-6.3437,-6.0117,-5.8476,-5.793,-5.8984,-5.875,0.0,0.0,0.0,-5.9336,-5.9492,0.0,-6.4687,0.0,0.0,0.0,0.0,0.0,0.0,0.0,0.0,0.0,0.0,0.0,0.0,-9.2265,-9.2617,-9.2617,-9.2617,-9.2617,-9.2617,-9.2617,-9.2617,-9.2343,-9.1884,-9.2111,-9.1934,-9.1528,-9.2235,-9.3041,-9.3903,-9.5071,-9.6054,-9.6875,-9.7318,-9.742,-9.7246,-9.6871,-9.6616,-9.6514,-9.6338,-9.6288,-9.6288,-9.6288,-9.6442,-9.6788,-9.7865,-9.9058,-10.0096,-10.0404,-10.0789,-10.1289,-10.1289,-10.1289,-10.1019,-9.9519,-9.8981,-9.8442,-9.698,-9.6826,-9.7326,-9.8519,-9.8673,-9.9096,-10.0904,-10.1289,-10.1597,-10.2404,-10.2289,-10.2212,-10.2904,-10.3097,-10.3712,-10.4905,-10.529,-10.5713,-10.629,-10.6405,-10.6405,-10.6405,-10.6405,-10.6405,-10.6405,-10.6405,-10.6405,-10.6405,-10.6405,-10.6405,-10.6405,-10.6405,-10.6405,-10.6405,-10.6405,-10.6405,-10.6405,-10.6405,-10.6405,-7.6758,-7.5664,-7.3867,-6.625,-6.4336,-6.2969,-5.789,-5.8555,-6.0078,-5.9336,-6.1133,-6.2812,-6.2851,-6.2851,-6.2305,-6.0625,-6.1914,0.0,0.0,0.0,0.0,0.0,0.0,0.0,0.0,0.0,0.0,0.0,0.0,0.0,-9.207,-9.2617,-9.2617,-9.2617,-9.2617,-9.2617,-9.2617,-9.2617,-9.2343,-9.1884,-9.2111,-9.1934,-9.1528,-9.2859,-9.3938,-9.4805,-9.5969,-9.6914,-9.7656,-9.7695,-9.7401,-9.7021,-9.7003,-9.6721,-9.6306,-9.6288,-9.6288,-9.6288,-9.6288,-9.6826,-9.775,-9.9442,-10.0115,-10.0212,-10.1019,-10.1289,-10.1289,-10.1289,-10.1289,-10.1096,-10.0289,-9.9442,-9.8557,-9.7673,-9.8096,-9.8711,-9.8788,-10.0096,-10.1212,-10.1289,-10.1289,-10.1597,-10.2404,-10.3289,-10.3789,-10.3905,-10.4482,-10.4982,-10.5097,-10.579,-10.6405,-10.6405,-10.6405,-10.6405,-10.6405,-10.6405,-10.6405,-10.6405,-10.6405,-10.6405,-10.6405,-10.6405,-10.6405,-10.6405,-10.6405,-10.6405,-10.6405,-10.6405,-10.6405,-10.6405,-10.6405,-10.6405,0.0,0.0,-8.0,-7.2187,-6.9805,-6.7578,-6.0703,-6.0234,-6.0859,-5.9492,-6.168,-6.3672,-6.3125,-6.3008,-6.2812,-6.2226,-6.2617,-6.2109,0.0,0.0,0.0,0.0,0.0,0.0,0.0,0.0,0.0,0.0,0.0,0.0,0.0,-9.2617,-9.2617,-9.2617,-9.2617,-9.2617,-9.2617,-9.2617,-9.2443,-9.2111,-9.2345,-9.26,-9.2852,-9.3469,-9.4561,-9.5968,-9.6327,-9.6953,-9.7695,-9.7377,-9.7145,-9.6974,-9.6679,-9.6454,-9.6288,-9.6288,-9.6288,-9.6365,-9.6903,-9.8019,-9.9327,-9.9904,-10.0481,-10.0904,-10.1212,-10.1289,-10.1289,-10.1289,-10.1289,-10.1019,-9.9596,-9.9019,-9.8596,-9.7711,-9.7711,-9.825,-9.9404,-9.9635,-9.9981,-10.1096,-10.1289,-10.1789,-10.3212,-10.4097,-10.4713,-10.4713,-10.4905,-10.529,-10.5905,-10.6213,-10.6405,-10.6405,-10.6405,-10.6405,-10.6405,-10.6405,-10.6405,-10.6405,-10.6405,-10.6405,-10.6405,-10.6405,-10.6405,-10.6405,-10.6405,-10.6405,-10.6405,-10.6405,-10.6405,-10.6405,-10.6405,-10.6405,-8.3086,-8.4062,0.0,-7.6875,-7.4726,0.0,-6.4883,-6.4297,-6.4961,-6.3594,-6.4805,-6.6797,-6.8984,-6.7148,-6.539,-6.5703,-6.4453,-6.2344,0.0,-5.8515,0.0,0.0,0.0,0.0,0.0,0.0,0.0,0.0,0.0,0.0,0.0,0.0,-9.2617,-9.2617,-9.2617,-9.2617,-9.2617,-9.2617,-9.2451,-9.2221,-9.2803,-9.3231,-9.3513,-9.4406,-9.5429,-9.6523,-9.6797,-9.7186,-9.7561,-9.7271,-9.7039,-9.6827,-9.6529,-9.6355,-9.6288,-9.6288,-9.648,-9.6865,-9.7673,-9.8904,-10.0096,-10.0404,-10.0904,-10.1289,-10.1289,-10.1289,-10.1212,-10.0981,-10.1096,-10.0789,-9.8865,-9.8788,-9.8942,-9.7788,-9.798,-9.8711,-9.9865,-9.9865,-10.0019,-10.1096,-10.1597,-10.2212,-10.3712,-10.4597,-10.5213,-10.5482,-10.5597,-10.579,-10.629,-10.6405,-10.6405,-10.6405,-10.6405,-10.6405,-10.6405,-10.6405,-10.6405,-10.6405,-10.6405,-10.6405,-10.6405,-10.6405,-10.6713,-10.729,-10.6713,-10.6713,-10.729,-10.6713,-10.6405,-10.6405,-10.6405,-10.6405]},{"header":{"parameterUnit":"m.s-1","parameterCategory":1,"la1":30.6,"la2":29.2853,"lo1":-89.7004,"lo2":-87.6739,"dx":0.0162,"dy":0.0183,"nx":112,"ny":82,"refTime":"2023-01-01T06:00:00:Z","depth":0,"parameterNumber":3,"parameterNumberName":"V-component_of_WINDS"},"data":[0.0,0.0,0.0,0.0,0.0,0.0,0.0,0.0,0.0,0.0,0.0,0.0,0.0,0.0,0.0,0.0,0.0,0.0,0.0,0.0,0.0,0.0,0.0,0.0,0.0,0.0,0.0,0.0,0.0,0.0,0.0,0.0,0.0,0.0,0.0,0.0,0.0,0.0,0.0,0.0,0.0,0.0,0.0,0.0,0.0,0.0,0.0,0.0,0.0,0.0,0.0,0.0,0.0,0.0,0.0,0.0,0.0,0.0,0.0,0.0,0.0,0.0,0.0,0.0,0.0,0.0,0.0,0.0,0.0,0.0,0.0,0.0,0.0,0.0,0.0,0.0,0.0,0.0,0.0,0.0,0.0,0.0,0.0,0.0,0.0,0.0,0.0,0.0,0.0,0.0,1.0697,1.1316,1.1531,1.1681,1.1653,1.1653,1.1382,1.0758,0.0,0.0,0.0,0.0,0.0,0.0,0.0,0.0,0.0,0.0,0.0,0.0,0.0,0.0,0.0,0.0,0.0,0.0,0.0,0.0,0.0,0.0,0.0,0.0,0.0,0.0,0.0,0.0,0.0,0.0,0.0,0.0,0.0,0.0,0.0,0.0,0.0,0.0,0.0,0.0,0.0,0.0,0.0,0.0,0.0,0.0,0.0,0.0,0.0,0.0,0.0,0.0,0.0,0.0,0.0,0.0,0.0,0.0,0.0,0.0,0.0,0.0,0.0,0.0,0.0,0.0,0.0,0.0,0.0,0.0,0.0,0.0,0.0,0.0,0.0,0.0,0.0,0.0,0.0,0.0,0.0,0.0,0.0,0.0,0.0,0.0,0.0,0.0,0.0,0.0,0.0,0.0,0.0,0.0,0.0,0.0,0.0,0.0,0.0,0.0,0.0,0.0,0.0,0.0,1.086,1.1896,1.1965,1.1938,1.1809,1.1796,1.1491,1.0765,0.0,0.0,0.0,0.0,0.0,0.0,0.0,0.0,0.0,0.0,0.0,0.0,0.0,0.0,0.0,0.0,0.0,0.0,0.0,0.0,0.0,0.0,0.0,0.0,0.0,0.0,0.0,0.0,0.0,0.0,0.0,0.0,0.0,0.0,0.0,0.0,0.0,0.0,0.0,0.0,0.0,0.0,0.0,0.0,0.0,0.0,0.0,0.0,0.0,0.0,0.0,0.0,0.0,0.0,0.0,0.0,0.0,0.0,0.0,0.0,0.0,0.0,0.0,0.0,0.0,0.0,0.0,0.0,0.0,0.0,0.0,0.0,0.0,0.0,0.0,0.0,0.0,0.0,0.0,0.0,0.0,0.0,0.0,0.0,0.0,0.0,0.0,0.0,0.0,0.0,0.0,0.0,0.0,0.0,0.0,0.0,0.0,0.0,0.0,0.0,0.0,0.0,0.0,1.0683,1.126,1.1986,1.2135,1.2033,1.1965,1.1952,1.164,1.0894,1.0561,0.0,0.0,0.0,0.0,0.0,0.0,0.0,0.0,0.0,0.0,0.0,0.0,0.0,0.0,0.0,0.0,0.0,0.0,0.0,0.0,0.0,0.0,0.0,0.0,0.0,0.0,0.0,0.0,0.0,0.0,0.0,0.0,0.0,0.0,0.0,0.0,0.0,0.0,0.0,0.0,0.0,0.0,0.0,0.0,0.0,0.0,0.0,0.0,0.0,0.0,0.0,0.0,0.0,0.0,0.0,0.0,0.0,0.0,0.0,0.0,0.0,0.0,0.0,0.0,0.0,0.0,0.0,0.0,0.0,0.0,0.0,0.0,0.0,0.0,0.0,0.0,0.0,0.0,0.0,0.0,0.0,0.0,0.0,0.0,0.0,0.0,0.0,0.0,0.0,0.0,0.0,0.0,0.0,0.0,0.0,0.0,0.0,0.0,0.0,0.0,0.0,0.0,1.1491,1.1748,1.2128,1.2169,1.2149,1.2121,1.2115,1.1782,1.0927,1.0663,0.0,0.0,0.0,0.0,0.0,0.0,0.0,0.0,0.0,0.0,0.0,0.0,0.0,0.0,0.0,0.0,0.0,0.0,0.0,0.0,0.0,0.0,0.0,0.0,0.0,0.0,0.0,0.0,0.0,0.0,0.0,0.0,0.0,0.0,0.0,0.0,0.0,0.0,0.0,0.0,0.0,0.0,0.0,0.0,0.0,0.0,0.0,0.0,0.0,0.0,0.0,0.0,0.0,0.0,0.0,0.0,0.0,0.0,0.0,0.0,0.0,0.0,0.0,0.0,0.0,0.0,0.0,0.0,0.0,0.0,0.0,0.0,0.0,0.0,0.0,0.0,0.0,0.0,0.0,0.0,0.0,0.0,0.0,0.0,0.0,0.0,0.0,0.0,0.0,0.0,0.0,0.0,0.0,0.0,0.0,0.0,0.0,0.0,0.0,0.0,0.0,0.0,1.1789,1.2291,1.2454,1.2467,1.242,1.2284,1.2277,1.1898,1.0934,1.0663,0.0,0.0,0.0,0.0,0.0,0.0,0.0,0.0,0.0,0.0,0.0,0.0,0.0,0.0,0.0,0.0,0.0,0.0,0.0,0.0,0.0,0.0,0.0,0.0,0.0,0.0,0.0,0.0,0.0,0.0,0.0,0.0,0.0,0.0,0.0,0.0,0.0,0.0,0.0,0.0,0.0,0.0,0.0,0.0,0.0,0.0,0.0,0.0,0.0,0.0,0.0,0.0,0.0,0.0,0.0,0.0,0.0,0.0,0.0,0.0,0.0,0.0,0.0,0.0,0.0,0.0,0.0,0.0,0.0,0.0,0.0,0.0,0.0,0.0,0.0,0.0,0.0,0.0,0.0,0.0,0.0,0.0,0.0,0.0,0.0,0.0,0.0,0.0,0.0,0.0,0.0,0.0,0.0,0.0,0.0,0.0,0.0,0.0,0.0,0.0,0.0,0.0,1.1653,1.2128,1.2467,1.2501,1.2481,1.2427,1.242,1.204,1.1138,0.0,0.0,0.0,0.0,0.0,0.0,0.0,0.0,0.0,0.0,0.0,0.0,0.0,0.0,0.0,0.0,0.0,0.0,0.0,0.0,0.0,0.0,0.0,0.0,0.0,0.0,0.0,0.0,0.0,0.0,0.0,0.0,0.0,0.0,0.0,0.0,0.0,0.0,0.0,0.0,0.0,0.0,0.0,0.0,0.0,0.0,0.0,0.0,0.0,0.0,0.0,0.0,0.0,0.0,0.0,0.0,0.0,0.0,0.0,0.0,0.0,0.0,0.0,0.0,0.0,0.0,0.0,0.0,0.0,0.0,0.0,0.0,0.0,0.0,0.0,0.0,0.0,0.0,0.0,0.0,0.0,0.0,0.0,0.0,0.0,0.0,0.0,0.0,0.0,0.0,0.0,0.0,0.0,0.0,0.0,0.0,0.0,0.0,0.0,0.0,0.0,0.0,1.0989,1.1647,1.2162,1.2467,1.2501,1.2501,1.2501,1.2501,1.2121,1.1289,0.0,0.0,0.0,0.0,0.0,0.0,0.0,0.0,0.0,0.0,0.0,0.0,0.0,0.0,0.0,0.0,0.0,0.0,0.0,0.0,0.0,0.0,0.0,0.0,0.0,0.0,0.0,0.0,0.0,0.0,0.0,0.0,0.0,0.0,0.0,0.0,0.0,0.0,0.0,0.0,0.0,0.0,0.0,0.0,0.0,0.0,0.0,0.0,0.0,0.0,0.0,0.0,0.0,0.0,0.0,0.0,0.0,0.0,0.0,0.0,0.0,0.0,0.0,0.0,0.0,0.0,0.0,0.0,0.0,0.0,0.0,0.0,0.0,0.0,0.0,0.0,0.0,0.0,0.0,0.0,0.0,0.0,0.0,0.0,0.0,0.0,0.0,0.0,0.0,0.0,0.0,0.0,0.0,0.0,0.0,0.0,0.0,0.0,0.0,0.0,0.0,0.0,1.0826,1.1857,1.2501,1.2501,1.2501,1.2501,1.2501,1.2501,1.2121,0.0,0.0,0.0,0.0,0.0,0.0,0.0,0.0,0.0,0.0,0.0,0.0,0.0,0.0,0.0,0.0,0.0,0.0,0.0,0.0,0.0,0.0,0.0,0.0,0.0,0.0,0.0,0.0,0.0,0.0,0.0,0.0,0.0,0.0,0.0,0.0,0.0,0.0,0.0,0.0,0.0,0.0,0.0,0.0,0.0,0.0,0.0,0.0,0.0,0.0,0.0,0.0,0.0,0.0,0.0,0.0,0.0,0.0,0.0,0.0,0.0,0.0,0.0,0.0,0.0,0.0,0.0,0.0,0.0,0.0,0.0,0.0,0.0,0.0,0.0,0.0,0.0,0.0,0.0,0.0,0.0,0.0,0.0,0.0,0.0,0.0,0.0,0.0,0.0,0.0,0.0,0.0,0.0,0.0,0.0,0.0,0.0,0.0,0.0,0.0,0.0,0.0,0.0,1.1043,1.1918,1.2501,1.2501,1.2501,1.2501,1.2501,1.2501,1.2121,1.1289,0.0,0.0,0.0,0.0,0.0,0.0,0.0,0.0,0.0,0.0,0.0,0.0,0.0,0.0,0.0,0.0,0.0,0.0,0.0,0.0,0.0,0.0,0.0,0.0,0.0,0.0,0.0,0.0,0.0,0.0,0.0,0.0,0.0,0.0,0.0,0.0,0.0,0.0,0.0,0.0,0.0,0.0,0.0,0.0,0.0,0.0,0.0,0.0,0.0,0.0,0.0,0.0,0.0,0.0,0.0,0.0,0.0,0.0,0.0,0.0,0.0,0.0,0.0,0.0,0.0,0.0,0.0,0.0,0.0,0.0,0.0,0.0,0.0,0.0,0.0,0.0,0.0,0.0,0.0,0.0,0.0,0.0,0.0,0.0,0.0,0.0,0.0,0.0,0.0,0.0,0.0,0.0,0.0,0.0,0.0,0.0,0.0,0.0,0.0,0.0,0.0,0.0,1.1016,1.1911,1.2501,1.2501,1.2501,1.2501,1.2501,1.2501,1.2196,1.1477,0.0,0.0,0.0,0.0,0.0,0.0,0.0,0.0,0.0,0.0,0.0,0.0,0.0,0.0,0.0,0.0,0.0,0.0,0.0,0.0,0.0,0.0,0.0,0.0,0.0,0.0,0.0,0.0,0.0,0.0,0.0,0.0,0.0,0.0,0.0,0.0,0.0,0.0,0.0,0.0,0.0,0.0,0.0,0.0,0.0,0.0,0.0,0.0,0.0,0.0,0.0,0.0,0.0,0.0,0.0,0.0,0.0,0.0,0.0,0.0,0.0,0.0,0.0,0.0,0.0,0.0,0.0,0.0,0.0,0.0,0.0,0.0,0.0,0.0,0.0,0.0,0.0,0.0,0.0,0.0,0.0,0.0,0.0,0.0,0.0,0.0,0.0,0.0,0.0,0.0,0.0,0.0,0.0,0.0,0.0,0.0,0.0,0.0,0.0,0.0,0.0,0.0,1.086,1.1884,1.2528,1.2542,1.2542,1.2542,1.2542,1.2542,1.2352,1.1904,0.0,0.0,0.0,0.0,0.0,0.0,0.0,0.0,0.0,0.0,0.0,0.0,0.0,0.0,0.0,0.0,0.0,0.0,0.0,0.0,0.0,0.0,0.0,0.0,0.0,0.0,0.0,0.0,0.0,0.0,0.0,0.0,0.0,0.0,0.0,0.0,0.0,0.0,0.0,0.0,0.0,0.0,0.0,0.0,0.0,0.0,0.0,0.0,0.0,0.0,0.0,0.0,0.0,0.0,0.0,0.0,0.0,0.0,0.0,0.0,0.0,0.0,0.0,0.0,0.0,0.0,0.0,0.0,0.0,0.0,0.0,0.0,0.0,0.0,0.0,0.0,0.0,0.0,0.0,0.0,0.0,0.0,0.0,0.0,0.0,0.0,0.0,0.0,0.0,0.0,0.0,0.0,0.0,0.0,0.0,0.0,0.0,0.0,0.0,0.0,0.0,0.0,1.124,1.2108,1.2732,1.2847,1.2861,1.2861,1.2861,1.2861,1.2671,1.2223,1.1932,0.0,0.0,0.0,0.0,0.0,0.0,0.0,0.0,0.0,0.0,0.0,0.0,0.0,0.0,0.0,0.0,0.0,0.0,0.0,0.0,0.0,0.0,0.0,0.0,0.0,0.0,0.0,0.0,0.0,0.0,0.0,0.0,0.0,0.0,0.0,0.0,0.0,0.0,0.0,0.0,0.0,0.0,0.0,0.0,0.0,0.0,0.0,0.0,0.0,0.0,0.0,0.0,0.0,0.0,0.0,0.0,0.0,0.0,0.0,0.0,0.0,0.0,0.0,0.0,0.0,0.0,0.0,0.0,0.0,0.0,0.0,0.0,0.0,0.0,0.0,0.0,0.0,0.0,0.0,0.0,0.0,0.0,0.0,0.0,0.0,0.0,0.0,0.0,0.0,0.0,0.0,0.0,0.0,0.0,0.0,0.0,0.0,0.0,0.0,0.0,0.0,1.1443,1.2284,1.2874,1.2949,1.2963,1.2963,1.2963,1.2963,1.2861,1.263,1.2264,0.0,0.0,0.0,0.0,0.0,0.0,0.0,0.0,0.0,0.0,0.0,0.0,0.0,0.0,0.0,0.0,0.0,0.0,0.0,0.0,0.0,0.0,0.0,0.0,0.0,0.0,0.0,0.0,0.0,0.0,0.0,0.0,0.0,0.0,0.0,0.0,0.0,0.0,0.0,0.0,0.0,0.0,0.0,0.0,0.0,0.0,0.0,0.0,0.0,0.0,0.0,0.0,0.0,0.0,0.0,0.0,0.0,0.0,0.0,0.0,0.0,0.0,0.0,0.0,0.0,0.0,0.0,0.0,0.0,0.0,0.0,0.0,0.0,0.0,0.0,0.0,0.0,0.0,0.0,0.0,0.0,0.0,0.0,0.0,0.0,1.1246,1.1369,1.1701,1.1816,1.1206,0.0,0.0,0.0,0.0,0.0,0.0,0.0,0.0,0.0,0.0,0.0,1.1708,1.2488,1.301,1.3037,1.3037,1.3037,1.3037,1.3037,1.3037,1.3037,1.2569,1.2182,0.0,0.0,0.0,0.0,0.0,0.0,0.0,0.0,0.0,0.0,0.0,0.0,0.0,0.0,0.0,0.0,0.0,0.0,0.0,0.0,0.0,0.0,0.0,0.0,0.0,0.0,0.0,0.0,0.0,0.0,0.0,0.0,0.0,0.0,0.0,0.0,0.0,0.0,0.0,0.0,0.0,0.0,0.0,0.0,0.0,0.0,0.0,0.0,0.0,0.0,0.0,0.0,0.0,0.0,0.0,0.0,0.0,0.0,0.0,0.0,0.0,0.0,0.0,0.0,0.0,0.0,0.0,0.0,0.0,0.0,0.0,0.0,0.0,0.0,0.0,0.0,0.0,0.0,0.0,0.0,0.0,0.0,0.0,0.0,1.2305,1.2318,1.2474,1.2583,1.2488,1.1633,1.0778,1.0419,1.0439,1.0276,0.0,0.0,0.0,0.0,0.0,0.0,1.2277,1.2827,1.3193,1.3329,1.3342,1.3342,1.3342,1.3342,1.3342,1.3342,1.3268,1.2922,1.2257,1.1898,0.0,0.0,0.0,0.0,0.0,0.0,0.0,0.0,0.0,0.0,0.0,0.0,0.0,0.0,0.0,0.0,0.0,0.0,0.0,0.0,0.0,0.0,0.0,0.0,0.0,0.0,0.0,0.0,0.0,0.0,0.0,0.0,0.0,0.0,0.0,0.0,0.0,0.0,0.0,0.0,0.0,0.0,0.0,0.0,0.0,0.0,0.0,0.0,0.0,0.0,0.0,0.0,0.0,0.0,0.0,0.0,0.0,0.0,0.0076,0.1238,0.1744,0.187,0.0,0.0,0.0,0.0,0.6666,0.7542,0.9561,1.0191,1.0253,1.0725,0.0,0.0,0.0,0.0,0.0,0.0,0.0,1.1287,1.1667,1.2135,1.2549,1.2718,1.2813,1.2861,1.2861,1.2447,1.1911,1.1355,1.1301,1.1029,0.9963,1.0385,0.0,0.0,0.0,1.2121,1.2684,1.3152,1.3485,1.3634,1.3648,1.3648,1.3648,1.3648,1.3648,1.3648,1.3573,1.3417,1.3173,1.2474,1.1816,0.0,0.0,0.0,0.0,0.0,0.0,0.0,0.0,0.0,0.0,0.0,0.0,0.0,0.0,0.0,0.0,0.0,0.0,0.0,0.0,0.0,0.0,0.0,0.0,0.0,0.0,0.0,0.0,0.0,0.0,0.0,0.0,0.0,0.0,0.0,0.0,0.0,0.0,0.0,0.0,0.0,0.0,0.0,0.0,0.0,0.0,0.0,0.0,0.0,0.0,0.0,0.0,0.0,0.0,0.0,0.0,0.0,0.0157,0.1658,0.2338,0.2494,0.409,0.5306,0.6254,0.7631,0.8623,0.9572,1.1398,1.1932,1.183,1.1755,1.1653,1.1463,1.0907,0.0,0.0,0.0,0.0,1.1769,1.2182,1.2454,1.2678,1.2908,1.307,1.3017,1.3017,1.3044,1.2888,1.2244,1.2149,1.1843,1.0806,1.124,0.0,1.1287,1.2026,1.2759,1.3139,1.3478,1.3722,1.3831,1.3838,1.3838,1.3838,1.3838,1.3824,1.379,1.3688,1.3641,1.3668,1.2929,1.2474,1.2393,0.0,0.0,0.0,0.0,0.0,0.0,0.0,0.0,0.0,0.0,0.0,0.0,0.0,0.0,0.0,0.0,0.0,0.0,0.0,0.0,0.0,0.0,0.0,0.0,0.0,0.0,0.0,0.0,0.0,0.0,0.0,0.0,0.0,0.0,0.0,0.0,0.0,0.0,0.0,0.0,0.0,0.0,0.0,0.0,0.0,0.0,0.0,0.0,0.0,0.0,0.0,0.0,0.0,0.0,0.0,0.0,0.0,0.0078,0.0154,0.0151,0.0301,0.2499,0.5699,0.6216,0.8627,1.169,1.2305,1.2461,1.2481,1.2617,1.2372,1.2094,1.1986,1.1782,0.0,0.0,1.221,1.2515,1.2834,1.2929,1.2942,1.3036,1.3064,1.3159,1.3159,1.3275,1.3281,1.2969,1.3017,1.2908,1.2284,0.0,1.2657,1.263,1.2807,1.3146,1.3722,1.3817,1.3745,1.3838,1.3838,1.3838,1.3838,1.3838,1.3783,1.3648,1.3634,1.3505,1.322,1.3159,1.28,1.2094,1.1877,0.0,0.0,0.0,0.0,0.0,0.0,0.0,0.0,0.0,0.0,0.0,0.0,0.0,0.0,0.0,0.0,0.0,0.0,0.0,0.0,0.0,0.0,0.0,0.0,0.0,0.0,0.0,0.0,0.0,0.0,0.0,0.0,0.0,0.0,0.0,0.0,0.0,0.0,0.0,0.0,0.0,0.0,0.0,0.0,0.0,0.0,0.0,0.0,0.0,0.0,0.0,0.0,0.0,0.0,0.0,0.0,0.0,0.0781,0.2242,0.5017,0.6888,0.8257,0.9747,1.121,1.2433,1.2589,1.2712,1.2807,1.2861,1.2773,1.2715,1.2715,1.2569,1.2522,1.2718,1.2854,1.2983,1.3186,1.3315,1.339,1.339,1.3498,1.36,1.36,1.3648,1.3654,1.3546,1.3492,1.3308,1.2807,1.3125,1.3315,1.2935,1.3247,1.3641,1.3946,1.3987,1.4027,1.4122,1.4136,1.4136,1.4136,1.4136,1.4116,1.4061,1.3966,1.3865,1.3756,1.3566,1.3342,1.3078,1.282,1.2121,0.0,0.0,0.0,0.0,0.0,0.0,0.0,0.0,0.0,0.0,0.0,0.0,0.0,0.0,0.0,0.0,0.0,0.0,0.0,0.0,0.0,0.0,0.0,0.0,0.0,0.0,0.0,0.0,0.0,0.0,0.0,0.0,0.0,0.0,0.0,0.0,0.0,0.0,0.0,0.0,0.0,0.0,0.0,0.0,0.0,0.0,0.0,0.0,0.0,0.0,0.0,0.0,0.0,0.0,0.0,0.0,0.1265,0.3484,0.6298,0.8255,0.9672,1.1053,1.2082,1.2807,1.2807,1.2908,1.303,1.303,1.3064,1.3112,1.3112,1.3146,1.3207,1.3302,1.3363,1.3424,1.3519,1.3627,1.3702,1.3702,1.377,1.3838,1.3838,1.3878,1.3919,1.3919,1.3797,1.3607,1.3308,1.3627,1.377,1.3322,1.3682,1.4014,1.4061,1.4116,1.4204,1.4353,1.4373,1.4394,1.4441,1.4312,1.4265,1.4367,1.4136,1.4041,1.4143,1.3817,1.3627,1.3627,1.3431,1.2766,1.1626,0.0,0.0,0.0,0.0,0.0,0.0,0.0,0.0,0.0,0.0,0.0,0.0,0.0,0.0,0.0,0.0,0.0,0.0,0.0,0.0,0.0,0.0,0.0,0.0,0.0,0.0,0.0,0.0,0.0,0.0,0.0,0.0,0.0,0.0,0.0,0.0,0.0,0.0,0.0,0.0,0.0,0.0,0.0,0.0,0.0,0.0,0.0,0.0,0.0,0.0,0.0,0.0,0.0,0.0,0.0,0.1368,0.3403,0.3443,0.5973,0.9644,0.9827,1.1252,1.305,1.2976,1.3071,1.3186,1.3186,1.3288,1.3417,1.3417,1.3519,1.3634,1.3634,1.3736,1.3838,1.3838,1.3759,1.3844,1.3844,1.3851,1.3858,1.3858,1.3973,1.4089,1.4089,1.3966,1.3865,1.3858,1.398,1.4034,1.3885,1.4122,0.0,1.4116,1.4224,1.4367,1.4489,1.4502,1.4563,1.4713,1.4326,1.4204,1.4502,1.4109,1.4,1.4292,1.3892,1.3654,1.3648,1.3627,1.3397,1.2963,0.0,0.0,0.0,0.0,0.0,0.0,0.0,0.0,0.0,0.0,0.0,0.0,0.0,0.0,0.0,0.0,0.0,0.0,0.0,0.0,0.0,0.0,0.0,0.0,0.0,0.0,0.0,0.0,0.0,0.0,0.0,0.0,0.0,0.0,0.0,0.0,0.0,0.0,0.0,0.0,0.0,0.0,0.0,0.0,0.0,0.0,0.0,0.0,0.0,0.0,0.0,0.0,0.0,0.0,0.0,0.2186,0.5584,0.5647,0.7328,0.9907,1.1561,1.2533,1.3132,1.3241,1.3376,1.3505,1.3505,1.36,1.3722,1.3722,1.3749,1.3783,1.3783,1.381,1.3838,1.3838,1.3926,1.4007,1.4007,1.4095,1.4177,1.4177,1.4285,1.4387,1.4387,1.4448,1.4421,1.4211,1.4292,1.4373,1.4333,1.4496,1.4604,1.4563,1.459,1.455,1.438,1.436,1.4373,1.4421,1.4306,1.4367,1.4658,1.4563,1.4482,1.4455,1.4333,1.4217,1.4116,1.358,1.3186,0.0,0.0,0.0,0.0,0.0,0.0,0.0,0.0,0.0,0.0,0.0,0.0,0.0,0.0,0.0,0.0,0.0,0.0,0.0,0.0,0.0,0.0,0.0,0.0,0.0,0.0,0.0,0.0,0.0,0.0,0.0,0.0,0.0,0.0,0.0,0.0,0.0,0.0,0.0,0.0,0.0,0.0,0.0,0.0,0.0,0.0,0.0,0.0,0.0,0.0,0.0,0.0,0.0,0.0,0.0,0.0,0.2623,0.0,0.0,0.0,0.0,0.0,1.3295,1.3383,1.3532,1.3641,1.3715,1.3715,1.3777,1.3838,1.3838,1.3885,1.3939,1.3939,1.3987,1.4034,1.4034,1.4143,1.4258,1.4258,1.4373,1.4482,1.4482,1.455,1.4604,1.4604,1.4679,0.0,1.4516,1.455,1.4584,1.4523,1.4638,1.4719,1.4652,1.4699,1.4699,1.459,1.4584,1.4604,1.4665,1.4496,0.0,0.0,0.0,1.4604,1.4516,1.4509,0.0,0.0,0.0,1.3783,1.3892,1.3322,0.0,0.0,1.261,1.2413,0.0,0.0,0.0,0.0,0.0,0.0,0.0,0.0,0.0,0.0,0.0,0.0,0.0,0.0,0.0,0.0,0.0,0.0,0.0,0.0,0.0,0.0,0.0,0.0,0.0,0.0,0.0,0.0,0.0,0.0,0.0,0.0,0.0,0.0,0.0,0.0,0.0,0.0,0.0,0.0,0.0,0.0,0.0,0.0,0.0,0.0,0.0,0.0,0.0,0.0,0.2671,0.6801,0.7304,0.984,1.3281,1.3553,1.3654,1.3675,1.3797,0.0,0.0,1.3865,1.3878,1.3892,1.3892,1.3987,1.4102,1.4116,1.4217,1.4326,1.4346,1.4441,1.4536,1.4536,1.4638,1.474,1.474,1.4753,1.4767,1.4767,1.478,1.4787,1.4787,1.4774,1.4719,1.4584,1.4692,1.474,1.4604,1.4706,1.4828,1.4936,1.4943,0.0,1.512,1.478,1.4746,1.5181,1.4848,1.4638,1.4638,1.4638,1.4638,1.4638,1.4638,1.4828,1.5208,1.4943,1.4801,1.4726,1.2976,1.2576,0.0,0.0,0.0,0.0,0.0,0.0,0.0,0.0,0.0,0.0,0.0,0.0,0.0,0.0,0.0,0.0,0.0,0.0,0.0,0.0,0.0,0.0,0.0,0.0,0.0,0.0,0.0,0.0,0.0,0.0,0.0,0.0,0.0,0.0,0.0,0.0,0.0,0.0,0.0,0.0,0.0,0.0,0.0,0.0,0.0,0.0,0.0,0.0,0.0,0.0,0.2732,0.7213,1.0873,1.2842,1.3722,1.3777,1.3797,1.3804,1.3831,1.3926,1.4027,1.4027,1.4109,1.4211,1.4211,1.4231,0.0,1.4394,1.4448,1.4502,1.4624,1.4672,1.4699,1.4699,1.4719,1.474,1.474,1.4835,1.493,1.493,1.5018,1.5099,1.5099,1.5004,1.4916,1.4889,1.5004,1.5086,1.5059,1.5079,1.5018,1.4808,1.4787,1.4794,1.4821,1.4862,1.5018,1.5343,1.5404,1.5418,1.5418,1.5418,1.5418,1.5418,1.5418,1.5404,1.5364,1.5309,1.516,1.4916,1.4407,1.4204,0.0,0.0,0.0,0.0,0.0,0.0,0.0,0.0,0.0,0.0,0.0,0.0,0.0,0.0,0.0,0.0,0.0,0.0,0.0,0.0,0.0,0.0,0.0,0.0,0.0,0.0,0.0,0.0,0.0,0.0,0.0,0.0,0.0,0.0,0.0,0.0,0.0,0.0,0.0,0.0,0.0,0.0,0.0,0.0,0.0,0.0,0.0,0.0,0.0174,0.2502,0.4843,0.7494,1.2054,1.3844,1.3851,1.3926,1.3953,1.3966,1.4041,1.4122,1.4197,1.4272,1.4346,1.4421,1.4496,1.4523,1.4536,1.4604,1.4624,1.4645,1.4719,1.4794,1.4855,1.4855,1.4909,1.4964,1.4964,1.5025,1.5079,1.5079,1.5133,1.5208,1.5282,1.5235,1.5167,1.5086,1.514,1.5208,1.5289,1.5296,1.5269,1.5201,1.5187,1.5187,1.5187,1.5262,1.5371,1.5513,1.5594,1.5642,1.5642,1.5642,1.5642,1.5642,1.5642,1.5601,1.5527,1.5445,1.5337,1.5187,1.5113,1.4957,0.0,0.0,0.0,0.0,0.0,0.0,0.0,0.0,0.0,0.0,0.0,0.0,0.0,0.0,0.0,0.0,0.0,0.0,0.0,0.0,0.0,0.0,0.0,0.0,0.0,0.0,0.0,0.0,0.0,0.0,0.0,0.0,0.0,0.0,0.0,0.0,0.0,0.0,0.0,0.0,0.0,0.0,0.0,0.0,0.0,0.0,0.0,0.0,0.0354,0.4995,0.6751,0.6882,1.1636,1.3352,1.3281,1.3901,1.4136,1.4177,1.4299,1.436,1.4407,1.4516,1.4557,1.4577,1.4706,1.474,1.4746,1.4774,1.4787,1.4794,1.4821,1.4916,1.5011,1.5011,1.5099,1.5181,1.5181,1.5208,1.5228,1.5228,1.5248,1.5309,1.5432,1.5452,1.5411,1.5289,1.5269,1.5316,1.5438,1.5452,1.5499,1.5628,1.5642,1.5649,1.5676,1.5683,1.5696,1.5723,1.5723,1.5723,1.5723,1.5723,1.5723,1.5723,1.5723,1.5723,1.5723,1.5601,1.5527,1.5499,1.5527,1.5364,0.0,0.0,0.0,0.0,0.0,0.0,0.0,0.0,0.0,0.0,0.0,0.0,0.0,0.0,0.0,0.0,0.0,0.0,0.0,0.0,0.0,0.0,0.0,0.0,0.0,0.0,0.0,0.0,0.0,0.0,0.0,0.0,0.0,0.0,0.0,0.0,0.0,0.0,0.0,0.0,0.0,0.0,0.0,0.0,0.0,0.0,0.0,0.0,0.0359,0.5134,0.5842,0.4465,0.9184,1.1104,1.1441,1.3508,1.4353,1.4462,1.4482,1.4577,1.4692,1.4713,1.4713,1.4719,1.4733,1.474,1.4767,1.4909,1.4943,1.4977,1.5099,1.5147,1.516,1.516,1.5167,1.5181,1.5181,1.5289,1.5384,1.5384,1.5493,1.5594,1.5608,1.5615,1.5608,1.5588,1.5588,1.5594,1.5608,1.5615,1.5622,1.5635,1.5642,1.5689,1.5818,1.5832,1.5886,1.6022,1.6029,1.6029,1.6029,1.6029,1.6029,1.6029,1.6029,1.6029,1.6029,1.6015,1.594,1.5805,1.594,1.5778,0.0,0.0,0.0,0.0,0.0,0.0,0.0,0.0,0.0,0.0,0.0,0.0,0.0,0.0,0.0,0.0,0.0,0.0,0.0,0.0,0.0,0.0,0.0,0.0,0.0,0.0,0.0,0.0,0.0,0.0,0.0,0.0,0.0,0.0,0.0,0.0,0.0,0.0,0.0,0.0,0.0,0.0,0.0,0.0,0.0,0.0,0.0,0.0,0.0274,0.3663,0.4483,0.3918,0.7279,0.9572,1.1053,1.1939,1.3328,1.4645,1.4645,1.4685,1.4753,1.4841,1.4875,1.4889,1.497,1.4997,1.5011,1.5079,1.5092,1.5106,1.5167,1.5248,1.5316,1.5316,1.5384,1.5445,1.5445,1.5499,1.5547,1.5547,1.5594,1.5669,1.575,1.5764,1.5791,1.5886,1.575,1.5669,1.575,1.5764,1.5798,1.5886,1.5893,1.592,1.5981,1.5988,1.6015,1.6076,1.6083,1.6083,1.6083,1.6083,1.6083,1.6083,1.6083,1.6083,1.6083,1.6083,1.6049,1.5988,1.6049,1.5981,0.0,0.0,0.0,0.0,0.0,0.0,0.0,0.0,0.0,0.0,0.0,0.0,0.0,0.0,0.0,0.0,0.0,0.0,0.0,0.0,0.0,0.0,0.0,0.0,0.0,0.0,0.0,0.0,0.0,0.0,0.0,0.0,0.0,0.0,0.0,0.0,0.0,0.0,0.0,0.0,0.0,0.0,0.0,0.0,0.0,0.0,0.0,0.0,0.0185,0.2595,0.3241,0.2865,0.5165,0.7753,0.9972,0.999,1.2033,1.4801,1.4801,1.4828,1.4882,1.4991,1.5031,1.5052,1.5153,1.5215,1.5248,1.5248,1.5276,1.5309,1.5309,1.5391,1.5472,1.5472,1.556,1.5642,1.5642,1.5669,1.5696,1.5696,1.573,1.5791,1.59,1.592,1.5954,1.6069,1.59,1.5798,1.59,1.592,1.5961,1.6069,1.6083,1.6083,1.6083,1.6083,1.6083,1.6083,1.6083,1.6083,1.6083,1.6083,1.6083,1.6083,1.6083,1.6083,1.6083,1.6083,1.6083,1.6083,1.6083,1.6083,0.0,0.0,0.0,0.0,0.0,0.0,0.0,0.0,0.0,0.0,0.0,0.0,0.0,0.0,0.0,0.0,0.0,0.0,0.0,0.0,0.0,0.0,0.0,0.0,0.0,0.0,0.0,0.0,0.0,0.0,0.0,0.0,0.0,0.0,0.0,0.0,0.0,0.0,0.0,0.0,0.0,0.0,0.0,0.0,0.0,0.0,0.0,0.0,0.0185,0.2615,0.2238,0.037,0.2772,0.5382,0.7663,0.7663,1.0835,1.4964,1.4964,1.5052,1.5167,1.5174,1.5174,1.5174,1.5181,1.5289,1.5404,1.5404,1.5513,1.5628,1.5628,1.5628,1.5635,1.5635,1.5635,1.5642,1.5642,1.575,1.5845,1.5845,1.5967,1.6069,1.6076,1.6076,1.6076,1.6083,1.6076,1.6069,1.6076,1.6076,1.6076,1.6083,1.6083,1.6083,1.6083,1.6083,1.6083,1.6083,1.6083,1.6083,1.6083,1.6083,1.6083,1.6083,1.6083,1.6083,1.6083,1.6083,1.6083,1.6083,1.6083,1.6083,0.0,0.0,0.0,0.0,0.0,0.0,0.0,0.0,0.0,0.0,0.0,0.0,0.0,0.0,0.0,0.0,0.0,0.0,0.0,0.0,0.0,0.0,0.0,0.0,0.0,0.0,0.0,0.0,0.0,0.0,0.0,0.0,0.0,0.0,0.0,0.0,0.0,0.0,0.0,0.0,0.0,0.0,0.0,0.0,0.0,0.0,0.0,0.0,0.0095,0.0861,0.0762,0.0094,0.085,0.2834,0.5294,0.6989,0.9723,1.2847,1.4545,1.514,1.5181,1.5181,1.5248,1.5337,1.5337,1.5438,1.556,1.556,1.5601,1.5642,1.5642,1.571,1.5784,1.5784,1.5859,1.5934,1.5934,1.5967,1.6001,1.6001,1.6049,1.6083,1.6083,1.6083,1.6083,1.6083,1.6083,1.6083,1.6083,1.6083,1.6083,1.6083,1.6083,1.6083,1.6083,1.6083,1.6083,1.6083,1.6083,1.6083,1.6083,1.6083,1.6083,1.6083,1.6083,1.6083,1.6083,1.6083,1.6083,1.6083,1.6083,1.6029,0.0,0.0,0.0,0.0,0.0,0.0,0.0,0.0,0.0,0.0,0.0,0.0,0.0,0.0,0.0,0.0,0.0,0.0,0.0,0.0,0.0,0.0,0.0,0.0,0.0,0.0,0.0,0.0,0.0,0.0,0.0,0.0,0.0,0.0,0.0,0.0,0.0,0.0,0.0,0.0,0.0,0.0,0.0,0.0,0.0,0.0,0.0,0.0,0.0,0.0,0.0,0.0,0.0,0.2095,0.5323,0.7055,0.9824,1.3068,1.4689,1.5262,1.5276,1.533,1.5411,1.5493,1.5493,1.5594,1.5716,1.5716,1.5757,1.5798,1.5798,1.5866,1.5934,1.5934,1.6008,1.6083,1.6083,1.6083,1.6083,1.6083,1.6083,1.6083,1.6083,1.6083,1.6083,1.6083,1.6083,1.6083,1.6083,1.6083,1.6083,1.6083,1.6083,1.6083,1.6083,1.6083,1.6083,1.6083,1.6083,1.6083,1.6083,1.6083,1.6083,1.6083,1.6083,1.6083,1.6083,1.6083,1.6083,1.6083,1.6083,1.6029,0.0,0.0,0.0,0.0,0.0,0.0,0.0,0.0,0.0,0.0,0.0,0.0,0.0,0.0,0.0,0.0,0.0,0.0,0.0,0.0,0.0,0.0,0.0,0.0,0.0,0.0,0.0,0.0,0.0,0.0,0.0,0.0,0.0,0.0,0.0,0.0,0.0,0.0,0.0,0.0,0.0,0.0,0.0,0.0,0.0,0.0,0.0,0.0,0.0,0.0,0.0,0.0,0.0,0.3047,0.7419,0.7681,1.0979,1.5227,1.5336,1.5432,1.5445,1.5594,1.5642,1.5649,1.5649,1.575,1.5866,1.5866,1.5967,1.6083,1.6083,1.6083,1.6083,1.6083,1.6083,1.6083,1.6083,1.6083,1.6083,1.6083,1.6083,1.6083,1.6083,1.6083,1.6083,1.6083,1.6083,1.6083,1.6083,1.6083,1.6083,1.6083,1.6083,1.6083,1.6083,1.6083,1.6083,1.6083,1.6083,1.6083,1.6083,1.6083,1.6083,1.6083,1.6083,1.6083,1.6083,1.6083,1.6083,1.6083,1.609,1.609,0.0,0.0,0.0,0.0,0.0,0.0,0.0,0.0,0.0,0.0,0.0,0.0,0.0,0.0,0.0,0.0,0.0,0.0,0.0,0.0,0.0,0.0,0.0,0.0,0.0,0.0,0.0,0.0,0.0,0.0,0.0,0.0,0.0,0.0,0.0,0.0,0.0,0.0,0.0,0.0,0.0,0.0,0.0,0.0,0.0,0.0,0.0,0.0,0.0,0.0,0.0,0.0,0.0,0.201,0.519,0.7125,0.9867,1.3052,1.5016,1.5669,1.5588,1.5628,1.571,1.5798,1.5798,1.5906,1.6022,1.6022,1.6049,1.6083,1.6083,1.6083,1.6083,1.6083,1.6083,1.6083,1.6083,1.6083,1.6083,1.6083,1.6083,1.6083,1.6083,1.6083,1.6083,1.6083,1.6083,1.6083,1.6083,1.6083,1.6083,1.6083,1.6083,1.6083,1.6083,1.6083,1.6083,1.6083,1.6083,1.6083,1.6083,1.6083,1.6083,1.6083,1.6083,1.6083,1.6083,1.6083,1.6083,1.6083,1.6198,1.6191,0.0,0.0,0.0,0.0,0.0,0.0,0.0,0.0,0.0,0.0,0.0,0.0,0.0,0.0,0.0,0.0,0.0,0.0,0.0,0.0,0.0,0.0,0.0,0.0,0.0,0.0,0.0,0.0,0.0,0.0,0.0,0.0,0.0,0.0,0.0,0.0,0.0,0.0,0.0,0.0,0.0,0.0,0.0,0.0,0.0,0.0,0.0,0.0,0.0,0.0,0.0,0.0,0.0,0.2308,0.5886,0.7294,1.0272,1.3872,1.5401,1.59,1.5832,1.5832,1.5886,1.5954,1.5954,1.6015,1.6083,1.6083,1.6083,1.6083,1.6083,1.6083,1.6083,1.6083,1.6083,1.6083,1.6083,1.6083,1.6083,1.6083,1.6083,1.6083,1.6083,1.6083,1.6083,1.6083,1.6083,1.6083,1.6083,1.6083,1.6083,1.6083,1.6083,1.6083,1.6083,1.6083,1.6083,1.6083,1.6083,1.6083,1.6083,1.6083,1.6083,1.6083,1.6083,1.6083,1.6083,1.6151,1.6185,1.6185,1.6334,1.6354,0.0,0.0,0.0,0.0,0.0,0.0,0.0,0.0,0.0,0.0,0.0,0.0,0.0,0.0,0.0,0.0,0.0,0.0,0.0,0.0,0.0,0.0,0.0,0.0,0.0,0.0,0.0,0.0,0.0,0.0,0.0,0.0,0.0,0.0,0.0,0.0,0.0,0.0,0.0,0.0,0.0,0.0,0.0,0.0,0.0,0.0,0.0,0.0,0.0,0.0,0.0,0.0,0.0,0.319,0.7849,0.798,1.1397,1.59,1.6035,1.6083,1.6083,1.6083,1.6083,1.6083,1.6083,1.6083,1.6083,1.6083,1.6083,1.6083,1.6083,1.6083,1.6083,1.6083,1.6083,1.6083,1.6083,1.6083,1.6083,1.6083,1.6083,1.6083,1.6083,1.6083,1.6083,1.6083,1.6083,1.6083,1.6083,1.6083,1.6083,1.6083,1.6083,1.6083,1.6083,1.6083,1.6083,1.6083,1.6083,1.6083,1.6083,1.6083,1.6083,1.6083,1.6103,1.611,1.611,1.6266,1.6341,1.6341,1.6483,1.6551,0.0,0.0,0.0,0.0,0.0,0.0,0.0,0.0,0.0,0.0,0.0,0.0,0.0,0.0,0.0,0.0,0.0,0.0,0.0,0.0,0.0,0.0,0.0,0.0,0.0,0.0,0.0,0.0,0.0,0.0,0.0,0.0,0.0,0.0,0.0,0.0,0.0,0.0,0.0,0.0,0.0,0.0,0.0,0.0,0.0,0.0,0.0,0.0,0.0,0.0,0.0,0.0,0.0,0.3217,0.799,0.8018,1.1446,1.6049,1.6076,1.6083,1.6083,1.6083,1.6083,1.6083,1.6083,1.6083,1.6083,1.6083,1.6083,1.6083,1.6083,1.6083,1.6083,1.6083,1.6083,1.6083,1.6083,1.6083,1.6083,1.6083,1.6083,1.6083,1.6083,1.6083,1.6083,1.6083,1.6083,1.6083,1.6083,1.6083,1.6083,1.6083,1.6083,1.6083,1.6083,1.6083,1.6083,1.6083,1.6083,1.6083,1.6083,1.6083,1.6083,1.6083,1.6205,1.6273,1.6273,1.6415,1.6483,1.649,1.6639,1.6707,0.0,0.0,0.0,0.0,0.0,0.0,0.0,0.0,0.0,0.0,0.0,0.0,0.0,0.0,0.0,0.0,0.0,0.0,0.0,0.0,0.0,0.0,0.0,0.0,0.0,0.0,0.0,0.0,0.0,0.0,0.0,0.0,0.0,0.0,0.0,0.0,0.0,0.0,0.0,0.0,0.0,0.0,0.0,0.0,0.0,0.0,0.0,0.0,0.0,0.0,0.0,0.0097,0.1564,0.4528,0.813,0.9559,1.2703,1.6083,1.6083,1.6083,1.6083,1.6083,1.6083,1.6083,1.6083,1.6083,1.6083,1.6083,1.6083,1.6083,1.6083,1.6083,1.6083,1.6083,1.6083,1.6083,1.6083,1.6083,1.6083,1.6083,1.6083,1.6083,1.6083,1.6083,1.6083,1.6083,1.6083,1.6083,1.6083,1.6083,1.6083,1.6083,1.6083,1.6083,1.6083,1.6083,1.6083,1.6083,1.6083,1.6083,1.6083,1.6157,1.6198,1.6198,1.6347,1.6422,1.6422,1.6571,1.6639,1.6646,1.6795,1.687,0.0,0.0,0.0,0.0,0.0,0.0,0.0,0.0,0.0,0.0,0.0,0.0,0.0,0.0,0.0,0.0,0.0,0.0,0.0,0.0,0.0,0.0,0.0,0.0,0.0,0.0,0.0,0.0,0.0,0.0,0.0,0.0,0.0,0.0,0.0,0.0,0.0,0.0,0.0,0.0,0.0,0.0,0.0,0.0,0.0,0.0,0.0,0.0,0.0,0.0,0.0,0.0194,0.2271,0.5167,0.8257,1.0414,1.3256,1.6083,1.6083,1.6083,1.6083,1.6083,1.6083,1.6083,1.6083,1.6083,1.6083,1.6083,1.6083,1.6083,1.6083,1.6083,1.6083,1.6083,1.6083,1.6083,1.6083,1.6083,1.6083,1.6083,1.6083,1.6083,1.6083,1.6083,1.6083,1.6083,1.6083,1.6083,1.6083,1.6083,1.6083,1.6083,1.6083,1.6083,1.6083,1.6083,1.6083,1.6083,1.611,1.613,1.613,1.6273,1.6354,1.6354,1.6497,1.6571,1.6571,1.672,1.6802,1.6802,1.6924,1.6978,0.0,0.0,0.0,0.0,0.0,0.0,0.0,0.0,0.0,0.0,0.0,0.0,0.0,0.0,0.0,0.0,0.0,0.0,0.0,0.0,0.0,0.0,0.0,0.0,0.0,0.0,0.0,0.0,0.0,0.0,0.0,0.0,0.0,0.0,0.0,0.0,0.0,0.0,0.0,0.0,0.0,0.0,0.0,0.0,0.0,0.0,0.0,0.0,0.0,0.0,0.0,0.0,0.0297,0.3495,0.8031,0.8238,1.1649,1.6083,1.6083,1.6083,1.6083,1.6083,1.6083,1.6083,1.6083,1.6083,1.6083,1.6083,1.6083,1.6083,1.6083,1.6083,1.6083,1.6083,1.6083,1.6083,1.6083,1.6083,1.6083,1.6083,1.6083,1.6083,1.6083,1.6083,1.6083,1.6083,1.6083,1.6083,1.6083,1.6083,1.6083,1.6083,1.6083,1.6083,1.6083,1.6083,1.6083,1.6083,1.6212,1.6286,1.6286,1.6429,1.6503,1.6503,1.6653,1.6727,1.6727,1.6883,1.6958,1.6958,1.6971,1.6978,0.0,0.0,0.0,0.0,0.0,0.0,0.0,0.0,0.0,0.0,0.0,0.0,0.0,0.0,0.0,0.0,0.0,0.0,0.0,0.0,0.0,0.0,0.0,0.0,0.0,0.0,0.0,0.0,0.0,0.0,0.0,0.0,0.0,0.0,0.0,0.0,0.0,0.0,0.0,0.0,0.0,0.0,0.0,0.0,0.0,0.0,0.0,0.0,0.0,0.0,0.0,0.0198,0.1798,0.4714,0.8238,0.9845,1.2852,1.6083,1.6083,1.6083,1.6083,1.6083,1.6083,1.6083,1.6083,1.6083,1.6083,1.6083,1.6083,1.6083,1.6083,1.6083,1.6083,1.6083,1.6083,1.6083,1.6083,1.6083,1.6083,1.6083,1.6083,1.6083,1.6083,1.6083,1.6083,1.6083,1.6083,1.6083,1.6083,1.6083,1.6083,1.6083,1.6083,1.6083,1.6083,1.6083,1.6123,1.6212,1.6279,1.6347,1.6435,1.6578,1.6659,1.6659,1.6809,1.689,1.689,1.6951,1.6978,1.6978,1.6978,1.7026,0.0,0.0,0.0,0.0,0.0,0.0,0.0,0.0,0.0,0.0,0.0,0.0,0.0,0.0,0.0,0.0,0.0,0.0,0.0,0.0,0.0,0.0,0.0,0.0,0.0,0.0,0.0,0.0,0.0,0.0,0.0,0.0,0.0,0.0,0.0,0.0,0.0,0.0,0.0,0.0,0.0,0.0,0.0,0.0,0.0,0.0,0.0,0.0,0.0,0.0,0.0,0.0199,0.2109,0.4929,0.8242,1.0145,1.3057,1.6083,1.6083,1.6083,1.6083,1.6083,1.6083,1.6083,1.6083,1.6083,1.6083,1.6083,1.6083,1.6083,1.6083,1.6083,1.6083,1.6083,1.6083,1.6083,1.6083,1.6083,1.6083,1.6083,1.6083,1.6083,1.6083,1.6083,1.6083,1.6083,1.6083,1.6083,1.6083,1.6083,1.6083,1.6083,1.6123,1.613,1.6083,1.6123,1.6198,1.63,1.6395,1.6483,1.6585,1.6734,1.6815,1.6815,1.6924,1.6978,1.6978,1.6978,1.6978,1.6985,1.7026,1.7121,0.0,0.0,0.0,0.0,0.0,0.0,0.0,0.0,0.0,0.0,0.0,0.0,0.0,0.0,0.0,0.0,0.0,0.0,0.0,0.0,0.0,0.0,0.0,0.0,0.0,0.0,0.0,0.0,0.0,0.0,0.0,0.0,0.0,0.0,0.0,0.0,0.0,0.0,0.0,0.0,0.0,0.0,0.0,0.0,0.0,0.0,0.0,0.0,0.0,0.0,0.0,0.0,0.0,0.3325,0.8041,0.8041,1.1449,1.6083,1.6083,1.6083,1.6083,1.6083,1.6083,1.6083,1.6083,1.6083,1.6083,1.6083,1.6083,1.6083,1.6083,1.6083,1.6083,1.6083,1.6083,1.6083,1.6083,1.6083,1.6083,1.6083,1.6083,1.6083,1.6083,1.6083,1.6083,1.6083,1.6083,1.6083,1.6083,1.6083,1.6083,1.6083,1.6218,1.6246,1.6096,1.6218,1.6307,1.6307,1.6585,1.6748,1.6748,1.6897,1.6978,1.6978,1.6978,1.6978,1.6978,1.6978,1.6978,1.6985,1.7127,1.727,0.0,0.0,0.0,0.0,0.0,0.0,0.0,0.0,0.0,0.0,0.0,0.0,0.0,0.0,0.0,0.0,0.0,0.0,0.0,0.0,0.0,0.0,0.0,0.0,0.0,0.0,0.0,0.0,0.0,0.0,0.0,0.0,0.0,0.0,0.0,0.0,0.0,0.0,0.0,0.0,0.0,0.0,0.0,0.0,0.0,0.0,0.0,0.0,0.0,0.0,0.0,0.0,0.0,0.3325,0.8041,0.8041,1.1449,1.6083,1.6083,1.6083,1.6083,1.6083,1.6083,1.6083,1.6083,1.6083,1.6083,1.6083,1.6083,1.6083,1.6083,1.6083,1.6083,1.6083,1.6083,1.6083,1.6083,1.6083,1.6083,1.6083,1.6083,1.6083,1.6083,1.6083,1.6083,1.6083,1.6083,1.6083,1.6083,1.6171,1.6239,1.6239,1.6368,1.6395,1.6252,1.6374,1.6497,1.6605,1.67,1.6795,1.6904,1.6951,1.6978,1.6978,1.6978,1.6978,1.6978,1.708,1.7182,1.7283,1.7433,1.7528,0.0,0.0,0.0,0.0,0.0,0.0,0.0,0.0,0.0,0.0,0.0,0.0,0.0,0.0,0.0,0.0,0.0,0.0,0.0,0.0,0.0,0.0,0.0,0.0,0.0,0.0,0.0,0.0,0.0,0.0,0.0,0.0,0.0,0.0,0.0,0.0,0.0,0.0,0.0,0.0,0.0,0.0,0.0,0.0,0.0,0.0,0.0,0.0,0.0,0.0,0.0,0.0101,0.111,0.4127,0.8142,0.9144,1.2353,1.6083,1.6083,1.6083,1.6083,1.6083,1.6083,1.6083,1.6083,1.6083,1.6083,1.6083,1.6083,1.6083,1.6083,1.6083,1.6083,1.6083,1.6083,1.6083,1.6083,1.6083,1.6083,1.6083,1.6083,1.6083,1.6083,1.6083,1.6083,1.6083,1.6083,1.6103,1.6157,1.6252,1.6334,1.6381,1.6524,1.6571,1.6483,1.6558,1.6646,1.6637,1.6802,1.6876,1.6978,1.6978,1.6978,1.6978,1.6978,1.7005,1.706,1.7209,1.7358,1.7507,1.7602,1.7684,0.0,0.0,0.0,0.0,0.0,0.0,0.0,0.0,0.0,0.0,0.0,0.0,0.0,0.0,0.0,0.0,0.0,0.0,0.0,0.0,0.0,0.0,0.0,0.0,0.0,0.0,0.0,0.0,0.0,0.0,0.0,0.0,0.0,0.0,0.0,0.0,0.0,0.0,0.0,0.0,0.0,0.0,0.0,0.0,0.0,0.0,0.0,0.0,0.0,0.0,0.0102,0.0505,0.3021,0.5733,0.8639,1.1144,1.376,1.6083,1.6083,1.6083,1.6083,1.6083,1.6083,1.6083,1.6083,1.6083,1.6083,1.6083,1.6083,1.6083,1.6083,1.6083,1.6083,1.6083,1.6083,1.6083,1.6083,1.6083,1.6083,1.6083,1.6083,1.6083,1.6083,1.6083,1.6083,1.6083,1.609,1.6151,1.6293,1.6327,1.6388,1.6524,1.6673,1.6768,1.6768,1.6768,1.6768,1.6768,1.6904,1.6978,1.6978,1.6978,1.6985,1.6992,1.7005,1.708,1.7222,1.7365,1.7514,1.7663,1.7663,1.7738,0.0,0.0,0.0,0.0,0.0,0.0,0.0,0.0,0.0,0.0,0.0,0.0,0.0,0.0,0.0,0.0,0.0,0.0,0.0,0.0,0.0,0.0,0.0,0.0,0.0,0.0,0.0,0.0,0.0,0.0,0.0,0.0,0.0,0.0,0.0,0.0,0.0,0.0,0.0,0.0,0.0,0.0,0.0,0.0,0.0,0.0,0.0,0.0,0.0,0.0,0.1213,0.3122,0.3724,0.6935,1.1244,1.1848,1.376,1.6083,1.6083,1.6083,1.6083,1.6083,1.6083,1.6083,1.6083,1.6083,1.6083,1.6083,1.6083,1.6083,1.6083,1.6083,1.6083,1.6083,1.6083,1.6083,1.6083,1.6083,1.6083,1.6083,1.6083,1.6083,1.6083,1.6083,1.6083,1.6083,1.6185,1.6273,1.6307,1.651,1.6659,1.6693,1.6836,1.6924,1.6924,1.6924,1.6924,1.6924,1.6958,1.6978,1.6978,1.6978,1.7032,1.7141,1.7256,1.7392,1.7541,1.7575,1.767,1.7812,1.7812,1.7826,0.0,0.0,0.0,0.0,0.0,0.0,0.0,0.0,0.0,0.0,0.0,0.0,0.0,0.0,0.0,0.0,0.0,0.0,0.0,0.0,0.0,0.0,0.0,0.0,0.0,0.0,0.0,0.0,0.0,0.0,0.0,0.0,0.0,0.0,0.0,0.0,0.0,0.0,0.0,0.0,0.0,0.0,0.0,0.0,0.0,0.0,0.0,0.0,0.0,0.0,0.1614,0.4125,0.5331,0.8439,1.2248,1.3456,1.4869,1.6083,1.6083,1.6083,1.6083,1.6083,1.6083,1.6083,1.6083,1.6083,1.6083,1.6083,1.6083,1.6083,1.6083,1.6083,1.6083,1.6083,1.6083,1.6083,1.6083,1.6083,1.6083,1.6083,1.6083,1.6083,1.6083,1.6083,1.6103,1.6178,1.6259,1.6361,1.6497,1.6653,1.6775,1.6849,1.6931,1.6978,1.6978,1.6978,1.6978,1.6978,1.6978,1.6978,1.6978,1.7039,1.7148,1.7297,1.7446,1.7568,1.765,1.7717,1.7792,1.786,1.786,1.7826,0.0,0.0,0.0,0.0,0.0,0.0,0.0,0.0,0.0,0.0,0.0,0.0,0.0,0.0,0.0,0.0,0.0,0.0,0.0,0.0,0.0,0.0,0.0,0.0,0.0,0.0,0.0,0.0,0.0,0.0,0.0,0.0,0.0,0.0,0.0,0.0,0.0,0.0,0.0,0.0,0.0,0.0,0.0,0.0,0.0,0.0,0.0,0.0,0.0,0.0,0.1815,0.4829,0.7136,0.9945,1.2951,1.5273,1.6083,1.6083,1.6083,1.6083,1.6083,1.6083,1.6083,1.6083,1.6083,1.6083,1.6083,1.6083,1.6083,1.6083,1.6083,1.6083,1.6083,1.6083,1.6083,1.6083,1.6083,1.6083,1.6083,1.6083,1.6083,1.6083,1.6083,1.6103,1.6157,1.6293,1.6347,1.6469,1.672,1.6768,1.6836,1.6965,1.6978,1.6978,1.6978,1.6978,1.6978,1.6978,1.7005,1.7026,1.7046,1.7182,1.7324,1.7453,1.7602,1.7684,1.7684,1.7812,1.786,1.786,1.7846,1.7772,0.0,0.0,0.0,0.0,0.0,0.0,0.0,0.0,0.0,0.0,0.0,0.0,0.0,0.0,0.0,0.0,0.0,0.0,0.0,0.0,0.0,0.0,0.0,0.0,0.0,0.0,0.0,0.0,0.0,0.0,0.0,0.0,0.0,0.0,0.0,0.0,0.0,0.0,0.0,0.0,0.0,0.0,0.0,0.0,0.0,0.0,0.0,0.0,0.0,0.0,0.2922,0.7437,0.7838,1.1049,1.5572,1.5977,1.6083,1.6083,1.6083,1.6083,1.6083,1.6083,1.6083,1.6083,1.6083,1.6083,1.6083,1.6083,1.6083,1.6083,1.6083,1.6083,1.6083,1.6083,1.6083,1.6083,1.6083,1.6083,1.6083,1.6083,1.6083,1.6083,1.6083,1.6191,1.6286,1.6307,1.6524,1.67,1.6637,1.6863,1.6951,1.6978,1.6978,1.6978,1.6978,1.6978,1.6978,1.6978,1.7093,1.7216,1.7351,1.75,1.7589,1.7616,1.7758,1.7826,1.7826,1.7846,1.786,1.786,1.7738,1.767,0.0,0.0,0.0,0.0,0.0,0.0,0.0,0.0,0.0,0.0,0.0,0.0,0.0,0.0,0.0,0.0,0.0,0.0,0.0,0.0,0.0,0.0,0.0,0.0,0.0,0.0,0.0,0.0,0.0,0.0,0.0,0.0,0.0,0.0,0.0,0.0,0.0,0.0,0.0,0.0,0.0,0.0,0.0,0.0,0.0,0.0,0.0,0.0,0.0,0.0,0.3123,0.8041,0.8041,1.1349,1.6083,1.6083,1.6083,1.6083,1.6083,1.6083,1.6083,1.6083,1.6083,1.6083,1.6083,1.6083,1.6083,1.6083,1.6083,1.6083,1.6083,1.6083,1.6083,1.6083,1.6083,1.6083,1.6083,1.6144,1.6178,1.6096,1.6212,1.6293,1.6218,1.6327,1.6449,1.6537,1.6666,1.6781,1.6863,1.6937,1.6978,1.6978,1.6978,1.6978,1.6978,1.7053,1.7093,1.7093,1.7154,1.7297,1.7534,1.7609,1.7684,1.7758,1.7826,1.786,1.786,1.786,1.7826,1.7738,1.7684,1.7561,0.0,0.0,0.0,0.0,0.0,0.0,0.0,0.0,0.0,0.0,0.0,0.0,0.0,0.0,0.0,0.0,0.0,0.0,0.0,0.0,0.0,0.0,0.0,0.0,0.0,0.0,0.0,0.0,0.0,0.0,0.0,0.0,0.0,0.0,0.0,0.0,0.0,0.0,0.0,0.0,0.0,0.0,0.0,0.0,0.0,0.0,0.0,0.0,0.0,0.0707,0.3726,0.8038,0.8739,1.1853,1.6083,1.6083,1.6083,1.6083,1.6083,1.6083,1.6083,1.6083,1.6083,1.6083,1.6083,1.6083,1.6083,1.6083,1.6083,1.6083,1.6083,1.6083,1.6083,1.6083,1.611,1.6137,1.6137,1.6252,1.6327,1.6205,1.6368,1.6483,1.6381,1.6476,1.6612,1.663,1.6781,1.6849,1.6965,1.6978,1.6978,1.6978,1.6978,1.6992,1.7026,1.7127,1.7222,1.7297,1.7297,1.7419,1.7684,1.7704,1.7758,1.786,1.786,1.786,1.786,1.7826,1.7758,1.765,1.7575,1.7419,0.0,0.0,0.0,0.0,0.0,0.0,0.0,0.0,0.0,0.0,0.0,0.0,0.0,0.0,0.0,0.0,0.0,0.0,0.0,0.0,0.0,0.0,0.0,0.0,0.0,0.0,0.0,0.0,0.0,0.0,0.0,0.0,0.0,0.0,0.0,0.0,0.0,0.0,0.0,0.0,0.0,0.0,0.0,0.0,0.0,0.0,0.0,0.0,0.0202,0.272,0.5432,0.8242,1.0845,1.3555,1.6083,1.6083,1.6083,1.6083,1.6083,1.6083,1.6083,1.6083,1.6083,1.6083,1.6083,1.6083,1.6083,1.6083,1.6083,1.6083,1.6083,1.6083,1.6083,1.6083,1.6191,1.6293,1.6293,1.6402,1.6503,1.649,1.651,1.6517,1.651,1.6632,1.6734,1.6748,1.687,1.6971,1.6978,1.6978,1.6978,1.6978,1.6978,1.7032,1.7168,1.7188,1.7311,1.7595,1.7616,1.7684,1.7846,1.7846,1.7846,1.786,1.786,1.786,1.786,1.7738,1.7554,1.754,1.7358,1.7216,0.0,0.0,0.0,0.0,0.0,0.0,0.0,0.0,0.0,0.0,0.0,0.0,0.0,0.0,0.0,0.0,0.0,0.0,0.0,0.0,0.0,0.0,0.0,0.0,0.0,0.0,0.0,0.0,0.0,0.0,0.0,0.0,0.0,0.0,0.0,0.0,0.0,0.0,0.0,0.0,0.0,0.0,0.0,0.0,0.0,0.0,0.0,0.0,0.0202,0.2921,0.5532,0.8442,1.2857,1.5174,1.6083,1.6083,1.6083,1.6083,1.6083,1.6083,1.6083,1.6083,1.6083,1.6083,1.6083,1.6083,1.6083,1.6083,1.6083,1.6083,1.6083,1.6083,1.6103,1.6198,1.6266,1.6334,1.6422,1.6558,1.6632,1.6537,1.668,1.6775,1.668,1.6788,1.6897,1.6897,1.6944,1.6978,1.6978,1.6978,1.6978,1.6978,1.706,1.7175,1.7324,1.7419,1.7561,1.7772,1.7704,1.7717,1.786,1.786,1.786,1.786,1.786,1.7826,1.7738,1.767,1.7548,1.7365,1.7249,1.7148,0.0,0.0,0.0,0.0,0.0,0.0,0.0,0.0,0.0,0.0,0.0,0.0,0.0,0.0,0.0,0.0,0.0,0.0,0.0,0.0,0.0,0.0,0.0,0.0,0.0,0.0,0.0,0.0,0.0,0.0,0.0,0.0,0.0,0.0,0.0,0.0,0.0,0.0,0.0,0.0,0.0,0.0,0.0,0.0935,0.0831,0.0,0.0926,0.1325,0.1519,0.4132,0.7336,1.0949,1.4669,1.6083,1.6083,1.6083,1.6083,1.6083,1.6083,1.6083,1.6083,1.6083,1.6083,1.6083,1.6083,1.6083,1.6083,1.6083,1.6083,1.609,1.6144,1.6151,1.6178,1.6286,1.6381,1.6476,1.6571,1.6714,1.6788,1.6686,1.6836,1.6944,1.6842,1.691,1.6978,1.6978,1.6978,1.6978,1.6978,1.6978,1.6998,1.7039,1.7134,1.727,1.7473,1.7589,1.7704,1.7846,1.7772,1.7758,1.786,1.786,1.786,1.786,1.786,1.7792,1.765,1.7602,1.7446,1.7188,1.7148,1.71,0.0,0.0,0.0,0.0,0.0,0.0,0.0,0.0,0.0,0.0,0.0,0.0,0.0,0.0,0.0,0.0,0.0,0.0,0.0,0.0,0.0,0.0,0.0,0.0,0.0,0.0,0.0,0.0,0.0,0.0,0.0,0.0,0.0,0.0,0.0,0.0,0.0,0.0,0.0,0.0,0.0,0.0,0.0105,0.2913,0.2603,0.0105,0.2986,0.4082,0.4181,0.6861,1.1249,1.6083,1.6083,1.6083,1.6083,1.6083,1.6083,1.6083,1.6083,1.6083,1.6083,1.6083,1.6083,1.6083,1.6083,1.6083,1.6083,1.6083,1.6083,1.6117,1.6273,1.6313,1.6313,1.6313,1.6537,1.6748,1.6754,1.687,1.6978,1.6978,1.6978,1.6978,1.6978,1.6978,1.6978,1.6978,1.6978,1.6978,1.6978,1.6985,1.7039,1.7175,1.7195,1.7317,1.7623,1.765,1.7717,1.7846,1.786,1.786,1.786,1.786,1.786,1.786,1.786,1.7792,1.765,1.7494,1.7344,1.7188,1.7046,1.706,0.0,0.0,0.0,0.0,0.0,0.0,0.0,0.0,0.0,0.0,0.0,0.0,0.0,0.0,0.0,0.0,0.0,0.0,0.0,0.0,0.0,0.0,0.0,0.0,0.0,0.0,0.0,0.0,0.0,0.0,0.0,0.0,0.0,0.0,0.0,0.0,0.0,0.0,0.0,0.0,0.0,0.0,0.0,0.0844,0.0739,0.0105,0.2904,0.298,0.1533,0.6158,1.1249,1.6083,1.6083,1.6083,1.6083,1.6083,1.6083,1.6083,1.6083,1.6083,1.6083,1.6083,1.6083,1.6083,1.6083,1.6083,1.6083,1.6083,1.6083,1.6117,1.6273,1.6381,1.6483,1.6592,1.6686,1.6781,1.689,1.6951,1.6978,1.6978,1.6978,1.6978,1.6978,1.6978,1.6978,1.6978,1.6978,1.6978,1.6978,1.7066,1.7148,1.7188,1.7385,1.7548,1.754,1.7738,1.7812,1.786,1.786,1.786,1.786,1.786,1.786,1.786,1.786,1.7738,1.7487,1.7446,1.7344,1.7188,1.7148,1.7209,0.0,0.0,0.0,0.0,0.0,0.0,0.0,0.0,0.0,0.0,0.0,0.0,0.0,0.0,0.0,0.0,0.0,0.0,0.0,0.0,0.0,0.0,0.0,0.0,0.0,0.0,0.0,0.0,0.0,0.0,0.0,0.0,0.0,0.0,0.0,0.0,0.0,0.0,0.0,0.0,0.0,0.0,0.0,0.1169,0.1699,0.19,0.5613,0.5747,0.3553,0.8962,1.3156,1.6083,1.6083,1.6083,1.6083,1.6083,1.6083,1.6083,1.6083,1.6083,1.6083,1.6083,1.6083,1.6083,1.6083,1.6083,1.6096,1.6157,1.6171,1.6218,1.6429,1.6544,1.6632,1.6727,1.6795,1.687,1.6958,1.6978,1.6978,1.6978,1.6978,1.6978,1.6978,1.6978,1.6978,1.6978,1.6978,1.7005,1.706,1.7141,1.7243,1.7358,1.7541,1.767,1.7717,1.7812,1.786,1.786,1.786,1.786,1.786,1.786,1.786,1.786,1.786,1.7738,1.7514,1.7514,1.7433,1.7283,1.7283,1.7365,0.0,0.0,0.0,0.0,0.0,0.0,0.0,0.0,0.0,0.0,0.0,0.0,0.0,0.0,0.0,0.0,0.0,0.0,0.0,0.0,0.0,0.0,0.0,0.0,0.0,0.0,0.0,0.0,0.0,0.0,0.0,0.0,0.0,0.0,0.0,0.0,0.0,0.0301,0.0204,0.0,0.0312,0.021,0.0107,0.2872,0.4354,0.4873,0.9561,1.0312,0.8743,1.3661,1.5877,1.6083,1.6083,1.6083,1.6083,1.6083,1.6083,1.6083,1.6083,1.6083,1.6083,1.6083,1.6083,1.6083,1.6083,1.609,1.613,1.6273,1.632,1.6395,1.6673,1.6748,1.6651,1.6768,1.6876,1.6978,1.6978,1.6978,1.6978,1.6978,1.6978,1.6978,1.6978,1.6978,1.6985,1.6998,1.6998,1.7053,1.7195,1.7216,1.7317,1.7595,1.754,1.7704,1.7826,1.786,1.786,1.786,1.786,1.786,1.788,1.786,1.786,1.786,1.788,1.7806,1.765,1.7663,1.7589,1.7439,1.7439,1.7521,0.0,0.0,0.0,0.0,0.0,0.0,0.0,0.0,0.0,0.0,0.0,0.0,0.0,0.0,0.0,0.0,0.0,0.0,0.0,0.0,0.0,0.0,0.0,0.0,0.0,0.0,0.0,0.0,0.0,0.0,0.0,0.0,0.0,0.0,0.0,0.0,0.0,0.2199,0.2137,0.0,0.2192,0.2106,0.0107,0.2872,0.5376,0.7371,0.6267,0.7816,1.1344,1.2453,1.4159,1.6083,1.6083,1.6083,1.6083,1.6083,1.6083,1.6083,1.6083,1.6083,1.6083,1.6083,1.6083,1.6083,1.6083,1.6164,1.6266,1.63,1.6388,1.6517,1.67,1.6748,1.6781,1.6904,1.6958,1.6978,1.6978,1.6978,1.6978,1.6978,1.6978,1.6978,1.6978,1.6978,1.7019,1.7127,1.7148,1.7202,1.7351,1.7372,1.7399,1.746,1.7575,1.7663,1.7684,1.7792,1.786,1.786,1.786,1.7914,1.8036,1.7935,1.786,1.786,1.7989,1.7914,1.765,1.7758,1.7738,1.7602,1.7602,1.7684,0.0,0.0,0.0,0.0,0.0,0.0,0.0,0.0,0.0,0.0,0.0,0.0,0.0,0.0,0.0,0.0,0.0,0.0,0.0,0.0,0.0,0.0,0.0,0.0,0.0,0.0,0.0,0.0,0.0,0.0,0.0,0.0,0.0,0.0,0.0,0.0,0.0,0.1502,0.1429,0.0,0.2829,0.4835,0.5909,0.4752,0.4288,0.4418,0.5519,0.7604,1.0245,1.1544,1.3655,1.6083,1.6083,1.6083,1.6083,1.6083,1.6083,1.6083,1.6083,1.6083,1.6083,1.6083,1.6083,1.6083,1.6083,1.6191,1.6327,1.6395,1.6517,1.6666,1.6822,1.6863,1.6883,1.6965,1.6978,1.6978,1.6978,1.6978,1.6978,1.6978,1.6978,1.6978,1.6978,1.7039,1.7087,1.7087,1.7148,1.7222,1.7304,1.7311,1.7365,1.7514,1.7602,1.7684,1.7738,1.7826,1.7901,1.7968,1.7968,1.8036,1.8199,1.8124,1.8077,1.8077,1.8091,1.8023,1.786,1.786,1.7826,1.7758,1.7758,1.7792,0.0,0.0,0.0,0.0,0.0,0.0,0.0,0.0,0.0,0.0,0.0,0.0,0.0,0.0,0.0,0.0,0.0,0.0,0.0,0.0,0.0,0.0,0.0,0.0,0.0,0.0,0.0,0.0,0.0,0.0,0.0,0.0,0.0,0.0,0.0384,0.0682,0.0695,0.1605,0.1635,0.0735,0.3042,0.6799,1.1564,0.6465,0.3213,0.1636,0.6314,0.82,0.8242,1.1449,1.4059,1.6083,1.6083,1.6083,1.6083,1.6083,1.6083,1.6083,1.6083,1.6083,1.6083,1.6083,1.6083,1.609,1.611,1.6225,1.6374,1.6517,1.6673,1.6822,1.6944,1.6978,1.6978,1.6978,1.6978,1.6978,1.6978,1.6978,1.6978,1.6978,1.6958,1.6951,1.6978,1.706,1.7093,1.7026,1.7114,1.7202,1.7229,1.7209,1.729,1.7541,1.7568,1.7629,1.7812,1.7846,1.7935,1.8124,1.8124,1.8199,1.8355,1.8355,1.8375,1.8389,1.8213,1.8124,1.8091,1.7968,1.788,1.786,1.786,1.786,0.0,0.0,0.0,0.0,0.0,0.0,0.0,0.0,0.0,0.0,0.0,0.0,0.0,0.0,0.0,0.0,0.0,0.0,0.0,0.0,0.0,0.0,0.0,0.0,0.0,0.0,0.0,0.0,0.0,0.0,0.0,0.0,0.0,0.0,0.2098,0.3367,0.3434,0.8268,0.8221,0.3423,0.3866,0.5613,0.8487,0.5426,0.5215,0.7235,0.7783,0.8048,0.8442,1.3461,1.5778,1.6083,1.6083,1.6083,1.6083,1.6083,1.6083,1.6083,1.6083,1.6083,1.6083,1.6083,1.6083,1.6103,1.6239,1.6381,1.6524,1.6673,1.6829,1.6951,1.6978,1.6978,1.6978,1.6978,1.6978,1.6978,1.6978,1.6978,1.6978,1.6978,1.687,1.6822,1.6958,1.6883,1.689,1.7127,1.7182,1.7243,1.7372,1.7277,1.7209,1.7249,1.7256,1.7365,1.765,1.7792,1.7989,1.8267,1.8287,1.8355,1.8498,1.8498,1.8565,1.8708,1.8423,1.8233,1.8091,1.8077,1.7989,1.786,1.786,1.786,0.0,0.0,0.0,0.0,0.0,0.0,0.0,0.0,0.0,0.0,0.0,0.0,0.0,0.0,0.0,0.0,0.0,0.0,0.0,0.0,0.0,0.0,0.0,0.0,0.0,0.0,0.0,0.0,0.0,0.0,0.0,0.0,0.0,0.0,0.2584,0.3968,0.4047,0.7887,0.9431,0.8572,0.5607,0.7123,1.253,0.8357,0.7014,0.8089,0.6447,0.7437,1.0445,1.2852,1.4769,1.6083,1.6083,1.6083,1.6083,1.6083,1.6083,1.6083,1.6083,1.6083,1.6096,1.6185,1.6212,1.6239,1.6381,1.653,1.6666,1.6727,1.6863,1.6978,1.6978,1.6978,1.6978,1.6978,1.6978,1.6978,1.6978,1.6978,1.6978,1.6978,1.6856,1.6802,1.6951,1.6992,1.7012,1.7066,1.7141,1.7188,1.7175,1.7114,1.7107,1.7182,1.727,1.7412,1.7629,1.786,1.8091,1.8301,1.8389,1.8511,1.8654,1.8654,1.8694,1.8762,1.8552,1.8375,1.8213,1.8124,1.8023,1.786,1.786,1.786,0.0,0.0,0.0,0.0,0.0,0.0,0.0,0.0,0.0,0.0,0.0,0.0,0.0,0.0,0.0,0.0,0.0,0.0,0.0,0.0,0.0,0.0,0.0,0.0,0.0,0.0,0.0,0.0,0.0,0.0,0.0,0.0,0.0,0.0,0.3271,0.4965,0.5061,0.7721,1.0454,1.3275,0.8441,0.973,1.6045,1.1368,0.9508,0.9945,0.7236,0.8335,1.2148,1.2852,1.4265,1.6083,1.6083,1.6083,1.6083,1.6083,1.6083,1.6083,1.6083,1.611,1.6157,1.6273,1.6334,1.6388,1.6537,1.6659,1.6761,1.6795,1.689,1.6978,1.6978,1.6978,1.6978,1.6978,1.7012,1.7012,1.6937,1.6951,1.6971,1.6931,1.6829,1.6802,1.6951,1.7032,1.706,1.6992,1.7073,1.71,1.6992,1.7012,1.7073,1.7182,1.7331,1.7514,1.7738,1.7968,1.8199,1.8423,1.8531,1.864,1.8762,1.8762,1.8762,1.8762,1.8654,1.8511,1.8375,1.8179,1.8036,1.7914,1.7914,1.7914,0.0,0.0,0.0,0.0,0.0,0.0,0.0,0.0,0.0,0.0,0.0,0.0,0.0,0.0,0.0,0.0,0.0,0.0,0.0,0.0,0.0,0.0,0.0,0.0,0.0,0.0,0.0,0.0,0.0,0.0,0.0,0.0,0.0,0.0,0.4917,0.7682,0.7827,1.0489,1.3334,1.6017,1.3143,1.3284,1.599,1.3162,1.3262,1.5578,1.2852,1.1843,1.2348,1.4869,1.5977,1.6083,1.6083,1.6083,1.6083,1.6083,1.6083,1.6083,1.6083,1.6178,1.63,1.6307,1.6402,1.6537,1.6693,1.6637,1.6781,1.6931,1.6978,1.6978,1.6978,1.6978,1.6978,1.6978,1.708,1.71,1.6822,1.6876,1.6937,1.6788,1.6754,1.6802,1.6951,1.6863,1.6822,1.6958,1.6985,1.6992,1.6985,1.71,1.7182,1.7195,1.7331,1.7595,1.8036,1.8077,1.8267,1.8708,1.8742,1.8762,1.8762,1.8762,1.8762,1.8762,1.8762,1.8674,1.8511,1.8233,1.8091,1.8077,1.8077,1.8077,0.0,0.0,0.0,0.0,0.0,0.0,0.0,0.0,0.0,0.0,0.0,0.0,0.0,0.0,0.0,0.0,0.0,0.0,0.0,0.0,0.0,0.0,0.0,0.0,0.0,0.0,0.0,0.0,0.0,0.0,0.0,0.0,0.0,0.0,0.3517,0.7012,1.0591,0.9857,1.1708,1.6164,1.1607,1.0881,1.3456,1.2552,1.2652,1.3456,1.2547,1.3051,1.4769,1.5678,1.6083,1.6083,1.6083,1.6083,1.6083,1.6083,1.6083,1.6096,1.6191,1.6266,1.6341,1.653,1.6625,1.67,1.6849,1.6897,1.691,1.6965,1.6978,1.6978,1.6978,1.6978,1.6978,1.6978,1.7087,1.7114,1.6815,1.6795,1.6842,1.689,1.6815,1.6802,1.6951,1.6937,1.6917,1.6971,1.6978,1.7012,1.7107,1.7161,1.7229,1.7324,1.7561,1.7772,1.7935,1.8213,1.8443,1.8599,1.8708,1.8762,1.8762,1.8762,1.8762,1.8762,1.8762,1.8694,1.8531,1.8423,1.8321,1.8233,1.8233,1.8233,0.0,0.0,0.0,0.0,0.0,0.0,0.0,0.0,0.0,0.0,0.0,0.0,0.0,0.0,0.0,0.0,0.0,0.0,0.0,0.0,0.0,0.0,0.0,0.0,0.0,0.0,0.0,0.0,0.0,0.0,0.0,0.0,0.0388,0.1268,0.3069,0.6196,1.0645,0.984,1.0745,1.3362,1.0645,0.9845,1.0745,1.1644,1.1644,1.0745,1.1744,1.3655,1.5983,1.5167,1.5273,1.6083,1.6083,1.5572,1.4869,1.5778,1.5605,1.495,1.5964,1.6374,1.649,1.6686,1.6788,1.6842,1.6951,1.6978,1.6978,1.6978,1.6978,1.6992,1.7039,1.7053,1.7066,1.7114,1.7127,1.708,1.6931,1.6863,1.6842,1.6897,1.6863,1.6863,1.6965,1.6978,1.6978,1.6978,1.7019,1.7087,1.7182,1.7283,1.7385,1.7487,1.7758,1.7968,1.8002,1.8335,1.8552,1.8599,1.8708,1.8762,1.8762,1.8762,1.8762,1.8762,1.8762,1.8708,1.8599,1.8552,1.8477,1.8389,1.8389,1.8423,0.0,0.0,0.0,0.0,0.0,0.0,0.0,0.0,0.0,0.0,0.0,0.0,0.0,0.0,0.0,0.0,0.0,0.0,0.0,0.0,0.0,0.0,0.0,0.0,0.0,0.0,0.0,0.0,0.0,0.0,0.0,0.0,0.1171,0.3775,0.3907,0.513,0.7838,1.0545,1.0545,0.8041,1.0745,1.0545,0.7938,1.0845,1.0645,0.8142,1.0945,1.3655,1.5877,1.3256,1.3655,1.5983,1.5983,1.4364,1.2348,1.4968,1.4449,1.2728,1.5392,1.651,1.6748,1.6754,1.6856,1.6978,1.6978,1.6978,1.6978,1.6978,1.6978,1.7012,1.7148,1.7195,1.7236,1.7372,1.7188,1.7026,1.7154,1.708,1.6937,1.6788,1.6876,1.6985,1.6985,1.6985,1.6985,1.6992,1.7107,1.7195,1.7202,1.7467,1.765,1.7554,1.7935,1.8158,1.8321,1.8464,1.8599,1.8742,1.8762,1.8762,1.8762,1.8762,1.8762,1.8762,1.8762,1.8762,1.8762,1.862,1.8531,1.8531,1.8531,1.862,0.0,0.0,0.0,0.0,0.0,0.0,0.0,0.0,0.0,0.0,0.0,0.0,0.0,0.0,0.0,0.0,0.0,0.0,0.0,0.0,0.0,0.0,0.0,0.0,0.0,0.0,0.0,0.0,0.0,0.0,0.0,0.0,0.0298,0.1105,0.1108,0.2418,0.513,0.5831,0.6835,0.8041,0.8739,0.7737,0.5231,0.994,1.0645,0.8142,1.0945,1.3655,1.5877,1.3256,1.2552,1.3256,1.3256,1.1549,0.9444,1.2248,1.2827,1.2738,1.55,1.6585,1.6768,1.6883,1.6944,1.6978,1.6978,1.6978,1.6978,1.6978,1.6978,1.6992,1.7026,1.7195,1.7317,1.7141,1.7121,1.7114,1.7053,1.7012,1.6971,1.6924,1.6951,1.7012,1.7114,1.7046,1.7053,1.727,1.7236,1.727,1.7494,1.7595,1.7738,1.7948,1.8145,1.8321,1.8464,1.8599,1.8708,1.8762,1.8762,1.8762,1.8762,1.8762,1.8762,1.8762,1.8762,1.8762,1.8762,1.8728,1.8694,1.8694,1.8694,1.8728,0.0,0.0,0.0,0.0,0.0,0.0,0.0,0.0,0.0,0.0,0.0,0.0,0.0,0.0,0.0,0.0,0.0,0.0,0.0,0.0,0.0,0.0,0.0,0.0,0.0,0.0,0.0,0.0,0.0,0.0,0.0,0.0,0.0,0.0,0.0,0.0707,0.2318,0.3423,0.4227,0.473,0.6938,0.6634,0.4226,0.964,1.0645,0.8142,1.0945,1.2353,1.2558,1.1045,1.1045,1.1948,1.0845,0.9464,0.8492,1.121,1.2323,1.2882,1.5648,1.6714,1.6863,1.6951,1.6978,1.6978,1.6978,1.6978,1.6992,1.7053,1.7161,1.7243,1.7182,1.729,1.7358,1.7127,1.7087,1.708,1.6998,1.6978,1.6978,1.6978,1.7026,1.7093,1.7175,1.7175,1.7222,1.7392,1.7399,1.7446,1.7629,1.7758,1.7894,1.8077,1.8287,1.8443,1.8531,1.8674,1.8762,1.8762,1.8762,1.8762,1.8762,1.8762,1.8762,1.8762,1.8762,1.8762,1.8762,1.8762,1.8762,1.8762,1.8762,1.8762,0.0,0.0,0.0,0.0,0.0,0.0,0.0,0.0,0.0,0.0,0.0,0.0,0.0,0.0,0.0,0.0,0.0,0.0,0.0,0.0,0.0,0.0,0.0,0.0,0.0,0.0,0.0,0.0,0.0,0.0,0.0,0.0,0.0,0.0,0.0,0.0,0.0,0.2318,0.2318,0.0101,0.4831,0.5834,0.3724,0.914,1.0345,0.8142,1.0945,1.0749,0.8453,0.7851,0.8955,1.0958,0.8854,0.7998,0.8167,1.1218,1.2472,1.3073,1.5801,1.6849,1.6978,1.6978,1.6978,1.6978,1.6978,1.6978,1.7012,1.7154,1.7412,1.7609,1.7439,1.7405,1.7378,1.7209,1.7073,1.6985,1.6998,1.6992,1.6992,1.7026,1.7121,1.7202,1.7236,1.7344,1.7433,1.7467,1.7575,1.765,1.767,1.7914,1.8091,1.8111,1.8375,1.8531,1.8552,1.8694,1.8762,1.8762,1.8762,1.8762,1.8762,1.8762,1.8762,1.8762,1.8762,1.8762,1.8762,1.8762,1.8762,1.8762,1.8762,1.8762,0.0,0.0,0.0,0.0,0.0,0.0,0.0,0.0,0.0,0.0,0.0,0.0,0.0,0.0,0.0,0.0,0.0,0.0,0.0,0.0,0.0,0.0,0.0,0.0,0.0,0.0,0.0,0.0,0.0,0.0,0.0,0.0,0.0,0.0,0.0,0.0,0.0,0.0505,0.0505,0.0,0.111,0.1312,0.1009,0.6336,0.8539,0.8142,1.0945,1.1798,1.0964,0.6608,0.5085,0.5796,0.7522,0.6953,0.557,1.0608,1.2539,1.3073,1.5801,1.6849,1.6978,1.6978,1.6978,1.6978,1.6978,1.6978,1.7012,1.7154,1.7412,1.7589,1.7311,1.7324,1.7351,1.7087,1.6998,1.7012,1.7127,1.706,1.7053,1.729,1.7256,1.727,1.7514,1.748,1.75,1.7738,1.7704,1.7684,1.7812,1.7989,1.8145,1.8267,1.8423,1.8586,1.8708,1.8742,1.8762,1.8762,1.8762,1.8762,1.8762,1.8762,1.8762,1.8762,1.8762,1.8762,1.8762,1.8762,1.8762,1.8762,1.8762,1.8762,0.0,0.0,0.0,0.0,0.0,0.0,0.0,0.0,0.0,0.0,0.0,0.0,0.0,0.0,0.0,0.0,0.0,0.0,0.0,0.0,0.0,0.0,0.0,0.0,0.0,0.0,0.0,0.0,0.0,0.0,0.0,0.0,0.0,0.0,0.0,0.0,0.0,0.0,0.0707,0.2016,0.3323,0.473,0.6132,0.884,1.0045,1.0045,1.0091,0.933,0.7845,0.5126,0.3196,0.2279,0.5147,0.6299,0.6864,1.1014,1.3587,1.5062,1.6334,1.6917,1.6978,1.6978,1.6978,1.6992,1.7066,1.7195,1.7331,1.7399,1.7582,1.7684,1.7385,1.7365,1.7344,1.7053,1.6978,1.7019,1.7161,1.7134,1.7175,1.7473,1.7473,1.7467,1.7623,1.765,1.7684,1.7846,1.7806,1.7806,1.7948,1.8111,1.8267,1.8409,1.8552,1.8674,1.8762,1.8762,1.8762,1.8762,1.8762,1.8762,1.8762,1.8762,1.8762,1.8762,1.8762,1.8762,1.8762,1.8762,1.8762,1.8762,1.8762,1.8762,0.0,0.0,0.0,0.0,0.0,0.0,0.0,0.0,0.0,0.0,0.0,0.0,0.0,0.0,0.0,0.0,0.0,0.0,0.0,0.0,0.0,0.0,0.0,0.0,0.0,0.0,0.0,0.0,0.0,0.0,0.0,0.0,0.0,0.0,0.0,0.0,0.0,0.0,0.1311,0.4026,0.6235,0.8639,1.1344,1.1344,1.1359,1.1177,0.8427,0.6029,0.4004,0.3415,0.2298,0.1053,0.3958,0.646,0.8919,1.2271,1.4964,1.6978,1.6978,1.6978,1.6978,1.6978,1.6998,1.7046,1.7195,1.7433,1.765,1.765,1.7758,1.7812,1.7534,1.7446,1.7351,1.7087,1.7019,1.706,1.7202,1.7236,1.7324,1.7629,1.767,1.765,1.7684,1.7792,1.786,1.786,1.788,1.7948,1.8077,1.8247,1.8409,1.8511,1.8674,1.8762,1.8762,1.8762,1.8762,1.8762,1.8762,1.8762,1.8762,1.8762,1.8762,1.8762,1.8762,1.8762,1.8762,1.8762,1.8762,1.8762,1.8762,1.8762,0.0,0.0,0.0,0.0,0.0,0.0,0.0,0.0,0.0,0.0,0.0,0.0,0.0,0.0,0.0,0.0,0.0,0.0,0.0,0.0,0.0,0.0,0.0,0.0,0.0,0.0,0.0,0.0,0.0,0.0,0.0,0.0,0.0,0.0,0.0,0.0,0.0,0.0,0.1311,0.4026,0.4326,0.5834,0.8439,0.8439,0.8478,0.8343,0.5607,0.4326,0.3765,0.1469,0.1793,0.4031,0.6926,0.8196,0.9108,1.4505,1.6748,1.6978,1.6978,1.6978,1.6978,1.6978,1.7066,1.7195,1.7351,1.7514,1.765,1.765,1.7758,1.7826,1.767,1.7521,1.7378,1.7209,1.7168,1.7209,1.7365,1.7392,1.748,1.7772,1.7738,1.7684,1.7812,1.7846,1.786,1.786,1.7989,1.8077,1.8091,1.8335,1.8511,1.8531,1.8674,1.8762,1.8762,1.8762,1.8762,1.8762,1.8762,1.8762,1.8762,1.8762,1.8762,1.8762,1.8762,1.8762,1.8762,1.8762,1.8762,1.8762,1.8762,1.8762,0.0,0.0,0.0,0.0,0.0,0.0,0.0,0.0,0.0,0.0,0.0,0.0,0.0,0.0,0.0,0.0,0.0,0.0,0.0,0.0,0.0,0.0,0.0,0.0,0.0,0.0,0.0,0.0,0.0,0.0,0.0,0.0,0.0,0.0,0.0,0.0,0.0,0.0,0.2117,0.6333,0.4728,0.6233,1.0245,0.7136,0.5661,0.551,0.2877,0.1661,0.1682,0.2219,0.3181,0.4674,0.9187,1.0989,1.1451,1.5487,1.6978,1.6978,1.6978,1.6978,1.6992,1.7073,1.7263,1.7467,1.7534,1.765,1.7772,1.7772,1.7812,1.7812,1.7575,1.7467,1.7358,1.7127,1.7066,1.7134,1.7372,1.7351,1.7399,1.7792,1.7812,1.7826,1.7968,1.7914,1.7901,1.7989,1.8057,1.8158,1.8321,1.8464,1.8565,1.8654,1.8728,1.8762,1.8762,1.8762,1.8762,1.8762,1.8762,1.8762,1.8762,1.8762,1.8762,1.8762,1.8762,1.8762,1.8762,1.8762,1.8762,1.8762,1.8762,1.8762,0.0,0.0,0.0,0.0,0.0,0.0,0.0,0.0,0.0,0.0,0.0,0.0,0.0,0.0,0.0,0.0,0.0,0.0,0.0,0.0,0.0,0.0,0.0,0.0,0.0,0.0,0.0,0.0,0.0,0.0,0.0,0.0,0.0,0.0,0.0,0.0,0.0,0.0,0.272,0.7938,0.5331,0.6832,1.1948,0.645,0.3961,0.3895,0.1141,0.0,0.0106,0.223,0.3934,0.5841,0.9968,1.2505,1.4101,1.6229,1.6978,1.6978,1.6978,1.7005,1.7066,1.7256,1.7467,1.765,1.7704,1.7772,1.786,1.786,1.786,1.7812,1.7548,1.7453,1.7358,1.71,1.7073,1.7161,1.7372,1.7399,1.7473,1.7792,1.786,1.7914,1.8057,1.8036,1.8023,1.8145,1.8179,1.8287,1.8498,1.8565,1.864,1.8742,1.8762,1.8762,1.8762,1.8762,1.8762,1.8762,1.8762,1.8762,1.8762,1.8762,1.8762,1.8762,1.8762,1.8762,1.8762,1.8762,1.8762,1.8762,1.8762,1.8762,0.0,0.0,0.0,0.0,0.0,0.0,0.0,0.0,0.0,0.0,0.0,0.0,0.0,0.0,0.0,0.0,0.0,0.0,0.0,0.0,0.0,0.0,0.0,0.0,0.0,0.0,0.0,0.0,0.0,0.0,0.0,0.0,0.0,0.0,0.0,0.0,0.0,0.0,0.272,0.7938,0.5331,0.6832,1.1948,0.6493,0.3999,0.3828,0.1152,0.0,0.0,0.0107,0.3401,0.8382,0.8593,1.1983,1.6873,1.6978,1.6978,1.6978,1.6978,1.7073,1.7236,1.7534,1.754,1.767,1.7812,1.786,1.786,1.786,1.786,1.7826,1.7684,1.7534,1.7378,1.7222,1.7297,1.7405,1.7419,1.765,1.7846,1.786,1.786,1.7914,1.8057,1.8213,1.8301,1.8321,1.8423,1.8511,1.8531,1.8654,1.8762,1.8762,1.8762,1.8762,1.8762,1.8762,1.8762,1.8762,1.8762,1.8762,1.8762,1.8762,1.8762,1.8762,1.8762,1.8762,1.8762,1.8762,1.8762,1.8762,1.8762,1.8762,0.0,0.0,0.0,0.0,0.0,0.0,0.0,0.0,0.0,0.0,0.0,0.0,0.0,0.0,0.0,0.0,0.0,0.0,0.0,0.0,0.0,0.0,0.0,0.0,0.0,0.0,0.0,0.0,0.0,0.0,0.0,0.0,0.0,0.0,0.0,0.0,0.0,0.0,0.1815,0.5331,0.262,0.3234,0.6595,0.2958,0.1341,0.1256,0.042,0.0,0.032,0.4039,0.6793,0.8911,1.2621,1.5277,1.6978,1.6978,1.6978,1.6992,1.7087,1.7283,1.7514,1.7616,1.7717,1.7792,1.7846,1.786,1.786,1.786,1.786,1.7812,1.7561,1.746,1.7385,1.7229,1.7229,1.7324,1.7528,1.7568,1.7629,1.7826,1.786,1.7948,1.8199,1.8355,1.8464,1.8464,1.8498,1.8565,1.8674,1.8728,1.8762,1.8762,1.8762,1.8762,1.8762,1.8762,1.8762,1.8762,1.8762,1.8762,1.8762,1.8762,1.8762,1.8762,1.8762,1.8762,1.8762,1.8762,1.8762,1.8762,1.8762,1.8762,0.0,0.0,0.0,0.0,0.0,0.0,0.0,0.0,0.0,0.0,0.0,0.0,0.0,0.0,0.0,0.0,0.0,0.0,0.0,0.0,0.0,0.0,0.0,0.0,0.0,0.0,0.0,0.0,0.0,0.0,0.0,0.0,0.0,0.0,0.0,0.0,0.0,0.0,0.1311,0.3926,0.1316,0.1424,0.3878,0.1236,0.0,0.0,0.0,0.053,0.1809,0.5417,0.817,1.0391,1.3996,1.6124,1.6978,1.6978,1.7012,1.708,1.7222,1.7439,1.765,1.7704,1.7792,1.786,1.786,1.786,1.7846,1.7806,1.7826,1.7772,1.7433,1.7419,1.7446,1.7243,1.7277,1.7405,1.7609,1.7609,1.7636,1.7826,1.7914,1.8023,1.8287,1.8443,1.8552,1.8599,1.862,1.8654,1.8742,1.8762,1.8762,1.8762,1.8762,1.8762,1.8762,1.8762,1.8762,1.8762,1.8762,1.8762,1.8762,1.8762,1.8816,1.8918,1.8816,1.8816,1.8918,1.8816,1.8762,1.8762,1.8762,1.8762]}]]